[[{"header":{"parameterUnit":"m.s-1","parameterCategory":1,"la1":31.0,"la2":29.5877,"lo1":-88.7671,"lo2":-86.6584,"dy":0.0162,"dx":0.0185,"nx":115,"ny":88,"refTime":"2024-05-10T12:00:00:Z","depth":0,"parameterNumber":2,"parameterNumberName":"U-component_of_WINDS"},"data":[0.0,0.0,0.0,0.0,0.0,0.0,0.0,0.0,0.0,0.0,0.0,0.0,0.0,0.0,0.0,0.0,0.0,0.0,0.0,0.0,0.0,0.0,0.0,0.0,0.0,0.0,0.0,0.0,0.0,0.0,0.0,0.0,0.0,0.0,0.0,0.0,0.0,0.0,0.0,0.0,0.0,0.0,0.0,0.0,0.0,0.0,0.0,0.0,0.0,0.0,0.0,0.0,0.0,0.0,0.0,0.0,0.0,0.0,0.0,0.0,0.0,0.0,0.0,0.0,0.0,0.0,0.0,0.0,0.0,0.0,0.0,0.0,0.0,0.0,0.0,0.0,0.0,0.0,0.0,0.0,0.0,0.0,0.0,0.0,0.0,0.0,0.0,0.0,0.0,0.0,0.0,0.0,0.0,0.0,0.0,0.0,0.0,0.0,0.0,0.0,0.0,0.0,0.0,0.0,0.0,0.0,0.0,0.0,0.0,0.0,0.0,0.0,0.0,0.0,0.0,0.0,0.0,0.0,0.0,0.0,0.0,0.0,0.0,0.0,0.0,0.0,0.0,0.0,0.0,0.0,0.0,0.0,0.0,0.0,0.0,0.0,0.0,0.0,0.0,0.0,0.0,0.0,0.0,0.0,0.0,0.0,0.0,0.0,0.0,0.0,0.0,0.0,0.0,0.0,0.0,0.0,0.0,0.0,0.0,0.0,0.0,0.0,0.0,0.0,0.0,0.0,0.0,0.0,0.0,0.0,0.0,0.0,0.0,0.0,0.0,0.0,0.0,0.0,0.0,0.0,0.0,0.0,0.0,0.0,0.0,0.0,0.0,0.0,0.0,0.0,0.0,0.0,0.0,0.0,0.0,0.0,0.0,0.0,0.0,0.0,0.0,0.0,0.0,0.0,0.0,0.0,0.0,0.0,0.0,0.0,0.0,0.0,0.0,0.0,0.0,0.0,0.0,0.0,0.0,0.0,0.0,0.0,0.0,0.0,0.0,0.0,0.0,0.0,0.0,0.0,0.0,0.0,0.0,0.0,0.0,0.0,0.0,0.0,0.0,0.0,0.0,0.0,0.0,0.0,0.0,0.0,0.0,0.0,0.0,0.0,0.0,0.0,0.0,0.0,0.0,0.0,0.0,0.0,0.0,0.0,0.0,0.0,0.0,0.0,0.0,0.0,0.0,0.0,0.0,0.0,0.0,0.0,0.0,0.0,0.0,0.0,0.0,0.0,0.0,0.0,0.0,0.0,0.0,0.0,0.0,0.0,0.0,0.0,0.0,0.0,0.0,0.0,0.0,0.0,0.0,0.0,0.0,0.0,0.0,0.0,0.0,0.0,0.0,0.0,0.0,0.0,0.0,0.0,0.0,0.0,0.0,0.0,0.0,0.0,0.0,0.0,0.0,0.0,0.0,0.0,0.0,0.0,0.0,0.0,0.0,0.0,0.0,0.0,0.0,0.0,0.0,0.0,0.0,0.0,0.0,0.0,0.0,0.0,0.0,0.0,0.0,0.0,0.0,0.0,0.0,0.0,0.0,0.0,0.0,0.0,0.0,0.0,0.0,0.0,0.0,0.0,0.0,0.0,0.0,0.0,0.0,0.0,0.0,0.0,0.0,0.0,0.0,0.0,0.0,0.0,0.0,0.0,0.0,0.0,0.0,0.0,0.0,0.0,0.0,0.0,0.0,0.0,0.0,0.0,0.0,0.0,0.0,0.0,0.0,0.0,0.0,0.0,0.0,0.0,0.0,0.0,0.0,0.0,0.0,0.0,0.0,0.0,0.0,0.0,0.0,0.0,0.0,0.0,0.0,0.0,0.0,0.0,0.0,0.0,0.0,0.0,0.0,0.0,0.0,0.0,0.0,0.0,0.0,0.0,0.0,0.0,0.0,0.0,0.0,0.0,0.0,0.0,0.0,0.0,0.0,0.0,0.0,0.0,0.0,0.0,0.0,0.0,0.0,0.0,0.0,0.0,0.0,0.0,0.0,0.0,0.0,0.0,0.0,0.0,0.0,0.0,0.0,0.0,0.0,0.0,0.0,0.0,0.0,0.0,0.0,0.0,0.0,0.0,0.0,0.0,0.0,0.0,0.0,0.0,0.0,0.0,0.0,0.0,0.0,0.0,0.0,0.0,0.0,0.0,0.0,0.0,0.0,0.0,0.0,0.0,0.0,0.0,0.0,0.0,0.0,0.0,0.0,0.0,0.0,0.0,0.0,0.0,0.0,0.0,0.0,0.0,0.0,0.0,0.0,0.0,0.0,0.0,0.0,0.0,0.0,0.0,0.0,0.0,0.0,0.0,0.0,0.0,0.0,0.0,0.0,0.0,0.0,0.0,0.0,0.0,0.0,0.0,0.0,0.0,0.0,0.0,0.0,0.0,0.0,0.0,0.0,0.0,0.0,0.0,0.0,0.0,0.0,0.0,0.0,0.0,0.0,0.0,0.0,0.0,0.0,0.0,0.0,0.0,0.0,0.0,0.0,0.0,0.0,0.0,0.0,0.0,0.0,0.0,0.0,0.0,0.0,0.0,0.0,0.0,0.0,0.0,0.0,0.0,0.0,0.0,0.0,0.0,0.0,0.0,0.0,0.0,0.0,0.0,0.0,0.0,0.0,0.0,0.0,0.0,0.0,0.0,0.0,0.0,0.0,0.0,0.0,0.0,0.0,0.0,0.0,0.0,0.0,0.0,0.0,0.0,0.0,0.0,0.0,0.0,0.0,0.0,0.0,0.0,0.0,0.0,0.0,0.0,0.0,0.0,0.0,0.0,0.0,0.0,0.0,0.0,0.0,0.0,0.0,0.0,0.0,0.0,0.0,0.0,0.0,0.0,0.0,0.0,0.0,0.0,0.0,0.0,0.0,0.0,0.0,0.0,0.0,0.0,0.0,0.0,0.0,0.0,0.0,0.0,0.0,0.0,0.0,0.0,0.0,0.0,0.0,0.0,0.0,0.0,0.0,0.0,0.0,0.0,0.0,0.0,0.0,0.0,0.0,0.0,0.0,0.0,0.0,0.0,0.0,0.0,0.0,0.0,0.0,0.0,0.0,0.0,0.0,0.0,0.0,0.0,0.0,0.0,0.0,0.0,0.0,0.0,0.0,0.0,0.0,0.0,0.0,0.0,0.0,0.0,0.0,0.0,0.0,0.0,0.0,0.0,0.0,0.0,0.0,0.0,0.0,0.0,0.0,0.0,0.0,0.0,0.0,0.0,0.0,0.0,0.0,0.0,0.0,0.0,0.0,0.0,0.0,0.0,0.0,0.0,0.0,0.0,0.0,0.0,0.0,0.0,0.0,0.0,0.0,0.0,0.0,0.0,0.0,0.0,0.0,0.0,0.0,0.0,0.0,0.0,0.0,0.0,0.0,0.0,0.0,0.0,0.0,0.0,0.0,0.0,0.0,0.0,0.0,0.0,0.0,0.0,0.0,0.0,0.0,0.0,0.0,0.0,0.0,0.0,0.0,0.0,0.0,0.0,0.0,0.0,0.0,0.0,0.0,0.0,0.0,0.0,0.0,0.0,0.0,0.0,0.0,0.0,0.0,0.0,0.0,0.0,0.0,0.0,0.0,0.0,0.0,0.0,0.0,0.0,0.0,0.0,0.0,0.0,0.0,0.0,0.0,0.0,0.0,0.0,0.0,0.0,0.0,0.0,0.0,0.0,0.0,0.0,0.0,0.0,0.0,0.0,0.0,0.0,0.0,0.0,0.0,0.0,0.0,0.0,0.0,0.0,0.0,0.0,0.0,0.0,0.0,0.0,0.0,0.0,0.0,0.0,0.0,0.0,0.0,0.0,0.0,0.0,0.0,0.0,0.0,0.0,0.0,0.0,0.0,0.0,0.0,0.0,0.0,0.0,0.0,0.0,0.0,0.0,0.0,0.0,0.0,0.0,0.0,0.0,0.0,0.0,0.0,0.0,0.0,0.0,0.0,0.0,0.0,0.0,0.0,0.0,0.0,0.0,0.0,0.0,0.0,0.0,0.0,0.0,0.0,0.0,0.0,0.0,0.0,0.0,0.0,0.0,0.0,0.0,0.0,0.0,0.0,0.0,0.0,0.0,0.0,0.0,0.0,0.0,0.0,0.0,0.0,0.0,0.0,0.0,0.0,0.0,0.0,0.0,0.0,0.0,0.0,0.0,0.0,0.0,0.0,0.0,0.0,0.0,0.0,0.0,0.0,0.0,0.0,0.0,0.0,0.0,0.0,0.0,0.0,0.0,0.0,0.0,0.0,0.0,0.0,0.0,0.0,0.0,0.0,0.0,0.0,0.0,-4.5397,0.0,0.0,0.0,0.0,0.0,0.0,0.0,0.0,0.0,0.0,0.0,0.0,0.0,0.0,0.0,0.0,0.0,0.0,0.0,0.0,0.0,0.0,0.0,0.0,0.0,0.0,0.0,0.0,0.0,0.0,0.0,0.0,0.0,0.0,0.0,0.0,0.0,0.0,0.0,0.0,0.0,0.0,0.0,0.0,0.0,0.0,0.0,0.0,0.0,0.0,0.0,0.0,0.0,0.0,0.0,0.0,0.0,0.0,0.0,0.0,0.0,0.0,0.0,0.0,0.0,0.0,0.0,0.0,0.0,0.0,0.0,0.0,0.0,0.0,0.0,0.0,0.0,0.0,0.0,0.0,0.0,0.0,0.0,0.0,0.0,0.0,0.0,0.0,0.0,0.0,0.0,0.0,0.0,0.0,0.0,0.0,0.0,0.0,0.0,0.0,0.0,0.0,0.0,0.0,0.0,0.0,0.0,0.0,0.0,0.0,-4.5397,-4.5397,-4.5397,-4.5397,-4.5397,0.0,0.0,0.0,0.0,0.0,0.0,0.0,0.0,0.0,0.0,0.0,0.0,0.0,0.0,0.0,0.0,0.0,0.0,0.0,0.0,0.0,0.0,0.0,0.0,0.0,0.0,0.0,0.0,0.0,0.0,0.0,0.0,0.0,0.0,0.0,0.0,0.0,0.0,0.0,0.0,0.0,0.0,0.0,0.0,0.0,0.0,0.0,0.0,0.0,0.0,0.0,0.0,0.0,0.0,0.0,0.0,0.0,0.0,0.0,0.0,0.0,0.0,0.0,0.0,0.0,0.0,0.0,0.0,0.0,0.0,0.0,0.0,0.0,0.0,0.0,0.0,0.0,0.0,0.0,0.0,0.0,0.0,0.0,0.0,0.0,0.0,0.0,0.0,0.0,0.0,0.0,0.0,0.0,0.0,0.0,0.0,0.0,0.0,0.0,0.0,0.0,0.0,0.0,0.0,0.0,0.0,0.0,0.0,0.0,0.0,0.0,0.0,-4.5397,-4.5344,-4.5211,0.0,0.0,0.0,0.0,0.0,0.0,0.0,0.0,0.0,0.0,0.0,0.0,0.0,0.0,0.0,0.0,0.0,0.0,0.0,0.0,0.0,0.0,0.0,0.0,0.0,0.0,0.0,0.0,0.0,0.0,0.0,0.0,0.0,0.0,0.0,0.0,0.0,0.0,0.0,0.0,0.0,0.0,0.0,0.0,0.0,0.0,0.0,0.0,0.0,0.0,0.0,0.0,0.0,0.0,0.0,0.0,0.0,0.0,0.0,0.0,0.0,0.0,0.0,0.0,0.0,0.0,0.0,0.0,0.0,0.0,0.0,0.0,0.0,0.0,0.0,0.0,0.0,0.0,0.0,0.0,0.0,0.0,0.0,0.0,0.0,0.0,0.0,0.0,0.0,0.0,0.0,0.0,0.0,0.0,0.0,0.0,0.0,0.0,0.0,0.0,0.0,0.0,0.0,0.0,0.0,0.0,0.0,0.0,0.0,0.0,-4.5397,-4.5397,-4.5397,0.0,-4.4659,0.0,0.0,0.0,0.0,0.0,0.0,0.0,0.0,0.0,0.0,0.0,0.0,0.0,0.0,0.0,0.0,0.0,0.0,0.0,0.0,0.0,0.0,0.0,0.0,0.0,0.0,0.0,0.0,0.0,0.0,0.0,0.0,0.0,0.0,0.0,0.0,0.0,0.0,0.0,0.0,0.0,0.0,0.0,0.0,0.0,0.0,0.0,0.0,0.0,0.0,0.0,0.0,0.0,0.0,0.0,0.0,0.0,0.0,0.0,0.0,0.0,0.0,0.0,0.0,0.0,0.0,0.0,0.0,0.0,0.0,0.0,0.0,0.0,0.0,0.0,0.0,0.0,0.0,0.0,0.0,0.0,0.0,0.0,0.0,0.0,0.0,0.0,0.0,0.0,0.0,0.0,0.0,0.0,0.0,0.0,0.0,0.0,0.0,0.0,0.0,0.0,0.0,0.0,0.0,0.0,0.0,0.0,0.0,0.0,0.0,-4.5397,-4.5397,-4.5397,-4.5291,0.0,0.0,0.0,0.0,0.0,0.0,0.0,0.0,0.0,0.0,0.0,0.0,0.0,0.0,0.0,0.0,0.0,0.0,0.0,0.0,0.0,0.0,0.0,0.0,0.0,0.0,0.0,0.0,0.0,0.0,0.0,0.0,0.0,0.0,0.0,0.0,0.0,0.0,0.0,0.0,0.0,0.0,0.0,0.0,0.0,0.0,0.0,0.0,0.0,0.0,0.0,0.0,0.0,0.0,0.0,0.0,0.0,0.0,0.0,0.0,0.0,0.0,0.0,0.0,0.0,0.0,0.0,0.0,0.0,0.0,0.0,0.0,0.0,0.0,0.0,0.0,0.0,0.0,0.0,0.0,0.0,0.0,0.0,0.0,0.0,0.0,0.0,0.0,0.0,0.0,0.0,0.0,0.0,0.0,0.0,0.0,0.0,0.0,0.0,0.0,0.0,0.0,0.0,0.0,0.0,0.0,0.0,0.0,0.0,0.0,-4.5493,-4.5845,-4.6017,-4.6017,-4.5937,-4.5767,0.0,0.0,0.0,0.0,0.0,0.0,0.0,0.0,0.0,0.0,0.0,0.0,0.0,0.0,0.0,0.0,0.0,0.0,0.0,0.0,0.0,0.0,0.0,0.0,0.0,0.0,0.0,0.0,0.0,0.0,0.0,0.0,0.0,0.0,0.0,0.0,0.0,0.0,0.0,0.0,0.0,0.0,0.0,0.0,0.0,0.0,0.0,0.0,0.0,0.0,0.0,0.0,0.0,0.0,0.0,0.0,0.0,0.0,0.0,0.0,0.0,0.0,0.0,0.0,0.0,0.0,0.0,0.0,0.0,0.0,0.0,0.0,0.0,0.0,0.0,0.0,0.0,0.0,0.0,0.0,0.0,0.0,0.0,0.0,0.0,0.0,0.0,0.0,0.0,0.0,0.0,0.0,0.0,0.0,0.0,0.0,0.0,0.0,0.0,0.0,0.0,0.0,0.0,0.0,0.0,0.0,0.0,0.0,-4.6152,-4.6419,-4.6872,-4.75,-4.7596,-4.7283,0.0,0.0,0.0,0.0,0.0,0.0,0.0,0.0,0.0,0.0,0.0,0.0,0.0,0.0,0.0,0.0,0.0,0.0,0.0,0.0,0.0,0.0,0.0,0.0,0.0,0.0,0.0,0.0,0.0,0.0,0.0,0.0,0.0,0.0,0.0,0.0,0.0,0.0,0.0,0.0,0.0,0.0,0.0,0.0,0.0,0.0,0.0,0.0,0.0,0.0,0.0,0.0,0.0,0.0,0.0,0.0,0.0,0.0,0.0,0.0,0.0,0.0,0.0,0.0,0.0,0.0,0.0,0.0,0.0,0.0,0.0,0.0,0.0,0.0,0.0,0.0,0.0,0.0,0.0,0.0,0.0,0.0,0.0,0.0,0.0,0.0,0.0,0.0,0.0,0.0,0.0,0.0,0.0,0.0,0.0,0.0,0.0,0.0,0.0,0.0,0.0,0.0,0.0,0.0,0.0,0.0,0.0,0.0,0.0,-4.5768,-4.6743,-4.7458,-4.77,-4.77,-4.7589,0.0,0.0,0.0,0.0,0.0,0.0,0.0,0.0,0.0,0.0,0.0,0.0,0.0,0.0,0.0,0.0,0.0,0.0,0.0,0.0,0.0,0.0,0.0,0.0,0.0,0.0,0.0,0.0,0.0,0.0,0.0,0.0,0.0,0.0,0.0,0.0,0.0,0.0,0.0,0.0,0.0,0.0,0.0,0.0,0.0,0.0,0.0,0.0,0.0,0.0,0.0,0.0,0.0,0.0,0.0,0.0,0.0,0.0,0.0,0.0,0.0,0.0,0.0,0.0,0.0,0.0,0.0,0.0,0.0,0.0,0.0,0.0,0.0,0.0,0.0,0.0,0.0,0.0,0.0,0.0,0.0,0.0,0.0,0.0,0.0,0.0,0.0,0.0,0.0,0.0,0.0,0.0,0.0,0.0,0.0,0.0,0.0,0.0,0.0,0.0,0.0,0.0,0.0,0.0,0.0,0.0,0.0,0.0,0.0,-4.6447,0.0,-4.8459,-4.843,-4.8226,-4.8077,0.0,0.0,0.0,0.0,0.0,0.0,0.0,0.0,0.0,0.0,0.0,0.0,0.0,0.0,0.0,0.0,0.0,0.0,0.0,0.0,0.0,0.0,0.0,0.0,0.0,0.0,0.0,0.0,0.0,0.0,0.0,0.0,0.0,0.0,0.0,0.0,0.0,0.0,0.0,0.0,0.0,0.0,0.0,0.0,0.0,0.0,0.0,0.0,0.0,0.0,0.0,0.0,0.0,0.0,0.0,0.0,0.0,0.0,0.0,0.0,0.0,0.0,0.0,0.0,0.0,0.0,0.0,0.0,0.0,0.0,0.0,0.0,0.0,0.0,0.0,0.0,0.0,0.0,0.0,0.0,0.0,0.0,0.0,0.0,0.0,0.0,0.0,0.0,0.0,0.0,0.0,0.0,0.0,0.0,0.0,0.0,0.0,0.0,0.0,0.0,0.0,0.0,0.0,0.0,0.0,0.0,0.0,0.0,-4.614,-4.8489,-4.9447,-4.9907,-4.9947,-4.9278,-4.8911,0.0,0.0,0.0,0.0,0.0,0.0,0.0,0.0,0.0,0.0,0.0,0.0,0.0,0.0,0.0,0.0,0.0,0.0,0.0,0.0,0.0,0.0,0.0,0.0,0.0,0.0,0.0,0.0,0.0,0.0,0.0,0.0,0.0,0.0,0.0,0.0,0.0,0.0,0.0,0.0,0.0,0.0,0.0,0.0,0.0,0.0,0.0,0.0,0.0,0.0,0.0,0.0,0.0,0.0,0.0,0.0,0.0,0.0,0.0,0.0,0.0,0.0,0.0,0.0,0.0,0.0,0.0,0.0,0.0,0.0,0.0,0.0,0.0,0.0,0.0,0.0,0.0,0.0,0.0,0.0,0.0,0.0,0.0,0.0,0.0,0.0,0.0,0.0,0.0,0.0,0.0,0.0,0.0,0.0,0.0,0.0,0.0,0.0,0.0,0.0,0.0,0.0,0.0,0.0,0.0,0.0,0.0,0.0,0.0,-4.9335,-4.9786,-5.0011,-5.0011,-4.9801,-4.9406,0.0,0.0,0.0,0.0,0.0,0.0,0.0,0.0,0.0,0.0,0.0,0.0,0.0,0.0,0.0,0.0,0.0,0.0,0.0,0.0,0.0,0.0,0.0,0.0,0.0,0.0,0.0,0.0,0.0,0.0,0.0,0.0,0.0,0.0,0.0,0.0,0.0,0.0,0.0,0.0,0.0,0.0,0.0,0.0,0.0,0.0,0.0,0.0,0.0,0.0,0.0,0.0,0.0,0.0,0.0,0.0,0.0,0.0,0.0,0.0,0.0,0.0,0.0,0.0,0.0,0.0,0.0,0.0,0.0,0.0,0.0,0.0,0.0,0.0,0.0,0.0,0.0,0.0,0.0,0.0,0.0,0.0,0.0,0.0,0.0,0.0,0.0,0.0,0.0,0.0,0.0,0.0,0.0,0.0,0.0,0.0,0.0,0.0,0.0,0.0,0.0,0.0,0.0,0.0,0.0,0.0,0.0,0.0,0.0,-4.9945,-5.0243,-5.0395,-5.0302,-4.9786,-4.9156,-4.8446,0.0,0.0,0.0,0.0,0.0,0.0,0.0,0.0,0.0,0.0,0.0,0.0,0.0,0.0,0.0,0.0,0.0,0.0,0.0,0.0,0.0,0.0,0.0,0.0,0.0,0.0,0.0,0.0,0.0,0.0,0.0,0.0,0.0,0.0,0.0,0.0,0.0,0.0,0.0,0.0,0.0,0.0,0.0,0.0,0.0,0.0,0.0,0.0,0.0,0.0,0.0,0.0,0.0,0.0,0.0,0.0,0.0,0.0,0.0,0.0,0.0,0.0,0.0,0.0,0.0,0.0,0.0,0.0,0.0,0.0,0.0,0.0,0.0,0.0,0.0,0.0,0.0,0.0,0.0,0.0,0.0,0.0,0.0,0.0,0.0,0.0,0.0,0.0,0.0,0.0,0.0,0.0,0.0,0.0,0.0,0.0,0.0,0.0,0.0,0.0,0.0,0.0,0.0,0.0,0.0,0.0,0.0,0.0,-5.0326,-5.0887,-5.1034,-5.0845,-4.9487,-4.8397,0.0,0.0,0.0,0.0,0.0,0.0,0.0,0.0,0.0,0.0,0.0,0.0,0.0,0.0,0.0,0.0,0.0,0.0,0.0,0.0,0.0,0.0,0.0,0.0,0.0,0.0,0.0,0.0,0.0,0.0,0.0,0.0,0.0,0.0,0.0,0.0,0.0,0.0,0.0,0.0,0.0,0.0,0.0,0.0,0.0,0.0,0.0,0.0,0.0,0.0,0.0,0.0,0.0,0.0,0.0,0.0,0.0,0.0,0.0,0.0,0.0,0.0,0.0,0.0,0.0,0.0,0.0,0.0,0.0,0.0,0.0,0.0,0.0,0.0,0.0,0.0,0.0,0.0,0.0,0.0,0.0,0.0,0.0,0.0,0.0,0.0,0.0,0.0,0.0,0.0,0.0,0.0,0.0,0.0,0.0,0.0,0.0,0.0,0.0,0.0,0.0,0.0,0.0,0.0,0.0,0.0,0.0,0.0,0.0,-5.0159,-5.1026,-5.1451,-5.1418,-5.0048,-4.8928,0.0,0.0,0.0,0.0,0.0,0.0,0.0,0.0,0.0,0.0,0.0,0.0,0.0,0.0,0.0,0.0,0.0,0.0,0.0,0.0,0.0,0.0,0.0,0.0,0.0,0.0,0.0,0.0,0.0,0.0,0.0,0.0,0.0,0.0,0.0,0.0,0.0,0.0,0.0,0.0,0.0,0.0,0.0,0.0,0.0,0.0,0.0,0.0,0.0,0.0,0.0,0.0,0.0,0.0,0.0,0.0,0.0,0.0,0.0,0.0,0.0,0.0,0.0,0.0,0.0,0.0,0.0,0.0,0.0,0.0,0.0,0.0,0.0,0.0,0.0,0.0,0.0,0.0,0.0,0.0,0.0,0.0,0.0,0.0,0.0,0.0,0.0,0.0,0.0,0.0,0.0,0.0,0.0,0.0,0.0,0.0,0.0,0.0,0.0,0.0,0.0,0.0,0.0,0.0,0.0,0.0,0.0,0.0,-4.9488,-5.056,-5.1427,-5.1897,-5.1966,-5.0057,-4.8613,0.0,0.0,0.0,0.0,0.0,0.0,0.0,0.0,0.0,0.0,0.0,0.0,0.0,0.0,0.0,0.0,0.0,0.0,0.0,0.0,0.0,0.0,0.0,0.0,0.0,0.0,0.0,0.0,0.0,0.0,0.0,0.0,0.0,0.0,0.0,0.0,0.0,0.0,0.0,0.0,0.0,0.0,0.0,0.0,0.0,0.0,0.0,0.0,0.0,0.0,0.0,0.0,0.0,0.0,0.0,0.0,0.0,0.0,0.0,0.0,0.0,0.0,0.0,0.0,0.0,0.0,0.0,0.0,0.0,0.0,0.0,0.0,0.0,0.0,0.0,0.0,0.0,0.0,0.0,0.0,0.0,0.0,0.0,0.0,0.0,0.0,0.0,0.0,0.0,0.0,0.0,0.0,0.0,0.0,0.0,0.0,0.0,0.0,0.0,0.0,0.0,0.0,0.0,0.0,0.0,0.0,0.0,0.0,-5.0493,-5.132,-5.1858,-5.22,-5.2098,-4.9677,-4.7914,0.0,0.0,0.0,0.0,0.0,0.0,0.0,0.0,0.0,0.0,0.0,0.0,0.0,0.0,0.0,0.0,0.0,0.0,0.0,0.0,0.0,0.0,0.0,0.0,0.0,0.0,0.0,0.0,0.0,0.0,0.0,0.0,0.0,0.0,0.0,0.0,0.0,0.0,0.0,0.0,0.0,0.0,0.0,0.0,0.0,0.0,0.0,0.0,0.0,0.0,0.0,0.0,0.0,0.0,0.0,0.0,0.0,0.0,0.0,0.0,0.0,0.0,0.0,0.0,0.0,0.0,0.0,0.0,0.0,0.0,0.0,0.0,0.0,0.0,0.0,0.0,0.0,0.0,0.0,0.0,0.0,0.0,0.0,0.0,0.0,0.0,0.0,0.0,0.0,0.0,0.0,0.0,0.0,0.0,0.0,0.0,0.0,0.0,0.0,0.0,0.0,0.0,0.0,0.0,0.0,0.0,0.0,0.0,-5.076,-5.1997,-5.1633,-5.1331,-5.1331,-4.9122,-4.7807,0.0,0.0,0.0,0.0,0.0,0.0,0.0,0.0,0.0,0.0,0.0,0.0,0.0,0.0,0.0,0.0,0.0,0.0,0.0,0.0,0.0,0.0,0.0,0.0,0.0,0.0,0.0,0.0,0.0,0.0,0.0,0.0,0.0,0.0,0.0,0.0,0.0,0.0,0.0,0.0,0.0,0.0,0.0,0.0,0.0,0.0,0.0,0.0,-5.1666,0.0,0.0,0.0,0.0,0.0,0.0,0.0,0.0,0.0,0.0,0.0,0.0,0.0,0.0,0.0,0.0,0.0,0.0,0.0,0.0,0.0,0.0,0.0,0.0,0.0,0.0,0.0,0.0,0.0,0.0,0.0,0.0,0.0,0.0,0.0,0.0,0.0,0.0,0.0,0.0,0.0,0.0,0.0,0.0,0.0,0.0,0.0,0.0,0.0,0.0,0.0,0.0,0.0,0.0,0.0,0.0,0.0,0.0,0.0,-5.059,-5.1664,-5.0941,-5.0538,-5.0467,-4.8709,-4.7559,0.0,0.0,0.0,0.0,0.0,0.0,0.0,0.0,0.0,0.0,0.0,0.0,0.0,0.0,0.0,0.0,0.0,0.0,0.0,0.0,0.0,0.0,0.0,0.0,0.0,0.0,0.0,0.0,0.0,0.0,0.0,0.0,0.0,0.0,0.0,0.0,0.0,0.0,0.0,0.0,0.0,0.0,0.0,0.0,0.0,0.0,0.0,0.0,0.0,0.0,0.0,0.0,0.0,0.0,0.0,0.0,0.0,0.0,0.0,0.0,0.0,0.0,0.0,0.0,0.0,0.0,0.0,0.0,0.0,0.0,0.0,0.0,0.0,0.0,0.0,0.0,0.0,0.0,0.0,0.0,0.0,0.0,0.0,0.0,0.0,0.0,0.0,0.0,0.0,0.0,0.0,0.0,0.0,0.0,0.0,0.0,0.0,0.0,0.0,0.0,0.0,0.0,0.0,0.0,0.0,0.0,0.0,-4.9278,-5.0345,-5.134,-5.053,-5.0089,-5.0184,-4.8683,-4.7588,-4.6911,0.0,0.0,0.0,0.0,0.0,0.0,0.0,0.0,0.0,0.0,0.0,0.0,0.0,0.0,0.0,0.0,0.0,0.0,0.0,0.0,0.0,0.0,0.0,0.0,0.0,0.0,0.0,0.0,0.0,0.0,0.0,0.0,0.0,0.0,0.0,0.0,0.0,0.0,-5.0178,-5.008,0.0,0.0,0.0,0.0,0.0,0.0,0.0,0.0,-5.3736,0.0,0.0,0.0,0.0,0.0,0.0,0.0,0.0,0.0,0.0,0.0,0.0,0.0,0.0,0.0,0.0,0.0,0.0,0.0,0.0,0.0,0.0,0.0,0.0,0.0,0.0,0.0,0.0,0.0,0.0,0.0,0.0,0.0,0.0,0.0,0.0,0.0,0.0,0.0,0.0,0.0,0.0,0.0,0.0,0.0,0.0,0.0,0.0,0.0,0.0,0.0,0.0,0.0,0.0,0.0,0.0,-4.9719,-4.9298,-5.0311,-5.2864,-5.1527,-5.1006,-5.1502,-5.0144,-4.9004,-4.8266,0.0,0.0,0.0,0.0,0.0,0.0,0.0,0.0,0.0,0.0,0.0,0.0,0.0,0.0,0.0,0.0,0.0,0.0,0.0,0.0,0.0,0.0,0.0,0.0,0.0,0.0,0.0,0.0,0.0,0.0,0.0,0.0,0.0,0.0,0.0,0.0,0.0,0.0,0.0,-5.0477,-5.0281,0.0,0.0,0.0,0.0,0.0,0.0,0.0,0.0,-5.5529,0.0,0.0,0.0,0.0,0.0,0.0,0.0,0.0,0.0,0.0,0.0,0.0,0.0,0.0,0.0,0.0,0.0,0.0,0.0,0.0,0.0,0.0,0.0,0.0,0.0,0.0,0.0,0.0,0.0,0.0,0.0,0.0,0.0,0.0,0.0,0.0,0.0,0.0,0.0,0.0,0.0,0.0,0.0,0.0,0.0,0.0,0.0,0.0,0.0,0.0,0.0,0.0,0.0,0.0,0.0,-4.9826,-4.9903,-5.0769,-5.2469,-5.1408,-5.0933,-5.1245,-5.0232,-4.9528,0.0,0.0,0.0,0.0,0.0,0.0,0.0,0.0,0.0,0.0,0.0,0.0,0.0,0.0,0.0,0.0,0.0,0.0,0.0,0.0,0.0,0.0,0.0,0.0,0.0,0.0,0.0,0.0,0.0,0.0,0.0,0.0,0.0,0.0,0.0,0.0,0.0,0.0,0.0,0.0,-5.1144,-5.1454,-5.2239,0.0,0.0,0.0,0.0,0.0,0.0,-5.5632,-5.5704,0.0,0.0,0.0,0.0,0.0,0.0,0.0,0.0,0.0,0.0,0.0,0.0,0.0,0.0,0.0,0.0,0.0,0.0,0.0,0.0,0.0,0.0,0.0,0.0,0.0,0.0,0.0,0.0,0.0,0.0,0.0,0.0,0.0,0.0,0.0,0.0,0.0,0.0,0.0,0.0,0.0,0.0,0.0,0.0,0.0,0.0,0.0,0.0,0.0,0.0,0.0,0.0,0.0,0.0,0.0,-4.9765,-5.0322,-5.1067,-5.2029,-5.1324,-5.0974,-5.1067,-5.0328,-4.9897,0.0,0.0,0.0,0.0,0.0,0.0,0.0,0.0,0.0,0.0,0.0,0.0,0.0,0.0,0.0,0.0,0.0,0.0,0.0,0.0,0.0,0.0,0.0,0.0,0.0,0.0,0.0,0.0,0.0,0.0,0.0,0.0,0.0,0.0,0.0,0.0,0.0,0.0,0.0,0.0,0.0,-5.2735,-5.3529,-5.3632,0.0,0.0,0.0,0.0,-5.5531,-5.5704,0.0,0.0,0.0,0.0,0.0,0.0,0.0,0.0,0.0,0.0,0.0,0.0,0.0,0.0,0.0,0.0,0.0,0.0,0.0,0.0,0.0,0.0,0.0,0.0,0.0,0.0,0.0,0.0,0.0,0.0,0.0,0.0,0.0,0.0,0.0,0.0,0.0,0.0,0.0,0.0,0.0,0.0,0.0,0.0,0.0,0.0,0.0,0.0,0.0,0.0,0.0,0.0,0.0,0.0,0.0,0.0,-4.9829,-4.9822,-5.0776,-5.2639,-5.1996,-5.1867,-5.2452,-5.1251,-5.0574,0.0,0.0,0.0,0.0,0.0,0.0,0.0,0.0,0.0,0.0,0.0,0.0,0.0,0.0,0.0,0.0,0.0,0.0,0.0,0.0,0.0,0.0,0.0,0.0,0.0,0.0,0.0,0.0,0.0,0.0,0.0,0.0,0.0,0.0,0.0,0.0,0.0,0.0,0.0,0.0,0.0,-5.3529,-5.4287,-5.4391,-5.4425,0.0,0.0,-5.6322,-5.5669,-5.6184,0.0,0.0,0.0,0.0,0.0,0.0,0.0,0.0,0.0,0.0,0.0,0.0,0.0,0.0,0.0,0.0,0.0,0.0,0.0,0.0,0.0,0.0,0.0,0.0,0.0,0.0,0.0,0.0,0.0,0.0,0.0,0.0,0.0,0.0,0.0,0.0,0.0,0.0,0.0,0.0,0.0,0.0,0.0,0.0,0.0,0.0,0.0,0.0,0.0,0.0,0.0,0.0,0.0,0.0,0.0,-4.9305,-5.032,-5.1067,-5.1858,-5.2735,-5.2445,-5.2421,-5.2698,-5.1405,-5.0697,0.0,0.0,0.0,0.0,0.0,0.0,0.0,0.0,0.0,0.0,0.0,0.0,0.0,0.0,0.0,0.0,0.0,0.0,0.0,0.0,0.0,0.0,0.0,0.0,0.0,0.0,0.0,0.0,0.0,0.0,0.0,0.0,0.0,0.0,0.0,0.0,0.0,0.0,0.0,0.0,0.0,0.0,-5.4954,-5.5464,0.0,0.0,0.0,-5.5874,-5.5115,0.0,0.0,0.0,0.0,0.0,0.0,0.0,0.0,0.0,0.0,0.0,0.0,0.0,0.0,0.0,0.0,0.0,0.0,0.0,0.0,0.0,0.0,0.0,0.0,0.0,0.0,0.0,0.0,0.0,0.0,0.0,0.0,0.0,0.0,0.0,0.0,0.0,0.0,0.0,0.0,0.0,0.0,0.0,0.0,0.0,0.0,0.0,0.0,0.0,0.0,0.0,0.0,0.0,0.0,0.0,0.0,0.0,-5.0697,-5.2021,-5.2729,-5.2729,-5.2729,-5.2729,-5.2698,-5.1559,0.0,0.0,0.0,0.0,0.0,0.0,0.0,0.0,0.0,0.0,0.0,0.0,0.0,0.0,0.0,0.0,0.0,0.0,0.0,0.0,0.0,0.0,0.0,0.0,0.0,0.0,0.0,-4.594,0.0,0.0,0.0,0.0,0.0,0.0,0.0,0.0,0.0,0.0,0.0,0.0,0.0,0.0,-5.5511,-5.5439,-5.6224,-5.6736,0.0,0.0,-5.5324,-5.4569,-5.5053,-5.5195,0.0,0.0,0.0,0.0,0.0,0.0,0.0,0.0,0.0,0.0,0.0,0.0,0.0,0.0,0.0,0.0,0.0,0.0,0.0,0.0,0.0,0.0,0.0,0.0,0.0,0.0,0.0,0.0,0.0,0.0,0.0,0.0,0.0,0.0,0.0,0.0,0.0,0.0,0.0,0.0,0.0,0.0,0.0,0.0,0.0,0.0,0.0,0.0,0.0,0.0,0.0,0.0,0.0,0.0,-5.0636,-5.0728,-5.2021,-5.2729,-5.2729,-5.2729,-5.2729,-5.2698,-5.199,-5.1344,0.0,0.0,0.0,0.0,0.0,0.0,0.0,0.0,0.0,0.0,0.0,0.0,0.0,0.0,0.0,0.0,0.0,0.0,0.0,0.0,0.0,0.0,0.0,0.0,0.0,0.0,0.0,0.0,0.0,0.0,0.0,0.0,0.0,0.0,0.0,0.0,0.0,0.0,0.0,0.0,0.0,-5.5382,-5.5572,-5.6288,-5.6529,0.0,-5.5667,-5.5292,-5.4375,-5.4892,-5.5034,-5.3918,0.0,0.0,0.0,0.0,0.0,0.0,0.0,0.0,0.0,0.0,0.0,0.0,0.0,0.0,0.0,0.0,0.0,0.0,0.0,0.0,0.0,0.0,0.0,0.0,0.0,0.0,0.0,0.0,0.0,0.0,0.0,0.0,0.0,0.0,0.0,0.0,0.0,0.0,0.0,0.0,0.0,0.0,0.0,0.0,0.0,0.0,0.0,0.0,0.0,0.0,0.0,0.0,0.0,-5.0697,-5.0697,-5.2021,-5.2729,-5.2729,-5.2729,-5.2729,-5.2729,-5.2052,-5.1374,0.0,0.0,0.0,0.0,0.0,0.0,0.0,0.0,0.0,0.0,0.0,0.0,0.0,0.0,0.0,0.0,0.0,0.0,0.0,0.0,0.0,0.0,0.0,0.0,0.0,0.0,0.0,0.0,-4.8388,-4.8553,-4.8067,0.0,0.0,0.0,0.0,0.0,0.0,0.0,0.0,0.0,0.0,-5.5618,-5.6091,-5.6532,0.0,0.0,-5.6158,-5.5817,-5.4899,-5.5379,-5.5585,-5.4701,-5.4873,0.0,0.0,0.0,0.0,0.0,0.0,0.0,0.0,0.0,0.0,0.0,0.0,0.0,0.0,0.0,0.0,0.0,0.0,0.0,0.0,0.0,0.0,0.0,0.0,0.0,0.0,0.0,0.0,0.0,0.0,0.0,0.0,0.0,0.0,0.0,0.0,0.0,0.0,0.0,0.0,0.0,0.0,0.0,0.0,0.0,0.0,0.0,0.0,0.0,0.0,0.0,0.0,-5.0697,-5.0697,-5.2021,-5.2729,-5.2729,-5.2914,-5.3006,-5.3006,-5.276,-5.2298,0.0,0.0,0.0,0.0,0.0,0.0,0.0,0.0,0.0,0.0,0.0,0.0,0.0,0.0,0.0,0.0,0.0,0.0,0.0,0.0,0.0,0.0,0.0,0.0,0.0,0.0,0.0,0.0,-4.892,-4.9075,-4.8836,0.0,0.0,0.0,0.0,0.0,0.0,0.0,0.0,0.0,0.0,-5.5517,-5.5757,-5.6098,-5.5962,-5.5178,-5.5417,-5.5485,-5.4737,-5.5485,-5.6031,-5.5656,0.0,0.0,0.0,0.0,0.0,0.0,0.0,0.0,0.0,0.0,0.0,0.0,0.0,0.0,0.0,0.0,0.0,0.0,0.0,0.0,0.0,0.0,0.0,0.0,0.0,0.0,0.0,-4.3329,0.0,0.0,-4.3714,0.0,0.0,0.0,0.0,0.0,0.0,0.0,0.0,0.0,0.0,0.0,0.0,0.0,0.0,0.0,0.0,0.0,0.0,0.0,0.0,0.0,0.0,-5.0697,-5.0728,-5.2082,-5.2729,-5.276,-5.333,-5.3714,-5.3714,-5.4252,-5.4283,-5.3607,0.0,0.0,0.0,0.0,0.0,0.0,0.0,0.0,0.0,0.0,0.0,0.0,0.0,0.0,0.0,0.0,0.0,0.0,0.0,0.0,0.0,0.0,0.0,0.0,0.0,0.0,-4.7136,-4.8119,-4.9213,0.0,0.0,0.0,0.0,0.0,0.0,0.0,0.0,0.0,-5.3809,-5.4688,-5.4821,-5.4324,-5.4688,-5.4367,-5.2214,-5.3116,-5.3975,-5.3797,-5.5034,-5.6163,0.0,0.0,0.0,0.0,0.0,0.0,0.0,0.0,0.0,0.0,0.0,0.0,0.0,0.0,0.0,0.0,0.0,0.0,0.0,0.0,0.0,0.0,0.0,0.0,0.0,0.0,0.0,-4.3947,-4.3988,0.0,0.0,0.0,0.0,0.0,0.0,0.0,0.0,0.0,0.0,0.0,-4.7958,-4.8666,0.0,0.0,0.0,0.0,0.0,0.0,0.0,0.0,0.0,0.0,0.0,0.0,-5.1128,-5.2021,-5.2914,-5.3591,-5.3976,-5.4222,-5.4345,-5.4345,-5.456,-5.4591,-5.4345,0.0,0.0,0.0,0.0,0.0,0.0,0.0,0.0,0.0,0.0,0.0,0.0,0.0,0.0,0.0,0.0,0.0,0.0,0.0,0.0,0.0,0.0,0.0,0.0,0.0,-4.9037,0.0,0.0,0.0,0.0,0.0,0.0,0.0,0.0,0.0,0.0,0.0,-5.1506,-5.2767,-5.2852,-5.2858,-5.3165,-5.4225,-5.4871,0.0,0.0,0.0,0.0,0.0,0.0,0.0,0.0,0.0,0.0,0.0,0.0,0.0,0.0,-5.6258,-5.5784,-5.5716,-5.5683,-5.5683,0.0,0.0,0.0,0.0,0.0,0.0,0.0,0.0,0.0,0.0,0.0,0.0,0.0,0.0,-4.4526,0.0,-4.4556,0.0,0.0,0.0,0.0,0.0,0.0,0.0,0.0,-4.844,-4.9127,-4.9374,-5.0051,-5.0389,0.0,-5.0605,-5.0236,0.0,0.0,0.0,0.0,0.0,0.0,0.0,0.0,-5.1836,-5.2698,-5.3622,-5.4252,-5.4683,-5.4898,-5.5068,-5.5068,-5.5315,-5.5438,-5.5438,-5.476,-5.4206,0.0,0.0,0.0,0.0,0.0,0.0,0.0,0.0,0.0,0.0,0.0,0.0,0.0,0.0,0.0,0.0,0.0,0.0,0.0,0.0,0.0,0.0,0.0,-4.9774,0.0,0.0,0.0,0.0,0.0,0.0,0.0,0.0,0.0,-5.0165,-5.0879,-5.1701,-5.2692,-5.2675,-5.2622,-5.2551,0.0,0.0,0.0,0.0,0.0,0.0,0.0,-5.7745,-5.7544,-5.8373,-5.9133,-5.937,-5.9201,-5.893,-5.866,0.0,0.0,-5.7306,-5.7171,-5.7205,-5.7171,-5.6799,-5.6461,-5.6461,-5.6461,-5.6461,0.0,0.0,0.0,0.0,0.0,0.0,0.0,0.0,-4.5334,-4.5005,0.0,-4.5125,0.0,0.0,0.0,0.0,-4.6773,-4.7829,0.0,0.0,-5.0641,-5.1344,-5.082,-5.1405,-5.1713,-5.1682,-5.1128,-5.082,-5.082,-5.082,0.0,0.0,0.0,0.0,0.0,0.0,-5.2729,-5.2883,-5.4114,-5.4714,-5.4775,-5.5407,-5.5715,-5.5745,-5.644,-5.6779,-5.6779,-5.6053,-5.5684,-5.5653,-5.4483,0.0,0.0,0.0,0.0,0.0,0.0,0.0,0.0,0.0,0.0,0.0,0.0,0.0,0.0,0.0,0.0,0.0,0.0,0.0,0.0,-4.9712,0.0,0.0,0.0,0.0,0.0,0.0,0.0,0.0,0.0,0.0,-5.1046,-5.1112,-5.1709,-5.3394,0.0,0.0,0.0,0.0,-5.3278,-5.1265,-5.2186,-5.3218,-5.3291,-5.575,-5.7939,-5.8674,0.0,0.0,-6.0216,-5.9505,-5.8829,-5.8118,-5.8592,-5.8829,-5.8118,-5.7949,-5.7915,-5.7949,-5.7848,-5.7848,-5.7848,-5.7746,-5.778,-4.4078,0.0,0.0,0.0,0.0,-4.4727,-4.5394,-4.6022,-4.6022,-4.613,-4.6471,-4.6651,0.0,0.0,0.0,0.0,0.0,0.0,-4.9237,-5.0058,-5.1177,-5.1836,-5.2144,-5.2329,-5.2421,-5.2452,-5.2729,-5.2852,-5.2883,-5.3345,-5.2606,-5.0728,0.0,0.0,0.0,0.0,-5.3406,-5.4791,-5.5222,-5.5653,-5.6176,-5.6361,-5.6502,-5.6502,-5.6717,-5.681,-5.681,-5.6625,-5.6207,-5.5715,-5.5345,0.0,0.0,0.0,0.0,0.0,0.0,0.0,0.0,0.0,0.0,0.0,0.0,0.0,0.0,0.0,0.0,0.0,0.0,0.0,-4.9724,-5.0684,-5.0746,0.0,0.0,0.0,0.0,0.0,0.0,0.0,0.0,0.0,-5.2213,-5.1514,-5.1309,0.0,0.0,-5.1664,-5.1223,-5.2784,-5.3922,-5.3864,-5.5091,0.0,-5.6841,-5.7191,-5.7732,-5.8613,-5.9711,-6.0351,-6.0148,-5.9911,-5.9708,-5.9471,-5.9641,-5.9708,-5.9505,-5.9032,-5.8727,-5.866,-5.8254,-5.7881,-5.7881,-5.7881,-5.7881,-4.5608,-4.5183,-4.4282,-4.4266,-4.4916,-4.5483,-4.6232,-4.71,-4.71,-4.7339,-4.7728,-4.7967,-4.7788,-4.7309,-4.7578,0.0,0.0,0.0,-5.034,-5.1366,-5.1854,-5.2329,-5.2729,-5.2975,-5.3098,-5.3084,-5.376,-5.3883,-5.3448,-5.4281,-5.3436,-5.1088,0.0,0.0,-5.2793,-5.2691,-5.3146,-5.4338,-5.4638,-5.5019,-5.5441,-5.5441,-5.567,-5.6096,-5.572,-5.567,-5.6066,-5.572,-5.5459,-5.5457,-5.5183,-5.4888,0.0,0.0,0.0,0.0,0.0,0.0,0.0,0.0,0.0,0.0,0.0,-5.1344,-5.0574,0.0,0.0,0.0,-5.0882,-5.0882,-5.0882,-5.1506,0.0,0.0,0.0,0.0,0.0,0.0,0.0,-5.1528,-5.2206,-5.2821,-5.3067,-5.2493,-5.2198,-5.2452,-5.239,-5.2206,-5.1929,0.0,-5.4728,-5.493,-5.5676,-5.6442,-5.6899,-5.7451,-5.8349,-5.9951,-6.0611,-6.0892,-6.0622,-6.0554,-6.0486,-6.0216,-6.0351,-6.0486,-6.0148,-5.9979,-5.981,-5.9505,-5.9099,-5.8795,-5.8761,-5.8761,-5.8761,-4.7429,-4.7252,-4.5198,-4.5181,-4.6429,-4.6531,-4.7249,-4.8356,-4.8356,-4.8386,-4.8506,-4.9075,-4.8686,-4.7668,-4.8237,0.0,-5.0668,-5.097,-5.1531,-5.2367,-5.2624,-5.2821,-5.2883,-5.3498,-5.376,-5.376,-5.4483,-5.4196,-5.3193,-5.4209,-5.3652,-5.1585,-5.2358,-5.287,-5.2841,-5.2507,-5.2346,-5.2404,-5.3036,-5.3355,-5.3413,-5.3413,-5.3883,-5.4938,-5.3935,-5.3883,-5.4887,-5.3987,-5.3935,-5.5009,-5.4521,-5.4654,-5.5606,0.0,0.0,0.0,0.0,0.0,0.0,0.0,0.0,0.0,0.0,0.0,0.0,0.0,0.0,0.0,-5.2729,0.0,-5.279,-5.2267,0.0,0.0,0.0,-5.2175,-5.2729,-5.2883,-5.2944,-5.2883,0.0,0.0,-5.3806,-5.3868,-5.3899,-5.396,-5.4391,-5.4468,-5.3853,-5.4822,-5.5468,-5.49,-5.4853,-5.4914,-5.5333,-5.7019,-5.9154,-6.1165,-6.2076,-6.1666,-6.1155,-6.1071,-6.084,-6.0333,-6.0815,-6.1197,-6.0419,-6.0926,-6.1163,-6.0452,-6.0148,-6.0047,-5.9979,-5.9979,-5.9945,-4.8356,-4.8775,-4.8268,-4.794,-4.7848,-4.8356,-4.879,-4.909,-4.9045,-4.9314,-4.9793,-4.9897,-5.0076,-5.0301,-5.0451,-5.0829,-5.1377,-5.1637,-5.2231,-5.307,-5.3331,-5.3699,-5.4237,-5.4375,-5.4437,-5.4498,-5.5161,-5.4914,-5.3892,-5.4619,-5.4092,-5.2326,-5.1627,-5.15,-5.1829,-5.1773,-5.1962,-5.2478,-5.2623,-5.2943,-5.3384,-5.3413,-5.3518,-5.3779,-5.3571,-5.3518,-5.3779,-5.3571,-5.3935,-5.5009,-5.494,-5.5107,-5.5667,-5.4914,0.0,0.0,0.0,0.0,0.0,0.0,0.0,0.0,0.0,-5.2821,-5.1775,0.0,-5.2329,0.0,-5.2883,-5.3468,-5.3468,-5.3775,0.0,0.0,-5.3498,-5.3822,-5.3529,-5.436,-5.4791,-5.4252,-5.4668,-5.5037,-5.5191,-5.5222,-5.5438,-5.593,-5.5284,-5.4621,-5.4498,-5.5161,-5.5653,-5.5561,-5.5899,-5.6269,-5.6381,-5.7402,-5.8505,-5.9068,-5.9383,-5.9549,-5.9867,-6.0126,-6.031,-6.0643,-6.1507,-6.193,-6.1873,-6.2009,-6.2076,-6.1806,-6.0926,-6.008,-6.008,-6.0114,-6.0114,-4.9,-4.9329,-4.9553,-4.9494,-4.9164,-4.9254,-4.9434,-4.9703,-4.9703,-5.0062,-5.0644,-5.0644,-5.0823,-5.1229,-5.1528,-5.1695,-5.1914,-5.245,-5.297,-5.3445,-5.382,-5.4174,-5.4543,-5.496,-5.5161,-5.5191,-5.5838,-5.5341,-5.3896,-5.4708,-5.3833,-5.1437,-5.1276,-5.0941,-5.0456,-5.0174,-5.0202,-5.0565,-5.0848,-5.1299,-5.1837,-5.1866,-5.1994,-5.219,-5.1739,-5.1598,-5.1843,-5.1814,-5.2076,-5.2748,-5.3663,-5.4288,-5.4557,-5.4373,-5.4114,0.0,0.0,0.0,0.0,0.0,0.0,0.0,0.0,0.0,0.0,0.0,-5.3468,-5.3098,-5.3991,-5.4483,-5.4206,-5.4468,-5.4545,-5.4083,-5.4699,-5.513,-5.5068,-5.5715,-5.6023,-5.5684,-5.593,-5.6176,-5.6224,-5.6146,-5.6347,-5.6748,-5.6115,-5.5653,-5.5653,-5.5961,-5.6176,-5.6176,-5.6563,-5.7002,-5.7353,-5.784,-5.8444,-5.9156,-5.935,-5.9804,-6.0892,-6.1235,-6.1567,-6.2415,-6.3276,-6.3734,-6.3463,-6.3666,-6.3768,-6.3362,-6.2719,-6.1941,-6.1264,-6.0858,-6.0622,-4.9479,-4.9553,-5.0122,-5.0315,-5.0285,-4.9853,-4.9942,-5.0315,-5.0315,-5.0674,-5.1349,-5.1439,-5.1468,-5.1498,-5.2067,-5.2336,-5.2366,-5.3254,-5.3652,-5.3791,-5.4209,-5.4477,-5.4599,-5.5293,-5.5616,-5.5647,-5.6164,-5.524,-5.3256,-5.4193,-5.304,-5.007,-5.0878,-5.0574,-4.9006,-4.8463,-4.8192,-4.8192,-4.8788,-4.9386,-4.9901,-4.982,-4.9995,-5.0397,-4.9529,-4.9228,-4.964,-4.9613,-4.969,-4.9953,-5.167,-5.2821,-5.3283,-5.3523,-5.376,0.0,-5.3345,0.0,0.0,0.0,0.0,0.0,0.0,0.0,0.0,-5.4683,-5.4714,-5.4853,-5.5376,-5.5499,-5.4991,-5.496,-5.5222,-5.5745,-5.5807,-5.6084,-5.6717,-5.681,-5.681,-5.681,-5.681,-5.681,-5.6779,-5.681,-5.681,-5.681,-5.6748,-5.6686,-5.6779,-5.6748,-5.6748,-5.681,-5.681,-5.7081,-5.7809,-5.809,-5.859,-5.9946,-6.0166,-6.0922,-6.2376,-6.2815,-6.3358,-6.4396,-6.52,-6.5527,-6.4986,-6.5392,-6.5561,-6.4986,-6.4816,-6.4309,-6.3024,-6.2245,-6.1738,-5.0361,-5.084,-5.099,-5.105,-5.105,-5.1468,-5.1409,-5.1003,-5.102,-5.1409,-5.2037,-5.2576,-5.2815,-5.2815,-5.2935,-5.2995,-5.3043,-5.3435,-5.3893,-5.4405,-5.4879,-5.5424,-5.5975,-5.5448,-5.518,-5.516,-5.4442,-5.3361,-5.2,-5.2216,-5.1287,-4.9304,-4.9499,-4.92,-4.8436,0.0,0.0,0.0,-4.8788,-4.9196,-4.9277,-4.8761,-4.8572,-4.8682,-4.8518,0.0,-4.8491,-4.8491,-4.8948,-4.9848,-5.0266,0.0,0.0,0.0,0.0,0.0,0.0,0.0,0.0,0.0,0.0,0.0,-5.4498,-5.456,-5.4683,-5.4683,-5.4945,-5.5468,-5.5622,-5.5869,-5.6378,-5.6392,-5.6471,-5.6594,-5.6594,-5.6656,-5.681,-5.681,-5.681,-5.681,-5.681,-5.681,-5.681,-5.681,-5.681,-5.681,-5.681,-5.681,-5.681,-5.681,-5.681,-5.681,-5.6871,-5.7105,-5.7793,-5.7903,-5.8266,-5.8954,-5.914,-5.9847,-6.1424,-6.2474,-6.3432,-6.4872,-6.5932,-6.6576,-6.6373,-6.6508,-6.6508,-6.6406,-6.6373,-6.5933,-6.4512,-6.4072,-6.3971,-5.0431,-5.1229,-5.1558,-5.1708,0.0,-5.2396,-5.2486,-5.2187,-5.2187,-5.2366,-5.2695,-5.3054,-5.3174,-5.3204,-5.3533,-5.3683,-5.3713,-5.4338,-5.4767,-5.5118,-5.5579,-5.6036,-5.6421,-5.6096,-5.564,-5.5089,-5.4501,-5.3384,-5.1729,-5.1674,-5.0961,-4.9549,-4.9576,-4.9413,-4.9114,-4.9059,-4.8923,-4.8625,-4.8923,-4.9277,-4.9521,-4.9277,-4.8923,-4.8625,-4.8625,0.0,0.0,0.0,0.0,0.0,0.0,0.0,0.0,-5.3049,0.0,-5.5066,-5.4868,-5.4837,-5.5191,-5.5191,-5.5345,-5.5715,-5.5745,-5.5592,-5.5222,-5.553,-5.5869,-5.6176,-5.6238,-5.6409,-5.6779,-5.681,-5.681,-5.681,-5.681,-5.681,-5.681,-5.681,-5.681,-5.681,-5.681,-5.681,-5.681,-5.681,-5.681,-5.681,-5.681,-5.684,-5.681,-5.681,-5.6902,-5.7241,-5.7303,-5.7549,-5.8165,-5.827,-5.8485,-5.9151,-5.9706,-6.0666,-6.2253,-6.3372,-6.4461,-6.5744,-6.6482,-6.6812,-6.6812,-6.6812,-6.6812,-6.6812,-6.6812,-6.6609,-6.5797,-6.5425,-6.5121,-5.0203,-5.0887,-5.1954,-5.227,-5.2107,-5.3036,-5.3414,-5.3533,0.0,0.0,0.0,-5.3473,-5.3533,-5.3563,-5.4132,-5.4371,-5.4431,-5.519,-5.5531,-5.5531,-5.6077,-5.6225,-5.6047,-5.6145,-5.562,-5.4552,-5.4267,-5.3227,-5.1484,-5.1429,-5.0962,-5.0066,-5.001,-5.001,-5.001,-5.001,-4.9766,-4.9304,-4.9196,-4.9359,-4.982,-4.9739,-4.9467,-4.8923,-4.8923,-4.8679,-4.8219,-4.9055,-4.9109,-4.8301,-4.9876,-5.0995,-5.1366,-5.2347,-5.344,-5.466,-5.4927,-5.5315,-5.5838,-5.5869,-5.6146,-5.6779,-5.681,-5.6563,-5.593,-5.6471,-5.681,-5.681,-5.681,-5.681,-5.681,-5.681,-5.681,-5.681,-5.681,-5.681,-5.681,-5.681,-5.681,-5.681,-5.681,-5.681,-5.681,-5.681,-5.681,-5.684,-5.6964,-5.7056,-5.7118,-5.7148,-5.7272,-5.7857,-5.8011,-5.8208,-5.8762,-5.8947,-5.9224,-5.989,-6.064,-6.1802,-6.34,-6.4492,-6.5426,-6.6525,-6.677,-6.6812,-6.6812,-6.6812,-6.6812,-6.6812,-6.6812,-6.6812,-6.6779,-6.6339,-6.5899,-4.9975,-4.9427,-5.1994,-5.2487,-5.1741,-5.3347,-5.4371,-5.485,-5.4311,-5.4072,-5.4102,-5.467,-5.491,-5.491,-5.4999,-5.5059,-5.5059,-5.52,-5.5229,-5.531,-5.583,-5.5551,-5.4611,-5.409,-5.3279,-5.2162,-5.121,-5.0544,-5.0264,-5.0264,-5.0123,-5.001,-5.001,-5.001,-5.001,-5.001,-4.9956,-4.9874,-4.9386,-4.9169,-4.9223,-4.8707,-4.8408,-4.8327,-4.8354,-4.8273,-4.8192,-4.8355,-4.8355,-4.8246,-4.8491,-4.933,-5.0819,-5.1972,-5.331,-5.496,-5.5938,-5.6563,-5.6656,-5.6656,-5.6717,-5.681,-5.681,-5.6748,-5.6686,-5.6748,-5.681,-5.681,-5.681,-5.681,-5.681,-5.681,-5.681,-5.681,-5.681,-5.681,-5.681,-5.681,-5.681,-5.681,-5.681,-5.684,-5.6871,-5.6871,-5.6902,-5.6933,-5.7395,-5.7888,-5.8208,-5.7993,-5.8011,-5.8454,-5.8639,-5.8947,-5.9501,-5.9655,-5.9901,-6.0547,-6.0784,-6.1634,-6.3449,-6.4077,-6.4856,-6.6482,-6.677,-6.6812,-6.6812,-6.6812,-6.6812,-6.6812,-6.6846,-6.688,-6.6914,-6.6779,-6.6677,-4.8962,-4.9535,-5.1144,-5.1918,-5.2129,-5.398,-5.491,-5.5149,-5.488,-5.473,-5.476,-5.5059,-5.5209,-5.5209,-5.5209,-5.5209,-5.5209,-5.533,-5.5431,-5.5431,-5.5979,-5.5651,-5.4582,-5.4377,-5.3384,-5.1729,-5.1155,-5.06,-5.0066,-5.001,-5.001,-5.001,-5.001,-5.001,-5.001,-5.001,-5.001,-5.001,-4.9739,-4.9603,-4.9603,-4.9331,-4.9196,-4.9196,-4.9196,-4.9196,-4.9196,-4.9196,-4.9223,-4.9196,-4.9223,-4.9858,-5.1199,-5.179,-5.2961,-5.4958,-5.562,-5.6145,-5.6761,-5.681,-5.681,-5.681,-5.681,-5.681,-5.681,-5.681,-5.681,-5.681,-5.681,-5.681,-5.681,-5.681,-5.681,-5.681,-5.681,-5.681,-5.681,-5.681,-5.681,-5.681,-5.681,-5.6964,-5.7303,-5.7364,-5.7518,-5.7826,-5.8177,-5.8577,-5.9224,-5.907,-5.8947,-5.9255,-5.9316,-5.9624,-6.0178,-6.0332,-6.0486,-6.0763,-6.1277,-6.2171,-6.3561,-6.417,-6.5159,-6.644,-6.6812,-6.6812,-6.6846,-6.6812,-6.6812,-6.6846,-6.7184,-6.7354,-6.7421,-6.7726,-6.776,-4.819,-4.9195,-5.0451,-5.1559,-5.2717,-5.42,-5.4947,-5.5179,-5.5179,-5.5209,-5.5209,-5.5209,-5.5209,-5.5209,-5.5209,-5.5209,-5.5259,-5.5431,-5.5381,-5.528,-5.5651,-5.517,-5.4038,-5.4142,-5.3227,-5.1484,-5.132,-5.0851,-5.0066,-5.001,-5.001,-5.001,-5.001,-5.001,-5.001,-5.001,-5.001,-5.001,-5.001,-5.001,-5.001,-5.001,-5.001,-5.001,-5.001,-5.001,-5.001,-5.001,-5.001,-5.001,-5.001,-5.0432,-5.1265,-5.1593,-5.2484,-5.4112,-5.4807,-5.562,-5.6664,-5.681,-5.681,-5.681,-5.681,-5.681,-5.681,-5.681,-5.681,-5.681,-5.681,-5.681,-5.681,-5.681,-5.681,-5.681,-5.6964,-5.7087,-5.7056,-5.7148,-5.7272,-5.7272,-5.7272,-5.7518,-5.7888,-5.8042,-5.8239,-5.8824,-5.9008,-5.9285,-5.9839,-6.0024,-6.0024,-6.0024,-6.0024,-6.0178,-6.0701,-6.0763,-6.0763,-6.0794,-6.1379,-6.2319,-6.3419,-6.4492,-6.5426,-6.6397,-6.6812,-6.6948,-6.7015,-6.7083,-6.7184,-6.7421,-6.7861,-6.8166,-6.8199,-6.8571,-6.8741,-4.8396,-4.7993,-5.0409,-5.2238,-5.3192,-5.3489,-5.4171,-5.5078,-5.5179,-5.5209,-5.5209,-5.5209,-5.5209,-5.5209,-5.5209,-5.5209,-5.5209,-5.5229,-5.4875,-5.4149,-5.4038,-5.3174,-5.1866,-5.1702,-5.1127,-5.0264,-5.0208,-5.0152,-5.001,-5.001,-5.001,-5.001,-5.001,-5.001,-5.001,-5.001,-5.001,-5.001,-5.001,-5.001,-5.001,-5.001,-5.001,-5.001,-5.001,-5.001,-5.001,-5.001,-5.001,-5.001,-5.001,-5.0066,-5.0264,-5.11,-5.1783,-5.2108,-5.3957,-5.562,-5.6664,-5.681,-5.681,-5.681,-5.684,-5.684,-5.684,-5.684,-5.684,-5.6871,-5.6871,-5.6871,-5.681,-5.6871,-5.6964,-5.7025,-5.7426,-5.7734,-5.7795,-5.8288,-5.8658,-5.8627,-5.8423,-5.8608,-5.867,-5.8731,-5.9008,-5.9593,-5.9686,-5.9901,-6.0455,-6.0578,-6.0609,-6.064,-6.0671,-6.0671,-6.0794,-6.0794,-6.0794,-6.0794,-6.0897,-6.1872,-6.3276,-6.4031,-6.4571,-6.6599,-6.6914,-6.7117,-6.7624,-6.7827,-6.8064,-6.8436,-6.8774,-6.8977,-6.9011,-6.918,-6.9113,-4.7977,-4.7974,-4.9137,-5.0266,-5.1428,-5.2804,-5.3675,-5.42,-5.4896,-5.5209,-5.5209,-5.5209,-5.5209,-5.5209,-5.5209,-5.5209,-5.5209,-5.5209,-5.5027,-5.459,-5.409,-5.3203,-5.211,-5.1512,-5.0878,-5.0066,-5.001,-5.001,-5.001,-5.001,-5.001,-5.001,-5.001,-5.001,-5.001,-5.001,-5.001,-5.001,-5.001,-5.001,-5.001,-5.001,-5.001,-5.001,-5.001,-5.001,-5.001,-5.001,-5.001,-5.001,-5.001,-5.001,-5.001,-5.0432,-5.1017,-5.1757,-5.3854,-5.529,-5.5769,-5.639,-5.681,-5.681,-5.7179,-5.7395,-5.7426,-5.7765,-5.8011,-5.7949,-5.7641,-5.7549,-5.7869,-5.798,-5.8011,-5.8042,-5.8208,-5.8362,-5.8442,-5.8608,-5.8793,-5.8793,-5.8793,-5.8978,-5.9347,-5.9716,-6.0055,-6.0363,-6.0363,-6.0517,-6.0763,-6.0794,-6.0794,-6.0794,-6.0794,-6.0794,-6.0794,-6.0794,-6.0794,-6.0897,-6.1328,-6.2319,-6.3356,-6.4401,-6.5336,-6.7064,-6.7413,-6.776,-6.8504,-6.8605,-6.8774,-6.9214,-6.962,-6.9857,-7.0331,-7.0398,-7.0398,-4.7806,-4.8146,-4.8172,-4.8842,-5.0014,-5.1701,-5.2804,-5.3413,-5.4045,-5.459,-5.5128,-5.4845,-5.4692,-5.4692,-5.4692,-5.4692,-5.4692,-5.4385,-5.4097,-5.3838,-5.3069,-5.2377,-5.1759,-5.1045,-5.0432,-5.0066,-5.001,-5.001,-5.001,-5.001,-5.001,-5.001,-5.001,-5.001,-5.001,-5.001,-5.001,-5.001,-5.001,-5.001,-5.001,-5.001,-5.001,-5.001,-5.001,-5.001,-5.001,-5.001,-5.001,-5.001,-5.001,-5.001,-5.001,-5.001,-5.0488,-5.1648,-5.3227,-5.4436,-5.487,-5.5992,-5.6708,-5.6892,-5.758,-5.8054,-5.8116,-5.8485,-5.8854,-5.9008,-5.8608,-5.8516,-5.8701,-5.8793,-5.8793,-5.8793,-5.8916,-5.9039,-5.907,-5.9193,-5.9378,-5.9316,-5.947,-5.9501,-5.9993,-6.0455,-6.0732,-6.0732,-6.0763,-6.0794,-6.0794,-6.0794,-6.0794,-6.0794,-6.0794,-6.0794,-6.0794,-6.0794,-6.0794,-6.0897,-6.143,-6.2116,-6.3421,-6.4463,-6.5766,-6.7046,-6.7709,-6.8504,-6.918,-6.9383,-6.9553,-6.9755,-7.0128,-7.0601,-7.1007,-7.1244,-7.1278,-4.8172,-4.8172,-4.8172,-4.8842,-4.9901,-5.007,-5.1319,-5.3097,-5.243,-5.3179,-5.4743,-5.4016,-5.3466,-5.3466,-5.3413,-5.3466,-5.3361,-5.2566,-5.1757,-5.0989,-5.0489,-5.0012,-4.9727,-4.9328,-4.9499,-4.9953,-5.001,-5.001,-5.001,-5.001,-5.001,-5.001,-5.001,-5.001,-5.001,-5.001,-5.001,-5.001,-5.001,-5.001,-5.001,-5.001,-5.001,-5.001,-5.001,-5.001,-5.001,-5.001,-5.001,-5.001,-5.001,-5.001,-5.001,-5.001,-5.0488,-5.1539,-5.1866,-5.2662,-5.4168,-5.5419,-5.6359,-5.6951,-5.7821,-5.8631,-5.843,-5.8684,-5.9041,-5.9635,-5.9635,-5.9439,-5.9008,-5.9039,-5.8978,-5.8978,-5.9408,-5.9716,-5.9747,-6.0209,-6.064,-6.0609,-6.0517,-6.0517,-6.0671,-6.0763,-6.0794,-6.0794,-6.0794,-6.0794,-6.0794,-6.0794,-6.0794,-6.0794,-6.0794,-6.0794,-6.0794,-6.0794,-6.0794,-6.098,-6.1247,-6.1699,-6.2933,-6.4271,-6.5763,-6.7181,-6.835,-6.9238,-6.9891,-7.0263,-7.0466,-7.0669,-7.0838,-7.1244,-7.1278,-7.1312,-7.1312,-4.8172,-4.8172,-4.8172,-4.8463,-4.8899,-4.9589,-5.0406,-5.1237,-5.2377,-5.2832,-5.2992,-5.3256,-5.2992,-5.2269,-5.1511,-5.1565,-5.2269,-5.2591,-5.2244,-5.1265,-5.0545,-5.0293,-5.0348,-4.9727,-4.964,-4.9953,-5.001,-5.001,-5.001,-5.001,-5.001,-5.001,-5.001,-5.001,-5.001,-5.001,-5.001,-5.001,-5.001,-5.001,-5.001,-5.001,-5.001,-5.001,-5.001,-5.001,-5.001,-5.001,-5.001,-5.001,-5.001,-5.001,-5.001,-5.001,-5.0179,-5.0628,-5.1655,-5.257,-5.329,-5.4695,-5.5576,-5.5864,-5.6627,-5.7209,-5.7351,-5.8211,-5.9025,-5.9365,-6.0031,-6.027,-6.0178,-6.0086,-6.0055,-6.0116,-6.027,-6.0393,-6.0455,-6.0671,-6.0794,-6.0794,-6.0794,-6.0794,-6.0794,-6.0794,-6.0794,-6.0794,-6.0794,-6.0794,-6.0794,-6.0794,-6.0794,-6.0794,-6.0794,-6.0794,-6.0794,-6.0794,-6.0876,-6.1175,-6.1608,-6.2801,-6.4075,-6.5464,-6.6977,-6.8423,-6.949,-6.9982,-7.0567,-7.077,-7.1041,-7.1075,-7.1312,-7.1312,-7.1312,-7.1312,-7.1312,-4.8172,-4.8172,-4.8172,-4.8172,-4.8289,-4.8988,-4.9589,-4.9958,-5.1182,-5.1674,-5.1783,-5.2162,-5.1837,-5.1182,-5.0685,-5.0434,-5.0629,-5.1347,-5.1347,-5.0712,-5.0125,-5.0039,-5.0348,-4.984,-4.9727,-4.9953,-5.001,-5.001,-5.001,-5.001,-5.001,-5.001,-5.001,-5.001,-5.001,-5.001,-5.001,-5.001,-5.001,-5.001,-5.001,-5.001,-5.001,-5.001,-5.001,-5.001,-5.001,-5.001,-5.001,-5.001,-5.001,-5.001,-5.001,-5.001,-5.0091,-5.0422,-5.1372,-5.2266,-5.274,-5.4119,-5.5045,-5.5302,-5.6066,-5.6493,-5.6633,-5.7676,-5.8461,-5.9063,-5.9683,-6.0294,-6.0742,-6.0763,-6.0794,-6.0794,-6.0794,-6.0794,-6.0794,-6.0794,-6.0794,-6.0794,-6.0794,-6.0794,-6.0794,-6.0794,-6.0794,-6.0794,-6.0794,-6.0794,-6.0794,-6.0794,-6.0794,-6.0794,-6.0794,-6.0794,-6.0886,-6.1009,-6.1225,-6.1504,-6.1763,-6.3243,-6.4995,-6.6528,-6.7996,-6.9489,-7.0378,-7.0749,-7.1075,-7.1244,-7.1312,-7.1312,-7.1312,-7.1312,-7.1312,-7.1312,-7.1312,-4.8172,-4.8172,-4.8172,-4.8172,-4.823,-4.8289,-4.8899,-4.9532,-4.893,-4.9816,-5.1017,-5.0518,-5.0126,-5.007,-5.0712,-5.0322,-4.8784,-4.8726,-4.8868,-4.8895,-4.8895,-4.9183,-4.9613,-4.967,-4.9783,-5.001,-5.001,-5.001,-5.001,-5.001,-5.001,-5.001,-5.001,-5.001,-5.001,-5.001,-5.0037,-5.0091,-5.0091,-5.0091,-5.0037,-5.0146,-5.02,-5.0146,-5.0146,-5.0173,-5.0118,-5.0037,-5.001,-5.001,-5.001,-5.001,-5.001,-5.0064,-5.0308,-5.0743,-5.0963,-5.1588,-5.2629,-5.3821,-5.4737,-5.5132,-5.628,-5.6706,-5.6593,-5.6989,-5.7579,-5.8381,-5.9009,-5.9492,-6.0451,-6.0742,-6.0794,-6.0794,-6.0794,-6.0794,-6.0794,-6.0794,-6.0794,-6.0794,-6.0794,-6.0794,-6.0794,-6.0794,-6.0794,-6.0794,-6.0794,-6.0794,-6.0794,-6.0794,-6.0794,-6.0794,-6.0794,-6.0824,-6.1071,-6.1317,-6.1625,-6.1871,-6.2161,-6.3007,-6.5167,-6.689,-6.828,-6.9736,-7.0715,-7.1098,-7.1142,-7.1312,-7.1312,-7.1312,-7.1312,-7.1312,-7.1312,-7.1312,-7.1312,-4.8172,-4.8172,-4.8172,-4.8172,-4.8172,-4.8172,-4.8463,-4.8784,-4.9103,-4.9388,-4.9388,-4.9702,-4.9475,-4.893,-4.916,-4.8899,-4.823,-4.8172,-4.8257,-4.8431,-4.8779,-4.9068,-4.9354,-4.967,-4.9897,-5.001,-5.001,-5.001,-5.001,-5.001,-5.001,-5.001,-5.001,-5.001,-5.0037,-5.001,-5.0173,-5.058,-5.0634,-5.0824,-5.1204,-5.12,-5.1231,-5.1258,-5.1258,-5.1258,-5.1231,-5.0471,-5.0037,-5.0037,-5.001,-5.001,-5.0091,-5.039,-5.0715,-5.096,-5.1719,-5.2235,-5.2669,-5.3435,-5.3979,-5.4171,-5.4556,-5.4675,-5.4852,-5.5528,-5.6136,-5.6736,-5.7912,-5.9225,-5.9546,-6.0346,-6.0742,-6.0794,-6.0794,-6.0794,-6.0794,-6.0794,-6.0794,-6.0794,-6.0794,-6.0794,-6.0794,-6.0794,-6.0794,-6.0794,-6.0794,-6.0794,-6.0794,-6.0794,-6.0794,-6.0794,-6.0824,-6.1009,-6.1379,-6.184,-6.2271,-6.261,-6.2794,-6.3713,-6.5702,-6.7125,-6.8535,-6.9896,-7.0803,-7.1267,-7.1267,-7.1312,-7.1312,-7.1312,-7.1312,-7.1312,-7.1312,-7.1312,-7.1312,-4.8172,-4.8172,-4.8172,-4.8172,-4.8172,-4.8172,-4.8172,-4.8289,-4.893,-4.8842,-4.8463,-4.893,-4.8873,-4.8289,-4.8172,-4.8172,-4.8172,-4.8172,-4.8257,-4.8431,-4.8837,-4.9183,-4.9442,-4.9783,-5.001,-5.001,-5.001,-5.001,-5.001,-5.001,-5.001,-5.001,-5.001,-5.0146,-5.0308,-5.0363,-5.0634,-5.115,-5.1231,-5.1448,-5.1747,-5.1769,-5.1769,-5.1769,-5.1769,-5.1769,-5.1715,-5.1068,-5.0688,-5.0688,-5.0688,-5.0688,-5.0715,-5.1041,-5.1339,-5.1692,-5.2235,-5.2778,-5.3049,-5.3375,-5.3592,-5.3592,-5.3592,-5.3592,-5.3713,-5.4378,-5.4852,-5.5616,-5.6708,-5.8022,-5.8925,-5.9599,-6.0294,-6.0794,-6.0794,-6.0794,-6.0794,-6.0794,-6.0794,-6.0794,-6.0794,-6.0794,-6.0794,-6.0794,-6.0794,-6.0794,-6.0794,-6.0794,-6.0794,-6.0794,-6.0794,-6.0886,-6.1132,-6.1379,-6.1748,-6.2302,-6.2918,-6.3287,-6.3595,-6.4999,-6.6754,-6.7465,-6.8552,-7.0136,-7.1267,-7.1267,-7.1312,-7.1312,-7.1312,-7.1312,-7.1312,-7.1312,-7.1312,-7.1312,-7.1312,-4.8172,-4.8172,-4.8172,-4.8172,-4.8172,-4.8172,-4.8172,-4.8172,-4.823,-4.8315,-4.823,-4.8289,-4.8289,-4.8172,-4.8172,-4.8172,-4.8172,-4.8172,-4.8405,-4.8663,-4.8952,-4.9297,-4.984,-4.9953,-5.001,-5.001,-5.001,-5.001,-5.001,-5.0118,-5.0064,-5.0146,-5.0254,-5.0417,-5.0851,-5.096,-5.1258,-5.1801,-5.1882,-5.1909,-5.1959,-5.1959,-5.1959,-5.1986,-5.2013,-5.2013,-5.2013,-5.1991,-5.1796,-5.1828,-5.1607,-5.158,-5.1715,-5.1855,-5.2126,-5.2533,-5.2723,-5.3076,-5.3456,-5.3565,-5.3592,-5.3592,-5.3592,-5.3592,-5.3652,-5.3773,-5.4166,-5.5001,-5.5674,-5.6679,-5.8381,-5.9278,-5.9789,-6.0555,-6.0794,-6.0794,-6.0794,-6.0794,-6.0794,-6.0794,-6.0794,-6.0794,-6.0794,-6.0794,-6.0794,-6.0794,-6.0794,-6.0794,-6.0794,-6.0794,-6.0824,-6.1071,-6.1409,-6.1933,-6.2333,-6.2825,-6.3441,-6.4011,-6.4476,-6.587,-6.7498,-6.8241,-6.8993,-7.0469,-7.1312,-7.1312,-7.1312,-7.1312,-7.1312,-7.1312,-7.1312,-7.1312,-7.1312,-7.1312,-7.1356,-4.8172,-4.8172,-4.8172,-4.8172,-4.8172,-4.8172,-4.8172,-4.8172,-4.8172,-4.8172,-4.8172,-4.8172,-4.8172,-4.8172,-4.8172,-4.8172,-4.8172,-4.8172,-4.8463,-4.8895,-4.8837,-4.9297,-4.984,-5.001,-5.001,-5.001,-5.001,-5.001,-5.0037,-5.0444,-5.0634,-5.0688,-5.1068,-5.1367,-5.1584,-5.1584,-5.1909,-5.2398,-5.2479,-5.2696,-5.3022,-5.3076,-5.313,-5.313,-5.3103,-5.3103,-5.313,-5.313,-5.2669,-5.1824,-5.1769,-5.1769,-5.1878,-5.2262,-5.2588,-5.275,-5.313,-5.3402,-5.3537,-5.3592,-5.3592,-5.3592,-5.3592,-5.3592,-5.3592,-5.3592,-5.3773,-5.4378,-5.5528,-5.6905,-5.7801,-5.9278,-6.0346,-6.069,-6.0794,-6.0794,-6.0794,-6.0794,-6.0794,-6.0794,-6.0794,-6.0794,-6.0794,-6.0794,-6.0794,-6.0794,-6.0794,-6.0794,-6.0794,-6.0917,-6.1009,-6.1409,-6.184,-6.2456,-6.2979,-6.3472,-6.4019,-6.4621,-6.5428,-6.65,-6.8124,-6.9394,-7.0203,-7.1267,-7.1267,-7.1312,-7.1312,-7.1312,-7.1312,-7.1312,-7.1312,-7.1312,-7.1312,-7.1312,-7.1412,-4.8172,-4.8172,-4.8172,-4.8172,-4.8172,-4.8172,-4.8172,-4.8172,-4.8172,-4.8172,-4.8172,-4.8172,-4.8172,-4.8172,-4.8172,-4.8172,-4.8172,-4.8172,-4.8489,-4.8837,-4.8895,-4.924,-4.9727,-4.9897,-5.001,-5.001,-5.001,-5.0146,-5.039,-5.0743,-5.1014,-5.1285,-5.1638,-5.1936,-5.2208,-5.2208,-5.2506,-5.2968,-5.3103,-5.3293,-5.3565,-5.3592,-5.3592,-5.3592,-5.3592,-5.3592,-5.3592,-5.3592,-5.3239,-5.2723,-5.2588,-5.2561,-5.2588,-5.2859,-5.3076,-5.3103,-5.3429,-5.3592,-5.3592,-5.3592,-5.3592,-5.3592,-5.3592,-5.3592,-5.3592,-5.3592,-5.3592,-5.3833,-5.5412,-5.6537,-5.7467,-5.9386,-6.0607,-6.0794,-6.0794,-6.0794,-6.0794,-6.0794,-6.0794,-6.0794,-6.0794,-6.0794,-6.0794,-6.0794,-6.0794,-6.0794,-6.0794,-6.0794,-6.0794,-6.104,-6.1348,-6.1809,-6.2394,-6.3071,-6.3533,-6.3964,-6.4537,-6.5142,-6.6248,-6.7343,-6.8749,-7.0203,-7.0745,-7.1267,-7.1267,-7.1312,-7.1312,-7.1312,-7.1312,-7.1312,-7.1312,-7.1312,-7.1312,-7.1367,-7.1501,-4.8172,-4.8172,-4.8172,-4.8172,-4.8172,-4.8172,-4.8172,-4.8172,-4.8172,-4.8172,-4.8172,-4.8172,-4.8172,-4.8172,-4.8172,-4.8172,-4.8172,-4.8172,-4.8347,-4.8663,-4.8952,-4.9354,-4.9526,-4.9783,-5.0035,-5.0173,-5.0118,-5.0498,-5.0932,-5.1095,-5.1421,-5.1855,-5.2018,-5.2316,-5.2723,-5.2805,-5.3103,-5.3429,-5.3483,-5.351,-5.3592,-5.3592,-5.3592,-5.3592,-5.3592,-5.3592,-5.3592,-5.3592,-5.3537,-5.3565,-5.3592,-5.3483,-5.351,-5.3565,-5.3565,-5.3537,-5.3565,-5.3592,-5.3592,-5.3592,-5.3592,-5.3592,-5.3592,-5.3592,-5.3592,-5.3592,-5.3713,-5.3987,-5.4884,-5.648,-5.7941,-5.9736,-6.0555,-6.0794,-6.0794,-6.0794,-6.0794,-6.0794,-6.0794,-6.0794,-6.0794,-6.0794,-6.0794,-6.0794,-6.0794,-6.0794,-6.0824,-6.0917,-6.1071,-6.1379,-6.1809,-6.2333,-6.2979,-6.3749,-6.4118,-6.4457,-6.5018,-6.57,-6.693,-6.8154,-6.9508,-7.0608,-7.1007,-7.1312,-7.1312,-7.1312,-7.1312,-7.1312,-7.1312,-7.1312,-7.1312,-7.1312,-7.1356,-7.1457,-7.1556,-4.8172,-4.8172,-4.8172,-4.8172,-4.8172,-4.8172,-4.8172,-4.8172,-4.8172,-4.8172,-4.8172,-4.8172,-4.8172,-4.8172,-4.8172,-4.8172,-4.8172,-4.8172,-4.823,-4.8373,-4.9156,-4.9297,-4.9354,-4.961,-5.0054,-5.0495,-5.0688,-5.1041,-5.1557,-5.2018,-5.2371,-5.2533,-5.2886,-5.3266,-5.3347,-5.332,-5.3429,-5.3592,-5.3592,-5.3592,-5.3592,-5.3592,-5.3592,-5.3592,-5.3592,-5.3592,-5.3592,-5.3592,-5.3592,-5.3592,-5.3592,-5.3592,-5.3592,-5.3592,-5.3592,-5.3592,-5.3592,-5.3592,-5.3592,-5.3592,-5.3592,-5.3592,-5.3592,-5.3592,-5.3592,-5.3592,-5.4047,-5.4884,-5.6136,-5.7552,-5.9492,-6.0399,-6.0742,-6.0794,-6.0794,-6.0794,-6.0794,-6.0794,-6.0794,-6.0794,-6.0794,-6.0794,-6.0794,-6.0845,-6.0794,-6.0794,-6.0917,-6.1071,-6.1379,-6.1748,-6.2333,-6.2918,-6.3472,-6.4149,-6.4426,-6.4837,-6.5521,-6.6205,-6.7446,-6.8798,-7.0156,-7.087,-7.1176,-7.1312,-7.1312,-7.1312,-7.1312,-7.1312,-7.1312,-7.1312,-7.1356,-7.1446,-7.1501,-7.16,-7.1732,-4.8172,-4.8172,-4.8172,-4.8172,-4.8172,-4.8172,-4.8172,-4.8172,-4.8172,-4.8172,-4.8172,-4.8172,-4.8172,-4.8172,-4.8172,-4.8172,-4.8172,-4.8172,-4.8172,-4.8347,-4.8868,-4.9125,-4.932,-4.9764,-5.0374,-5.0848,-5.0878,-5.1367,-5.2126,-5.2561,-5.2805,-5.313,-5.3456,-5.351,-5.3592,-5.3592,-5.3592,-5.3592,-5.3592,-5.3592,-5.3592,-5.3592,-5.3592,-5.3592,-5.3592,-5.3592,-5.3592,-5.3592,-5.3592,-5.3592,-5.3592,-5.3592,-5.3592,-5.3592,-5.3592,-5.3592,-5.3592,-5.3592,-5.3592,-5.3592,-5.3592,-5.3592,-5.3592,-5.3592,-5.3592,-5.3592,-5.3833,-5.4793,-5.6194,-5.8132,-6.0451,-6.0794,-6.0794,-6.0794,-6.0794,-6.0794,-6.0794,-6.0794,-6.0794,-6.0794,-6.0794,-6.0794,-6.0794,-6.0897,-6.1062,-6.1062,-6.1525,-6.1711,-6.2029,-6.2377,-6.2979,-6.3564,-6.4057,-6.4487,-6.4734,-6.5211,-6.5929,-6.6753,-6.777,-6.9187,-7.0654,-7.1007,-7.1267,-7.1312,-7.1312,-7.1312,-7.1312,-7.1312,-7.1356,-7.1412,-7.1501,-7.159,-7.1722,-7.1864,-7.1994,-4.8172,-4.8172,-4.8172,-4.8172,-4.8172,-4.8172,-4.8172,-4.8172,-4.8172,-4.8172,-4.8172,-4.8172,-4.8172,-4.8172,-4.8172,-4.8172,-4.8172,-4.8172,-4.8172,-4.823,-4.8663,-4.8952,-4.9289,-5.0036,-5.0729,-5.1014,-5.1258,-5.1909,-5.2615,-5.2886,-5.3158,-5.351,-5.3592,-5.3592,-5.3592,-5.3592,-5.3592,-5.3592,-5.3592,-5.3592,-5.3592,-5.3592,-5.3592,-5.3592,-5.3592,-5.3592,-5.3592,-5.3592,-5.3592,-5.3592,-5.3592,-5.3592,-5.3592,-5.3592,-5.3592,-5.3592,-5.3592,-5.3592,-5.3592,-5.3592,-5.3592,-5.3592,-5.3592,-5.3592,-5.3592,-5.3652,-5.3866,-5.4793,-5.6194,-5.8381,-6.0241,-6.0742,-6.0742,-6.0794,-6.0794,-6.0794,-6.0794,-6.0794,-6.0794,-6.0794,-6.0794,-6.0794,-6.0897,-6.1,-6.1216,-6.1474,-6.2001,-6.2445,-6.2765,-6.3092,-6.3664,-6.4026,-6.4457,-6.4611,-6.4826,-6.4998,-6.5754,-6.6806,-6.7871,-6.9187,-7.0608,-7.1052,-7.1222,-7.1267,-7.1312,-7.1312,-7.1356,-7.1367,-7.1457,-7.1556,-7.1688,-7.181,-7.1985,-7.2159,-7.2288,-4.8172,-4.8172,-4.8172,-4.8172,-4.8172,-4.8172,-4.8172,-4.8172,-4.8172,-4.8172,-4.8172,-4.8172,-4.8172,-4.8172,-4.8172,-4.8172,-4.8172,-4.8172,-4.8172,-4.8289,-4.8721,-4.9068,-4.9289,-5.034,-5.1061,-5.1661,-5.2099,-5.275,-5.3239,-5.3483,-5.3456,-5.3565,-5.3592,-5.3592,-5.3592,-5.3592,-5.3592,-5.3592,-5.3592,-5.3592,-5.3592,-5.3592,-5.3592,-5.3592,-5.3592,-5.3592,-5.3592,-5.3592,-5.3592,-5.3592,-5.3592,-5.3592,-5.3592,-5.3592,-5.3592,-5.3592,-5.3592,-5.3592,-5.3592,-5.3592,-5.3592,-5.3592,-5.3592,-5.3592,-5.3592,-5.3652,-5.3987,-5.5295,-5.6934,-5.8817,-5.9225,-6.0241,-6.0742,-6.0794,-6.0794,-6.0794,-6.0794,-6.0794,-6.0794,-6.0794,-6.0794,-6.0845,-6.098,-6.1258,-6.1681,-6.2146,-6.2727,-6.3297,-6.3751,-6.4017,-6.4321,-6.459,-6.4795,-6.4857,-6.4888,-6.4943,-6.5406,-6.6491,-6.7599,-6.8667,-6.9935,-7.0791,-7.1143,-7.1401,-7.1401,-7.1312,-7.1356,-7.1457,-7.159,-7.1732,-7.1864,-7.1985,-7.2202,-7.2373,-7.2459,-4.8172,-4.8172,-4.8172,-4.8172,-4.8172,-4.8172,-4.8172,-4.8172,-4.8172,-4.8172,-4.8172,-4.8172,-4.8172,-4.8172,-4.8172,-4.8172,-4.8172,-4.8172,-4.8172,-4.8347,-4.8779,-4.9125,-4.9316,-5.0644,-5.1417,-5.2018,-5.2696,-5.3266,-5.3565,-5.3592,-5.3592,-5.3592,-5.3592,-5.3592,-5.3592,-5.3592,-5.3592,-5.3592,-5.3592,-5.3592,-5.3592,-5.3592,-5.3592,-5.3592,-5.3592,-5.3592,-5.3592,-5.3592,-5.3592,-5.3592,-5.3592,-5.3592,-5.3592,-5.3592,-5.3592,-5.3592,-5.3592,-5.3592,-5.3592,-5.3592,-5.3592,-5.3592,-5.3592,-5.3592,-5.3592,-5.3713,-5.4199,-5.547,-5.6792,-5.8326,-5.8979,-6.0053,-6.069,-6.0794,-6.0794,-6.0794,-6.0794,-6.0794,-6.0794,-6.0794,-6.0907,-6.0959,-6.1041,-6.1464,-6.2146,-6.2768,-6.3454,-6.4006,-6.4617,-6.4853,-6.4971,-6.4909,-6.5053,-6.4998,-6.4943,-6.4998,-6.5187,-6.6258,-6.7414,-6.8519,-6.9666,-7.0712,-7.1367,-7.1678,-7.159,-7.1401,-7.1457,-7.1556,-7.1732,-7.1907,-7.2038,-7.2245,-7.2416,-7.2544,-7.2586,-4.8172,-4.8172,-4.8172,-4.8172,-4.8172,-4.8172,-4.8172,-4.8172,-4.8172,-4.8172,-4.8172,-4.8172,-4.8172,-4.8172,-4.8172,-4.8172,-4.8172,-4.8172,-4.8172,-4.8289,-4.8837,-4.9125,-4.9618,-5.0717,-5.1769,-5.1964,-5.2968,-5.3592,-5.3592,-5.3592,-5.3592,-5.3592,-5.3592,-5.3592,-5.3592,-5.3592,-5.3592,-5.3592,-5.3592,-5.3592,-5.3592,-5.3592,-5.3592,-5.3592,-5.3592,-5.3592,-5.3592,-5.3592,-5.3592,-5.3592,-5.3592,-5.3592,-5.3592,-5.3592,-5.3592,-5.3592,-5.3592,-5.3592,-5.3592,-5.3592,-5.3592,-5.3592,-5.3592,-5.3592,-5.3713,-5.3926,-5.4437,-5.5412,-5.6934,-5.8022,-5.8979,-6.0106,-6.069,-6.0794,-6.0794,-6.0794,-6.0794,-6.0794,-6.0794,-6.0824,-6.0938,-6.1278,-6.1619,-6.1774,-6.2436,-6.361,-6.4246,-6.4548,-6.5152,-6.5464,-6.5607,-6.5313,-6.5242,-6.5132,-6.5053,-6.4998,-6.5297,-6.5991,-6.7311,-6.8585,-6.9727,-7.086,-7.1389,-7.1854,-7.1634,-7.1457,-7.1556,-7.1732,-7.1907,-7.2124,-7.2253,-7.2416,-7.2544,-7.2628,-7.2628,-4.8172,-4.8172,-4.8172,-4.8172,-4.8172,-4.8172,-4.8172,-4.8172,-4.8172,-4.8172,-4.8172,-4.8172,-4.8172,-4.8172,-4.8172,-4.8172,-4.8172,-4.8172,-4.823,-4.8373,-4.8837,-4.9152,-4.9454,-5.0968,-5.1769,-5.2099,-5.3076,-5.351,-5.3592,-5.3592,-5.3592,-5.3592,-5.3592,-5.3592,-5.3592,-5.3592,-5.3592,-5.3592,-5.3592,-5.3592,-5.3592,-5.3592,-5.3592,-5.3592,-5.3592,-5.3592,-5.3592,-5.3592,-5.3592,-5.3592,-5.3592,-5.3592,-5.3592,-5.3592,-5.3592,-5.3592,-5.3592,-5.3592,-5.3592,-5.3592,-5.3592,-5.3592,-5.3592,-5.3592,-5.3773,-5.4497,-5.5119,-5.5412,-5.7384,-5.86,-5.9087,-6.0106,-6.0607,-6.0794,-6.0794,-6.0794,-6.0794,-6.0794,-6.0794,-6.1257,-6.1464,-6.2115,-6.2602,-6.2623,-6.2788,-6.3996,-6.5009,-6.5311,-6.5486,-6.5768,-6.5893,-6.5623,-6.5297,-6.5163,-6.5163,-6.5053,-6.5218,-6.5754,-6.7208,-6.8552,-6.9457,-7.0507,-7.16,-7.1898,-7.1678,-7.1678,-7.1854,-7.2029,-7.2202,-7.2331,-7.2459,-7.2586,-7.2671,-7.2671,-7.2671,-4.8172,-4.8172,-4.8172,-4.8172,-4.8172,-4.8172,-4.8172,-4.8172,-4.8172,-4.8172,-4.8172,-4.8172,-4.8172,-4.8172,-4.8172,-4.8172,-4.8172,-4.8172,-4.8289,-4.8489,-4.8921,-4.9343,-5.0113,-5.1161,-5.1878,-5.2479,-5.3103,-5.3565,-5.3592,-5.3592,-5.3592,-5.3592,-5.3592,-5.3592,-5.3592,-5.3592,-5.3592,-5.3592,-5.3592,-5.3592,-5.3592,-5.3592,-5.3592,-5.3592,-5.3592,-5.3592,-5.3592,-5.3592,-5.3592,-5.3592,-5.3592,-5.3592,-5.3592,-5.3592,-5.3592,-5.3592,-5.3592,-5.3592,-5.3592,-5.3592,-5.3592,-5.3592,-5.3592,-5.3592,-5.3833,-5.4675,-5.5442,-5.5383,-5.7579,-5.8817,-5.9278,-6.0106,-6.0555,-6.0794,-6.0794,-6.0794,-6.0794,-6.0824,-6.0969,-6.1464,-6.2105,-6.283,-6.3527,-6.3923,-6.3974,-6.457,-6.546,-6.5837,-6.5759,-6.5615,-6.5731,-6.57,-6.5406,-6.5108,-6.5108,-6.5108,-6.4998,-6.5646,-6.726,-6.8405,-6.9024,-7.001,-7.1344,-7.2072,-7.2029,-7.2029,-7.2159,-7.2202,-7.2245,-7.2416,-7.2628,-7.2671,-7.2671,-7.2671,-7.2671,-4.8172,-4.8172,-4.8172,-4.8172,-4.8172,-4.8172,-4.8172,-4.8172,-4.8172,-4.8172,-4.8172,-4.8172,-4.8172,-4.8172,-4.8172,-4.8172,-4.8172,-4.8172,-4.8431,-4.8663,-4.909,-4.9645,-5.0443,-5.1382,-5.2126,-5.275,-5.3266,-5.3565,-5.3592,-5.3592,-5.3592,-5.3592,-5.3592,-5.3592,-5.3592,-5.3592,-5.3592,-5.3592,-5.3592,-5.3592,-5.3592,-5.3592,-5.3592,-5.3592,-5.3592,-5.3592,-5.3592,-5.3592,-5.3592,-5.3592,-5.3592,-5.3592,-5.3592,-5.3592,-5.3592,-5.3592,-5.3592,-5.3592,-5.3592,-5.3592,-5.3592,-5.3592,-5.3652,-5.3773,-5.4318,-5.5119,-5.6136,-5.6508,-5.8326,-5.9332,-5.9629,-6.0346,-6.0638,-6.0794,-6.0794,-6.0794,-6.0855,-6.1009,-6.1308,-6.1782,-6.2569,-6.363,-6.4361,-6.5125,-6.5397,-6.5439,-6.5859,-6.6343,-6.6139,-6.5762,-6.5817,-6.5839,-6.546,-6.5242,-6.5297,-6.5242,-6.5108,-6.5538,-6.7208,-6.8289,-6.8927,-7.0183,-7.1688,-7.2115,-7.2202,-7.2288,-7.2331,-7.2288,-7.2245,-7.2501,-7.2671,-7.2671,-7.2671,-7.2671,-7.2671,-4.8172,-4.8172,-4.8172,-4.8172,-4.8172,-4.8172,-4.8172,-4.8172,-4.8172,-4.8172,-4.8172,-4.8172,-4.8172,-4.8172,-4.8172,-4.8172,-4.8172,-4.8172,-4.8431,-4.8721,-4.9063,-4.9752,-5.0663,-5.149,-5.2208,-5.2778,-5.3347,-5.3565,-5.3592,-5.3592,-5.3592,-5.3592,-5.3592,-5.3592,-5.3592,-5.3592,-5.3592,-5.3592,-5.3592,-5.3592,-5.3592,-5.3592,-5.3592,-5.3592,-5.3592,-5.3592,-5.3592,-5.3592,-5.3592,-5.3592,-5.3592,-5.3592,-5.3592,-5.3592,-5.3592,-5.3592,-5.3592,-5.3592,-5.3592,-5.3592,-5.3592,-5.3592,-5.3773,-5.4226,-5.4884,-5.6308,-5.7411,-5.8326,-5.9492,-6.0294,-6.0503,-6.0742,-6.0794,-6.0794,-6.0824,-6.0917,-6.1101,-6.144,-6.1739,-6.2183,-6.3034,-6.415,-6.4998,-6.5702,-6.5964,-6.5975,-6.59,-6.6299,-6.6352,-6.6085,-6.6032,-6.5978,-6.5569,-6.5406,-6.5538,-6.546,-6.5163,-6.583,-6.7208,-6.8089,-6.8814,-7.0276,-7.1985,-7.2072,-7.2081,-7.2331,-7.2501,-7.2459,-7.2501,-7.2586,-7.2671,-7.2671,-7.2671,-7.2671,-7.2671,-4.8172,-4.8172,-4.8172,-4.8172,-4.8172,-4.8172,-4.8172,-4.8172,-4.8172,-4.8172,-4.8172,-4.8172,-4.8172,-4.8172,-4.8172,-4.8172,-4.8172,-4.8172,-4.8548,-4.8996,-4.9498,-5.0269,-5.1211,-5.1954,-5.2696,-5.3158,-5.351,-5.3592,-5.3592,-5.3592,-5.3592,-5.3592,-5.3592,-5.3592,-5.3592,-5.3592,-5.3592,-5.3592,-5.3592,-5.3592,-5.3592,-5.3592,-5.3592,-5.3592,-5.3592,-5.3592,-5.3592,-5.3592,-5.3592,-5.3592,-5.3592,-5.3592,-5.3592,-5.3592,-5.3592,-5.3592,-5.3592,-5.3592,-5.3592,-5.3592,-5.3592,-5.3773,-5.4226,-5.4942,-5.5674,-5.7131,-5.8217,-5.9225,-6.0084,-6.0742,-6.0794,-6.0794,-6.0794,-6.0794,-6.0886,-6.104,-6.1379,-6.1779,-6.2492,-6.3052,-6.3898,-6.4892,-6.5564,-6.6291,-6.6385,-6.6427,-6.6299,-6.6224,-6.6299,-6.6246,-6.6192,-6.6085,-6.5708,-6.5623,-6.5731,-6.546,-6.5163,-6.6098,-6.7157,-6.7971,-6.8814,-7.0632,-7.1985,-7.1994,-7.2081,-7.2288,-7.2459,-7.2586,-7.2671,-7.2671,-7.2671,-7.2671,-7.2671,-7.2671,-7.2671,-4.8172,-4.8172,-4.8172,-4.8172,-4.8172,-4.8172,-4.8172,-4.8172,-4.8172,-4.8172,-4.8172,-4.8172,-4.8172,-4.8172,-4.8172,-4.8172,-4.823,-4.8373,-4.8663,-4.9196,-4.9885,-5.0793,-5.1679,-5.2425,-5.294,-5.3483,-5.3592,-5.3592,-5.3592,-5.3592,-5.3592,-5.3592,-5.3592,-5.3592,-5.3592,-5.3592,-5.3592,-5.3592,-5.3592,-5.3592,-5.3592,-5.3592,-5.3592,-5.3592,-5.3592,-5.3592,-5.3592,-5.3592,-5.3592,-5.3592,-5.3592,-5.3592,-5.3592,-5.3592,-5.3592,-5.3592,-5.3592,-5.3592,-5.3592,-5.3592,-5.3773,-5.4259,-5.4852,-5.5616,-5.6679,-5.8051,-5.8901,-5.9652,-6.0399,-6.0794,-6.0794,-6.0794,-6.0794,-6.0794,-6.1194,-6.1409,-6.1809,-6.224,-6.3185,-6.404,-6.4827,-6.5415,-6.5837,-6.6364,-6.6501,-6.6565,-6.6512,-6.6406,-6.6352,-6.6299,-6.6139,-6.5978,-6.5785,-6.587,-6.5924,-6.5623,-6.546,-6.5808,-6.6878,-6.7871,-6.9009,-7.0769,-7.1907,-7.2081,-7.2202,-7.2331,-7.2459,-7.2628,-7.2671,-7.2671,-7.2671,-7.2671,-7.2671,-7.2671,-7.2671,-4.8172,-4.8172,-4.8172,-4.8146,-4.812,-4.8172,-4.8172,-4.8172,-4.8172,-4.8172,-4.8172,-4.8172,-4.8172,-4.8172,-4.8172,-4.823,-4.8315,-4.8548,-4.889,-4.9449,-5.0216,-5.099,-5.1819,-5.2561,-5.313,-5.3483,-5.3592,-5.3592,-5.3592,-5.3592,-5.3592,-5.3592,-5.3592,-5.3592,-5.3592,-5.3592,-5.3592,-5.3592,-5.3592,-5.3592,-5.3592,-5.3592,-5.3592,-5.3592,-5.3592,-5.3592,-5.3592,-5.3592,-5.3592,-5.3592,-5.3592,-5.3592,-5.3592,-5.3592,-5.3592,-5.3592,-5.3592,-5.3592,-5.3592,-5.3592,-5.4107,-5.4942,-5.5442,-5.6423,-5.8162,-5.9171,-5.9523,-6.0294,-6.069,-6.0794,-6.0794,-6.0855,-6.0886,-6.1071,-6.1471,-6.1994,-6.2425,-6.2871,-6.3817,-6.4698,-6.5241,-6.5777,-6.613,-6.6406,-6.6533,-6.6617,-6.6617,-6.6565,-6.6512,-6.6406,-6.6246,-6.6139,-6.6032,-6.6,-6.6054,-6.5839,-6.5754,-6.5991,-6.6806,-6.8021,-6.9105,-7.054,-7.1433,-7.1994,-7.2331,-7.2459,-7.2586,-7.2671,-7.2671,-7.2671,-7.2671,-7.2671,-7.2671,-7.2671,-7.2671,-4.8172,-4.8146,-4.778,-4.7623,-4.7675,-4.8041,-4.8172,-4.8172,-4.8172,-4.8172,-4.8172,-4.8172,-4.8172,-4.8172,-4.823,-4.8315,-4.8489,-4.8632,-4.9001,-5.0055,-5.0793,-5.1561,-5.2306,-5.2913,-5.3375,-5.3537,-5.3592,-5.3592,-5.3592,-5.3592,-5.3592,-5.3592,-5.3592,-5.3592,-5.3592,-5.3592,-5.3592,-5.3592,-5.3592,-5.3592,-5.3592,-5.3592,-5.3592,-5.3592,-5.3592,-5.3592,-5.3592,-5.3592,-5.3592,-5.3592,-5.3592,-5.3592,-5.3592,-5.3592,-5.3592,-5.3592,-5.3592,-5.3592,-5.3592,-5.3652,-5.4166,-5.5178,-5.6194,-5.7187,-5.8763,-5.9789,-6.0346,-6.0638,-6.0794,-6.0794,-6.0794,-6.1286,-6.1471,-6.1656,-6.2056,-6.2733,-6.3195,-6.3687,-6.439,-6.5125,-6.5808,-6.6054,-6.6352,-6.6406,-6.6512,-6.6586,-6.6586,-6.6586,-6.6565,-6.6565,-6.6459,-6.6406,-6.6299,-6.6268,-6.6161,-6.6054,-6.6054,-6.6289,-6.7292,-6.8683,-6.9727,-7.054,-7.1389,-7.2167,-7.2416,-7.2586,-7.2628,-7.2671,-7.2671,-7.2671,-7.2671,-7.2671,-7.2671,-7.2671,-7.2671,-4.8068,-4.7858,-4.7492,-4.7148,-4.71,-4.744,-4.7675,-4.7885,-4.8068,-4.8172,-4.8172,-4.8172,-4.8172,-4.8172,-4.823,-4.8257,-4.8574,-4.9044,-4.9351,-5.0488,-5.1449,-5.2112,-5.2718,-5.3293,-5.351,-5.3592,-5.3592,-5.3592,-5.3592,-5.3592,-5.3592,-5.3592,-5.3592,-5.3592,-5.3592,-5.3592,-5.3592,-5.3592,-5.3592,-5.3592,-5.3592,-5.3592,-5.3592,-5.3592,-5.3592,-5.3592,-5.3592,-5.3592,-5.3592,-5.3592,-5.3592,-5.3592,-5.3592,-5.3592,-5.3592,-5.3592,-5.3592,-5.3592,-5.3592,-5.4226,-5.4942,-5.6021,-5.6821,-5.7941,-5.9225,-6.0294,-6.0555,-6.0794,-6.0824,-6.1009,-6.1194,-6.1748,-6.1994,-6.2148,-6.2764,-6.341,-6.3711,-6.4151,-6.4785,-6.5521,-6.5862,-6.6161,-6.6406,-6.6406,-6.6459,-6.6512,-6.6586,-6.6617,-6.6617,-6.6617,-6.6617,-6.6565,-6.6512,-6.6427,-6.6374,-6.6268,-6.6374,-6.6617,-6.7682,-6.896,-6.9633,-7.0276,-7.1266,-7.2167,-7.2373,-7.2501,-7.2628,-7.2671,-7.2671,-7.2671,-7.2671,-7.2671,-7.2671,-7.2671,-7.2671,-4.7832,-4.7362,-4.7226,-4.6917,-4.6499,-4.6578,-4.6891,-4.7383,-4.7963,-4.8172,-4.8172,-4.8172,-4.8172,-4.8172,-4.8172,-4.823,-4.8536,-4.9425,-4.9951,-5.0671,-5.1804,-5.2415,-5.294,-5.3347,-5.3565,-5.3592,-5.3592,-5.3592,-5.3592,-5.3592,-5.3592,-5.3592,-5.3592,-5.3592,-5.3592,-5.3592,-5.3592,-5.3592,-5.3592,-5.3592,-5.3592,-5.3592,-5.3592,-5.3592,-5.3592,-5.3592,-5.3592,-5.3592,-5.3592,-5.3592,-5.3592,-5.3592,-5.3592,-5.3592,-5.3592,-5.3592,-5.3592,-5.3592,-5.3773,-5.4497,-5.5703,-5.6651,-5.7243,-5.8654,-5.9895,-6.0721,-6.0834,-6.0978,-6.1071,-6.144,-6.1779,-6.2056,-6.2364,-6.2856,-6.3472,-6.3841,-6.408,-6.4545,-6.5157,-6.5592,-6.5754,-6.5969,-6.6108,-6.6161,-6.6214,-6.6268,-6.6374,-6.6459,-6.6512,-6.6617,-6.6617,-6.6586,-6.6565,-6.6565,-6.6533,-6.6427,-6.6406,-6.6512,-6.7561,-6.8749,-6.9379,-7.0136,-7.13,-7.2081,-7.2245,-7.2416,-7.2628,-7.2671,-7.2671,-7.2671,-7.2671,-7.2671,-7.2671,-7.2671,-7.2671,-4.7435,-4.72,-4.6473,-4.6029,-4.595,-4.629,-4.7022,-4.7911,-4.8146,-4.8172,-4.8172,-4.8172,-4.8172,-4.8172,-4.8172,-4.8489,-4.9017,-4.9653,-5.051,-5.1395,-5.2247,-5.2854,-5.3266,-5.351,-5.3592,-5.3592,-5.3592,-5.3592,-5.3592,-5.3592,-5.3592,-5.3592,-5.3592,-5.3592,-5.3592,-5.3619,-5.3646,-5.3673,-5.3673,-5.37,-5.37,-5.3727,-5.3727,-5.3754,-5.3782,-5.3754,-5.37,-5.3673,-5.3673,-5.3619,-5.3592,-5.3592,-5.3592,-5.3592,-5.3592,-5.3592,-5.3592,-5.3592,-5.3773,-5.4734,-5.605,-5.733,-5.8026,-5.9171,-6.0294,-6.0948,-6.1101,-6.1348,-6.1532,-6.1902,-6.2394,-6.2764,-6.3071,-6.3564,-6.4057,-6.4334,-6.4512,-6.4823,-6.5406,-6.5569,-6.57,-6.5754,-6.5893,-6.5839,-6.5893,-6.6,-6.6108,-6.6246,-6.6406,-6.6512,-6.6617,-6.6617,-6.6617,-6.6617,-6.6565,-6.6512,-6.6406,-6.6533,-6.7663,-6.8584,-6.9187,-7.009,-7.1344,-7.1994,-7.2288,-7.2459,-7.2671,-7.2671,-7.2671,-7.2671,-7.2671,-7.2671,-7.2671,-7.2671,-7.2671,-4.7148,-4.6891,-4.6029,-4.5767,-4.6055,-4.6578,-4.7362,-4.8094,-4.8172,-4.8172,-4.8172,-4.8172,-4.8172,-4.8257,-4.8373,-4.8737,-4.9319,-5.0255,-5.1111,-5.1853,-5.2691,-5.3185,-5.351,-5.3592,-5.3592,-5.3592,-5.3592,-5.3592,-5.3592,-5.3592,-5.3592,-5.3592,-5.3592,-5.3592,-5.3673,-5.3836,-5.3999,-5.3999,-5.3972,-5.3944,-5.3999,-5.4162,-5.4297,-5.4243,-5.427,-5.4162,-5.3972,-5.3944,-5.3863,-5.3673,-5.3592,-5.3592,-5.3592,-5.3592,-5.3592,-5.3592,-5.3592,-5.3926,-5.4437,-5.5528,-5.6823,-5.8124,-5.9398,-6.0502,-6.1041,-6.1563,-6.1809,-6.2025,-6.2179,-6.2456,-6.3041,-6.3564,-6.3903,-6.4241,-6.4549,-6.4857,-6.5022,-6.5132,-6.5351,-6.5515,-6.5623,-6.5731,-6.57,-6.5592,-6.5592,-6.5754,-6.5947,-6.6054,-6.6299,-6.6459,-6.6565,-6.6617,-6.6565,-6.6565,-6.6565,-6.6406,-6.6246,-6.6501,-6.7682,-6.8502,-6.9057,-7.0136,-7.1478,-7.2081,-7.2373,-7.2544,-7.2671,-7.2671,-7.2671,-7.2671,-7.2671,-7.2671,-7.2671,-7.2671,-7.2671,-4.6944,-4.6369,-4.5846,-4.5924,-4.6525,-4.7048,-4.7623,-4.8146,-4.8172,-4.8172,-4.8172,-4.8257,-4.823,-4.8373,-4.8606,-4.9097,-4.9813,-5.0693,-5.1519,-5.2365,-5.3064,-5.3537,-5.3565,-5.3592,-5.3592,-5.3592,-5.3592,-5.3592,-5.3592,-5.3592,-5.3592,-5.3592,-5.3592,-5.3646,-5.3863,-5.4162,-5.4379,-5.4569,-5.4677,-5.4731,-5.4731,-5.503,-5.541,-5.5328,-5.522,-5.5084,-5.4704,-5.446,-5.4297,-5.3944,-5.3782,-5.3863,-5.3754,-5.3754,-5.3754,-5.3855,-5.4003,-5.4598,-5.5634,-5.691,-5.8363,-5.9767,-6.1149,-6.1944,-6.228,-6.2117,-6.2302,-6.2702,-6.2918,-6.3256,-6.3779,-6.4026,-6.4303,-6.4518,-6.4764,-6.4888,-6.4943,-6.5108,-6.5242,-6.5406,-6.546,-6.5515,-6.5351,-6.5297,-6.5297,-6.5483,-6.5646,-6.5785,-6.6,-6.6214,-6.6406,-6.6427,-6.6459,-6.6406,-6.6214,-6.6054,-6.5947,-6.647,-6.7497,-6.8204,-6.8568,-6.9996,-7.1732,-7.2124,-7.2416,-7.2544,-7.2628,-7.2671,-7.2671,-7.2671,-7.2671,-7.2671,-7.2671,-7.2671,-7.2671,-4.6342,-4.582,-4.5689,-4.595,-4.6525,-4.71,-4.7675,-4.8172,-4.8172,-4.8172,-4.823,-4.8431,-4.8548,-4.8606,-4.8837,-4.9387,-5.0318,-5.1057,-5.1858,-5.2598,-5.3375,-5.3592,-5.3592,-5.3592,-5.3592,-5.3592,-5.3592,-5.3592,-5.3592,-5.3592,-5.3592,-5.3592,-5.3646,-5.3836,-5.4189,-5.4514,-5.4813,-5.5166,-5.5545,-5.5545,-5.5383,-5.5301,-5.541,-5.5464,-5.5437,-5.5464,-5.522,-5.5166,-5.5111,-5.4976,-5.4976,-5.4758,-5.4324,-5.4297,-5.4026,-5.3964,-5.4966,-5.5762,-5.6875,-5.8374,-5.9941,-6.0786,-6.1855,-6.274,-6.3102,-6.2764,-6.2825,-6.3318,-6.3718,-6.4087,-6.4364,-6.4518,-6.4641,-6.4764,-6.4888,-6.4888,-6.4888,-6.5053,-6.5187,-6.5242,-6.5297,-6.5242,-6.5108,-6.5053,-6.5053,-6.5163,-6.5297,-6.546,-6.5569,-6.5785,-6.6032,-6.6139,-6.6246,-6.6192,-6.5947,-6.5785,-6.5677,-6.5969,-6.6858,-6.7497,-6.8254,-7.0136,-7.1994,-7.221,-7.2459,-7.2544,-7.2628,-7.2671,-7.2671,-7.2671,-7.2671,-7.2671,-7.2671,-7.2671,-7.2671,-4.5924,-4.5663,-4.5898,-4.6186,-4.6578,-4.7362,-4.7911,-4.8146,-4.8172,-4.8172,-4.8172,-4.8373,-4.8548,-4.8721,-4.8952,-4.9832,-5.0766,-5.1373,-5.222,-5.2989,-5.3347,-5.3537,-5.3592,-5.3592,-5.3592,-5.3592,-5.3592,-5.3592,-5.3592,-5.3592,-5.3592,-5.3673,-5.3809,-5.4162,-5.4569,-5.4921,-5.541,-5.5817,-5.6387,-5.6414,-5.6142,-5.6142,-5.6197,-5.6197,-5.617,-5.6088,-5.5844,-5.5762,-5.5627,-5.5491,-5.5328,-5.5247,-5.4948,-5.4894,-5.5074,-5.5458,-5.6325,-5.7298,-5.8552,-5.9903,-6.1498,-6.2177,-6.2628,-6.3541,-6.4118,-6.3872,-6.3903,-6.4303,-6.4303,-6.4611,-6.4641,-6.4764,-6.4795,-6.4857,-6.4888,-6.4888,-6.4998,-6.5108,-6.5108,-6.5053,-6.5163,-6.5187,-6.5053,-6.4943,-6.4943,-6.4943,-6.5108,-6.5242,-6.5297,-6.5351,-6.5569,-6.5762,-6.587,-6.5817,-6.5623,-6.5515,-6.5406,-6.5777,-6.628,-6.8122,-6.9618,-7.0996,-7.2202,-7.2416,-7.2544,-7.2628,-7.2671,-7.2671,-7.2671,-7.2671,-7.2671,-7.2671,-7.2671,-7.2671,-7.2671,-4.5637,-4.5715,-4.6238,-4.6525,-4.6734,-4.7702,-4.8172,-4.8172,-4.8172,-4.8257,-4.8315,-4.8315,-4.8431,-4.8721,-4.9227,-5.0291,-5.1174,-5.1787,-5.2637,-5.3266,-5.3537,-5.3592,-5.3592,-5.3592,-5.3592,-5.3592,-5.3592,-5.3592,-5.3592,-5.3592,-5.3673,-5.3782,-5.4162,-5.4569,-5.5003,-5.56,-5.6251,-5.6468,-5.6821,-5.7065,-5.7146,-5.7174,-5.7065,-5.7092,-5.7146,-5.6902,-5.6577,-5.6332,-5.6088,-5.598,-5.5817,-5.5932,-5.601,-5.6087,-5.6632,-5.7158,-5.8078,-5.9248,-6.0514,-6.1455,-6.2627,-6.3452,-6.3794,-6.421,-6.4734,-6.4826,-6.4826,-6.4826,-6.4826,-6.4857,-6.4888,-6.4888,-6.4888,-6.4888,-6.4888,-6.4888,-6.4998,-6.5108,-6.4998,-6.4888,-6.4998,-6.5108,-6.5053,-6.4943,-6.4888,-6.4888,-6.4943,-6.5108,-6.5163,-6.5132,-6.5273,-6.5351,-6.5406,-6.5351,-6.5242,-6.5242,-6.5187,-6.5406,-6.6152,-6.8716,-7.0769,-7.1522,-7.2167,-7.2544,-7.2671,-7.2671,-7.2671,-7.2671,-7.2671,-7.2671,-7.2671,-7.2671,-7.2671,-7.2671,-7.2671,-4.5611,-4.5663,-4.6238,-4.6734,-4.7231,-4.7911,-4.8172,-4.8172,-4.823,-4.8373,-4.8548,-4.8606,-4.8779,-4.9121,-4.9917,-5.0824,-5.1512,-5.2149,-5.2859,-5.351,-5.3592,-5.3592,-5.3592,-5.3592,-5.3592,-5.3592,-5.3592,-5.3592,-5.3646,-5.3646,-5.3863,-5.427,-5.4379,-5.4976,-5.5898,-5.6359,-5.6577,-5.6848,-5.6984,-5.7174,-5.7174,-5.7174,-5.7174,-5.7174,-5.7174,-5.7119,-5.7011,-5.7011,-5.6956,-5.6875,-5.6803,-5.7012,-5.7294,-5.7534,-5.8071,-5.9097,-5.9976,-6.0962,-6.2048,-6.3052,-6.4058,-6.4261,-6.4518,-6.458,-6.4888,-6.4888,-6.4888,-6.4888,-6.4888,-6.4888,-6.4888,-6.4888,-6.4888,-6.4888,-6.4888,-6.4888,-6.4943,-6.4998,-6.4943,-6.4888,-6.4943,-6.4998,-6.4943,-6.4888,-6.4888,-6.4888,-6.4888,-6.4998,-6.4998,-6.4998,-6.4998,-6.5077,-6.5132,-6.5053,-6.4998,-6.5053,-6.5053,-6.5187,-6.5938,-6.8289,-7.0196,-7.1399,-7.2047,-7.2544,-7.2671,-7.2671,-7.2671,-7.2671,-7.2671,-7.2671,-7.2671,-7.2671,-7.2671,-7.2671,-7.2671]},{"header":{"parameterUnit":"m.s-1","parameterCategory":1,"la1":31.0,"la2":29.5877,"lo1":-88.7671,"lo2":-86.6584,"dy":0.0162,"dx":0.0185,"nx":115,"ny":88,"refTime":"2024-05-10T12:00:00:Z","depth":0,"parameterNumber":3,"parameterNumberName":"V-component_of_WINDS"},"data":[0.0,0.0,0.0,0.0,0.0,0.0,0.0,0.0,0.0,0.0,0.0,0.0,0.0,0.0,0.0,0.0,0.0,0.0,0.0,0.0,0.0,0.0,0.0,0.0,0.0,0.0,0.0,0.0,0.0,0.0,0.0,0.0,0.0,0.0,0.0,0.0,0.0,0.0,0.0,0.0,0.0,0.0,0.0,0.0,0.0,0.0,0.0,0.0,0.0,0.0,0.0,0.0,0.0,0.0,0.0,0.0,0.0,0.0,0.0,0.0,0.0,0.0,0.0,0.0,0.0,0.0,0.0,0.0,0.0,0.0,0.0,0.0,0.0,0.0,0.0,0.0,0.0,0.0,0.0,0.0,0.0,0.0,0.0,0.0,0.0,0.0,0.0,0.0,0.0,0.0,0.0,0.0,0.0,0.0,0.0,0.0,0.0,0.0,0.0,0.0,0.0,0.0,0.0,0.0,0.0,0.0,0.0,0.0,0.0,0.0,0.0,0.0,0.0,0.0,0.0,0.0,0.0,0.0,0.0,0.0,0.0,0.0,0.0,0.0,0.0,0.0,0.0,0.0,0.0,0.0,0.0,0.0,0.0,0.0,0.0,0.0,0.0,0.0,0.0,0.0,0.0,0.0,0.0,0.0,0.0,0.0,0.0,0.0,0.0,0.0,0.0,0.0,0.0,0.0,0.0,0.0,0.0,0.0,0.0,0.0,0.0,0.0,0.0,0.0,0.0,0.0,0.0,0.0,0.0,0.0,0.0,0.0,0.0,0.0,0.0,0.0,0.0,0.0,0.0,0.0,0.0,0.0,0.0,0.0,0.0,0.0,0.0,0.0,0.0,0.0,0.0,0.0,0.0,0.0,0.0,0.0,0.0,0.0,0.0,0.0,0.0,0.0,0.0,0.0,0.0,0.0,0.0,0.0,0.0,0.0,0.0,0.0,0.0,0.0,0.0,0.0,0.0,0.0,0.0,0.0,0.0,0.0,0.0,0.0,0.0,0.0,0.0,0.0,0.0,0.0,0.0,0.0,0.0,0.0,0.0,0.0,0.0,0.0,0.0,0.0,0.0,0.0,0.0,0.0,0.0,0.0,0.0,0.0,0.0,0.0,0.0,0.0,0.0,0.0,0.0,0.0,0.0,0.0,0.0,0.0,0.0,0.0,0.0,0.0,0.0,0.0,0.0,0.0,0.0,0.0,0.0,0.0,0.0,0.0,0.0,0.0,0.0,0.0,0.0,0.0,0.0,0.0,0.0,0.0,0.0,0.0,0.0,0.0,0.0,0.0,0.0,0.0,0.0,0.0,0.0,0.0,0.0,0.0,0.0,0.0,0.0,0.0,0.0,0.0,0.0,0.0,0.0,0.0,0.0,0.0,0.0,0.0,0.0,0.0,0.0,0.0,0.0,0.0,0.0,0.0,0.0,0.0,0.0,0.0,0.0,0.0,0.0,0.0,0.0,0.0,0.0,0.0,0.0,0.0,0.0,0.0,0.0,0.0,0.0,0.0,0.0,0.0,0.0,0.0,0.0,0.0,0.0,0.0,0.0,0.0,0.0,0.0,0.0,0.0,0.0,0.0,0.0,0.0,0.0,0.0,0.0,0.0,0.0,0.0,0.0,0.0,0.0,0.0,0.0,0.0,0.0,0.0,0.0,0.0,0.0,0.0,0.0,0.0,0.0,0.0,0.0,0.0,0.0,0.0,0.0,0.0,0.0,0.0,0.0,0.0,0.0,0.0,0.0,0.0,0.0,0.0,0.0,0.0,0.0,0.0,0.0,0.0,0.0,0.0,0.0,0.0,0.0,0.0,0.0,0.0,0.0,0.0,0.0,0.0,0.0,0.0,0.0,0.0,0.0,0.0,0.0,0.0,0.0,0.0,0.0,0.0,0.0,0.0,0.0,0.0,0.0,0.0,0.0,0.0,0.0,0.0,0.0,0.0,0.0,0.0,0.0,0.0,0.0,0.0,0.0,0.0,0.0,0.0,0.0,0.0,0.0,0.0,0.0,0.0,0.0,0.0,0.0,0.0,0.0,0.0,0.0,0.0,0.0,0.0,0.0,0.0,0.0,0.0,0.0,0.0,0.0,0.0,0.0,0.0,0.0,0.0,0.0,0.0,0.0,0.0,0.0,0.0,0.0,0.0,0.0,0.0,0.0,0.0,0.0,0.0,0.0,0.0,0.0,0.0,0.0,0.0,0.0,0.0,0.0,0.0,0.0,0.0,0.0,0.0,0.0,0.0,0.0,0.0,0.0,0.0,0.0,0.0,0.0,0.0,0.0,0.0,0.0,0.0,0.0,0.0,0.0,0.0,0.0,0.0,0.0,0.0,0.0,0.0,0.0,0.0,0.0,0.0,0.0,0.0,0.0,0.0,0.0,0.0,0.0,0.0,0.0,0.0,0.0,0.0,0.0,0.0,0.0,0.0,0.0,0.0,0.0,0.0,0.0,0.0,0.0,0.0,0.0,0.0,0.0,0.0,0.0,0.0,0.0,0.0,0.0,0.0,0.0,0.0,0.0,0.0,0.0,0.0,0.0,0.0,0.0,0.0,0.0,0.0,0.0,0.0,0.0,0.0,0.0,0.0,0.0,0.0,0.0,0.0,0.0,0.0,0.0,0.0,0.0,0.0,0.0,0.0,0.0,0.0,0.0,0.0,0.0,0.0,0.0,0.0,0.0,0.0,0.0,0.0,0.0,0.0,0.0,0.0,0.0,0.0,0.0,0.0,0.0,0.0,0.0,0.0,0.0,0.0,0.0,0.0,0.0,0.0,0.0,0.0,0.0,0.0,0.0,0.0,0.0,0.0,0.0,0.0,0.0,0.0,0.0,0.0,0.0,0.0,0.0,0.0,0.0,0.0,0.0,0.0,0.0,0.0,0.0,0.0,0.0,0.0,0.0,0.0,0.0,0.0,0.0,0.0,0.0,0.0,0.0,0.0,0.0,0.0,0.0,0.0,0.0,0.0,0.0,0.0,0.0,0.0,0.0,0.0,0.0,0.0,0.0,0.0,0.0,0.0,0.0,0.0,0.0,0.0,0.0,0.0,0.0,0.0,0.0,0.0,0.0,0.0,0.0,0.0,0.0,0.0,0.0,0.0,0.0,0.0,0.0,0.0,0.0,0.0,0.0,0.0,0.0,0.0,0.0,0.0,0.0,0.0,0.0,0.0,0.0,0.0,0.0,0.0,0.0,0.0,0.0,0.0,0.0,0.0,0.0,0.0,0.0,0.0,0.0,0.0,0.0,0.0,0.0,0.0,0.0,0.0,0.0,0.0,0.0,0.0,0.0,0.0,0.0,0.0,0.0,0.0,0.0,0.0,0.0,0.0,0.0,0.0,0.0,0.0,0.0,0.0,0.0,0.0,0.0,0.0,0.0,0.0,0.0,0.0,0.0,0.0,0.0,0.0,0.0,0.0,0.0,0.0,0.0,0.0,0.0,0.0,0.0,0.0,0.0,0.0,0.0,0.0,0.0,0.0,0.0,0.0,0.0,0.0,0.0,0.0,0.0,0.0,0.0,0.0,0.0,0.0,0.0,0.0,0.0,0.0,0.0,0.0,0.0,0.0,0.0,0.0,0.0,0.0,0.0,0.0,0.0,0.0,0.0,0.0,0.0,0.0,0.0,0.0,0.0,0.0,0.0,0.0,0.0,0.0,0.0,0.0,0.0,0.0,0.0,0.0,0.0,0.0,0.0,0.0,0.0,0.0,0.0,0.0,0.0,0.0,0.0,0.0,0.0,0.0,0.0,0.0,0.0,0.0,0.0,0.0,0.0,0.0,0.0,0.0,0.0,0.0,0.0,0.0,0.0,0.0,0.0,0.0,0.0,0.0,0.0,0.0,0.0,0.0,0.0,0.0,0.0,0.0,0.0,0.0,0.0,0.0,0.0,0.0,0.0,0.0,0.0,0.0,0.0,0.0,0.0,0.0,0.0,0.0,0.0,0.0,0.0,0.0,0.0,0.0,0.0,0.0,0.0,0.0,0.0,0.0,0.0,0.0,0.0,0.0,0.0,0.0,0.0,0.0,0.0,0.0,0.0,0.0,0.0,0.0,0.0,0.0,0.0,0.0,0.0,0.0,0.0,0.0,0.0,0.0,0.0,0.0,0.0,0.0,0.0,0.0,0.0,0.0,0.0,0.0,0.0,0.0,0.0,0.0,0.0,0.0,0.0,0.0,0.0,0.0,0.0,0.0,0.0,0.0,0.0,0.0,0.0,0.0,0.0,0.0,0.0,0.0,0.0,0.0,0.0,0.0,0.0,0.0,0.0,0.0,-2.4202,0.0,0.0,0.0,0.0,0.0,0.0,0.0,0.0,0.0,0.0,0.0,0.0,0.0,0.0,0.0,0.0,0.0,0.0,0.0,0.0,0.0,0.0,0.0,0.0,0.0,0.0,0.0,0.0,0.0,0.0,0.0,0.0,0.0,0.0,0.0,0.0,0.0,0.0,0.0,0.0,0.0,0.0,0.0,0.0,0.0,0.0,0.0,0.0,0.0,0.0,0.0,0.0,0.0,0.0,0.0,0.0,0.0,0.0,0.0,0.0,0.0,0.0,0.0,0.0,0.0,0.0,0.0,0.0,0.0,0.0,0.0,0.0,0.0,0.0,0.0,0.0,0.0,0.0,0.0,0.0,0.0,0.0,0.0,0.0,0.0,0.0,0.0,0.0,0.0,0.0,0.0,0.0,0.0,0.0,0.0,0.0,0.0,0.0,0.0,0.0,0.0,0.0,0.0,0.0,0.0,0.0,0.0,0.0,0.0,0.0,-2.4202,-2.4202,-2.4202,-2.4202,-2.4202,0.0,0.0,0.0,0.0,0.0,0.0,0.0,0.0,0.0,0.0,0.0,0.0,0.0,0.0,0.0,0.0,0.0,0.0,0.0,0.0,0.0,0.0,0.0,0.0,0.0,0.0,0.0,0.0,0.0,0.0,0.0,0.0,0.0,0.0,0.0,0.0,0.0,0.0,0.0,0.0,0.0,0.0,0.0,0.0,0.0,0.0,0.0,0.0,0.0,0.0,0.0,0.0,0.0,0.0,0.0,0.0,0.0,0.0,0.0,0.0,0.0,0.0,0.0,0.0,0.0,0.0,0.0,0.0,0.0,0.0,0.0,0.0,0.0,0.0,0.0,0.0,0.0,0.0,0.0,0.0,0.0,0.0,0.0,0.0,0.0,0.0,0.0,0.0,0.0,0.0,0.0,0.0,0.0,0.0,0.0,0.0,0.0,0.0,0.0,0.0,0.0,0.0,0.0,0.0,0.0,0.0,0.0,0.0,0.0,0.0,0.0,0.0,-2.4202,-2.4301,-2.4548,0.0,0.0,0.0,0.0,0.0,0.0,0.0,0.0,0.0,0.0,0.0,0.0,0.0,0.0,0.0,0.0,0.0,0.0,0.0,0.0,0.0,0.0,0.0,0.0,0.0,0.0,0.0,0.0,0.0,0.0,0.0,0.0,0.0,0.0,0.0,0.0,0.0,0.0,0.0,0.0,0.0,0.0,0.0,0.0,0.0,0.0,0.0,0.0,0.0,0.0,0.0,0.0,0.0,0.0,0.0,0.0,0.0,0.0,0.0,0.0,0.0,0.0,0.0,0.0,0.0,0.0,0.0,0.0,0.0,0.0,0.0,0.0,0.0,0.0,0.0,0.0,0.0,0.0,0.0,0.0,0.0,0.0,0.0,0.0,0.0,0.0,0.0,0.0,0.0,0.0,0.0,0.0,0.0,0.0,0.0,0.0,0.0,0.0,0.0,0.0,0.0,0.0,0.0,0.0,0.0,0.0,0.0,0.0,0.0,0.0,-2.4202,-2.4202,-2.4202,0.0,-2.546,0.0,0.0,0.0,0.0,0.0,0.0,0.0,0.0,0.0,0.0,0.0,0.0,0.0,0.0,0.0,0.0,0.0,0.0,0.0,0.0,0.0,0.0,0.0,0.0,0.0,0.0,0.0,0.0,0.0,0.0,0.0,0.0,0.0,0.0,0.0,0.0,0.0,0.0,0.0,0.0,0.0,0.0,0.0,0.0,0.0,0.0,0.0,0.0,0.0,0.0,0.0,0.0,0.0,0.0,0.0,0.0,0.0,0.0,0.0,0.0,0.0,0.0,0.0,0.0,0.0,0.0,0.0,0.0,0.0,0.0,0.0,0.0,0.0,0.0,0.0,0.0,0.0,0.0,0.0,0.0,0.0,0.0,0.0,0.0,0.0,0.0,0.0,0.0,0.0,0.0,0.0,0.0,0.0,0.0,0.0,0.0,0.0,0.0,0.0,0.0,0.0,0.0,0.0,0.0,0.0,0.0,0.0,0.0,0.0,0.0,-2.4202,-2.4202,-2.4202,-2.4399,0.0,0.0,0.0,0.0,0.0,0.0,0.0,0.0,0.0,0.0,0.0,0.0,0.0,0.0,0.0,0.0,0.0,0.0,0.0,0.0,0.0,0.0,0.0,0.0,0.0,0.0,0.0,0.0,0.0,0.0,0.0,0.0,0.0,0.0,0.0,0.0,0.0,0.0,0.0,0.0,0.0,0.0,0.0,0.0,0.0,0.0,0.0,0.0,0.0,0.0,0.0,0.0,0.0,0.0,0.0,0.0,0.0,0.0,0.0,0.0,0.0,0.0,0.0,0.0,0.0,0.0,0.0,0.0,0.0,0.0,0.0,0.0,0.0,0.0,0.0,0.0,0.0,0.0,0.0,0.0,0.0,0.0,0.0,0.0,0.0,0.0,0.0,0.0,0.0,0.0,0.0,0.0,0.0,0.0,0.0,0.0,0.0,0.0,0.0,0.0,0.0,0.0,0.0,0.0,0.0,0.0,0.0,0.0,0.0,0.0,-2.4765,-2.444,-2.4532,-2.4532,-2.4683,-2.4914,0.0,0.0,0.0,0.0,0.0,0.0,0.0,0.0,0.0,0.0,0.0,0.0,0.0,0.0,0.0,0.0,0.0,0.0,0.0,0.0,0.0,0.0,0.0,0.0,0.0,0.0,0.0,0.0,0.0,0.0,0.0,0.0,0.0,0.0,0.0,0.0,0.0,0.0,0.0,0.0,0.0,0.0,0.0,0.0,0.0,0.0,0.0,0.0,0.0,0.0,0.0,0.0,0.0,0.0,0.0,0.0,0.0,0.0,0.0,0.0,0.0,0.0,0.0,0.0,0.0,0.0,0.0,0.0,0.0,0.0,0.0,0.0,0.0,0.0,0.0,0.0,0.0,0.0,0.0,0.0,0.0,0.0,0.0,0.0,0.0,0.0,0.0,0.0,0.0,0.0,0.0,0.0,0.0,0.0,0.0,0.0,0.0,0.0,0.0,0.0,0.0,0.0,0.0,0.0,0.0,0.0,0.0,0.0,-2.5189,-2.4942,-2.4922,-2.5323,-2.5307,-2.5806,0.0,0.0,0.0,0.0,0.0,0.0,0.0,0.0,0.0,0.0,0.0,0.0,0.0,0.0,0.0,0.0,0.0,0.0,0.0,0.0,0.0,0.0,0.0,0.0,0.0,0.0,0.0,0.0,0.0,0.0,0.0,0.0,0.0,0.0,0.0,0.0,0.0,0.0,0.0,0.0,0.0,0.0,0.0,0.0,0.0,0.0,0.0,0.0,0.0,0.0,0.0,0.0,0.0,0.0,0.0,0.0,0.0,0.0,0.0,0.0,0.0,0.0,0.0,0.0,0.0,0.0,0.0,0.0,0.0,0.0,0.0,0.0,0.0,0.0,0.0,0.0,0.0,0.0,0.0,0.0,0.0,0.0,0.0,0.0,0.0,0.0,0.0,0.0,0.0,0.0,0.0,0.0,0.0,0.0,0.0,0.0,0.0,0.0,0.0,0.0,0.0,0.0,0.0,0.0,0.0,0.0,0.0,0.0,0.0,-2.7432,-2.5977,-2.5234,-2.5362,-2.5362,-2.557,0.0,0.0,0.0,0.0,0.0,0.0,0.0,0.0,0.0,0.0,0.0,0.0,0.0,0.0,0.0,0.0,0.0,0.0,0.0,0.0,0.0,0.0,0.0,0.0,0.0,0.0,0.0,0.0,0.0,0.0,0.0,0.0,0.0,0.0,0.0,0.0,0.0,0.0,0.0,0.0,0.0,0.0,0.0,0.0,0.0,0.0,0.0,0.0,0.0,0.0,0.0,0.0,0.0,0.0,0.0,0.0,0.0,0.0,0.0,0.0,0.0,0.0,0.0,0.0,0.0,0.0,0.0,0.0,0.0,0.0,0.0,0.0,0.0,0.0,0.0,0.0,0.0,0.0,0.0,0.0,0.0,0.0,0.0,0.0,0.0,0.0,0.0,0.0,0.0,0.0,0.0,0.0,0.0,0.0,0.0,0.0,0.0,0.0,0.0,0.0,0.0,0.0,0.0,0.0,0.0,0.0,0.0,0.0,0.0,-2.8046,0.0,-2.5766,-2.5819,-2.6117,-2.6308,0.0,0.0,0.0,0.0,0.0,0.0,0.0,0.0,0.0,0.0,0.0,0.0,0.0,0.0,0.0,0.0,0.0,0.0,0.0,0.0,0.0,0.0,0.0,0.0,0.0,0.0,0.0,0.0,0.0,0.0,0.0,0.0,0.0,0.0,0.0,0.0,0.0,0.0,0.0,0.0,0.0,0.0,0.0,0.0,0.0,0.0,0.0,0.0,0.0,0.0,0.0,0.0,0.0,0.0,0.0,0.0,0.0,0.0,0.0,0.0,0.0,0.0,0.0,0.0,0.0,0.0,0.0,0.0,0.0,0.0,0.0,0.0,0.0,0.0,0.0,0.0,0.0,0.0,0.0,0.0,0.0,0.0,0.0,0.0,0.0,0.0,0.0,0.0,0.0,0.0,0.0,0.0,0.0,0.0,0.0,0.0,0.0,0.0,0.0,0.0,0.0,0.0,0.0,0.0,0.0,0.0,0.0,0.0,-2.8622,-2.6533,-2.6569,-2.6536,-2.6627,-2.7527,-2.8096,0.0,0.0,0.0,0.0,0.0,0.0,0.0,0.0,0.0,0.0,0.0,0.0,0.0,0.0,0.0,0.0,0.0,0.0,0.0,0.0,0.0,0.0,0.0,0.0,0.0,0.0,0.0,0.0,0.0,0.0,0.0,0.0,0.0,0.0,0.0,0.0,0.0,0.0,0.0,0.0,0.0,0.0,0.0,0.0,0.0,0.0,0.0,0.0,0.0,0.0,0.0,0.0,0.0,0.0,0.0,0.0,0.0,0.0,0.0,0.0,0.0,0.0,0.0,0.0,0.0,0.0,0.0,0.0,0.0,0.0,0.0,0.0,0.0,0.0,0.0,0.0,0.0,0.0,0.0,0.0,0.0,0.0,0.0,0.0,0.0,0.0,0.0,0.0,0.0,0.0,0.0,0.0,0.0,0.0,0.0,0.0,0.0,0.0,0.0,0.0,0.0,0.0,0.0,0.0,0.0,0.0,0.0,0.0,0.0,-2.6857,-2.6681,-2.6591,-2.6591,-2.6899,-2.7457,0.0,0.0,0.0,0.0,0.0,0.0,0.0,0.0,0.0,0.0,0.0,0.0,0.0,0.0,0.0,0.0,0.0,0.0,0.0,0.0,0.0,0.0,0.0,0.0,0.0,0.0,0.0,0.0,0.0,0.0,0.0,0.0,0.0,0.0,0.0,0.0,0.0,0.0,0.0,0.0,0.0,0.0,0.0,0.0,0.0,0.0,0.0,0.0,0.0,0.0,0.0,0.0,0.0,0.0,0.0,0.0,0.0,0.0,0.0,0.0,0.0,0.0,0.0,0.0,0.0,0.0,0.0,0.0,0.0,0.0,0.0,0.0,0.0,0.0,0.0,0.0,0.0,0.0,0.0,0.0,0.0,0.0,0.0,0.0,0.0,0.0,0.0,0.0,0.0,0.0,0.0,0.0,0.0,0.0,0.0,0.0,0.0,0.0,0.0,0.0,0.0,0.0,0.0,0.0,0.0,0.0,0.0,0.0,0.0,-2.7614,-2.7067,-2.6866,-2.6958,-2.7739,-2.8452,-2.8966,0.0,0.0,0.0,0.0,0.0,0.0,0.0,0.0,0.0,0.0,0.0,0.0,0.0,0.0,0.0,0.0,0.0,0.0,0.0,0.0,0.0,0.0,0.0,0.0,0.0,0.0,0.0,0.0,0.0,0.0,0.0,0.0,0.0,0.0,0.0,0.0,0.0,0.0,0.0,0.0,0.0,0.0,0.0,0.0,0.0,0.0,0.0,0.0,0.0,0.0,0.0,0.0,0.0,0.0,0.0,0.0,0.0,0.0,0.0,0.0,0.0,0.0,0.0,0.0,0.0,0.0,0.0,0.0,0.0,0.0,0.0,0.0,0.0,0.0,0.0,0.0,0.0,0.0,0.0,0.0,0.0,0.0,0.0,0.0,0.0,0.0,0.0,0.0,0.0,0.0,0.0,0.0,0.0,0.0,0.0,0.0,0.0,0.0,0.0,0.0,0.0,0.0,0.0,0.0,0.0,0.0,0.0,0.0,-2.8691,-2.7846,-2.7493,-2.7678,-2.9661,-3.0684,0.0,0.0,0.0,0.0,0.0,0.0,0.0,0.0,0.0,0.0,0.0,0.0,0.0,0.0,0.0,0.0,0.0,0.0,0.0,0.0,0.0,0.0,0.0,0.0,0.0,0.0,0.0,0.0,0.0,0.0,0.0,0.0,0.0,0.0,0.0,0.0,0.0,0.0,0.0,0.0,0.0,0.0,0.0,0.0,0.0,0.0,0.0,0.0,0.0,0.0,0.0,0.0,0.0,0.0,0.0,0.0,0.0,0.0,0.0,0.0,0.0,0.0,0.0,0.0,0.0,0.0,0.0,0.0,0.0,0.0,0.0,0.0,0.0,0.0,0.0,0.0,0.0,0.0,0.0,0.0,0.0,0.0,0.0,0.0,0.0,0.0,0.0,0.0,0.0,0.0,0.0,0.0,0.0,0.0,0.0,0.0,0.0,0.0,0.0,0.0,0.0,0.0,0.0,0.0,0.0,0.0,0.0,0.0,0.0,-3.0512,-3.0207,-2.9556,-2.8501,-2.9481,-3.0352,0.0,0.0,0.0,0.0,0.0,0.0,0.0,0.0,0.0,0.0,0.0,0.0,0.0,0.0,0.0,0.0,0.0,0.0,0.0,0.0,0.0,0.0,0.0,0.0,0.0,0.0,0.0,0.0,0.0,0.0,0.0,0.0,0.0,0.0,0.0,0.0,0.0,0.0,0.0,0.0,0.0,0.0,0.0,0.0,0.0,0.0,0.0,0.0,0.0,0.0,0.0,0.0,0.0,0.0,0.0,0.0,0.0,0.0,0.0,0.0,0.0,0.0,0.0,0.0,0.0,0.0,0.0,0.0,0.0,0.0,0.0,0.0,0.0,0.0,0.0,0.0,0.0,0.0,0.0,0.0,0.0,0.0,0.0,0.0,0.0,0.0,0.0,0.0,0.0,0.0,0.0,0.0,0.0,0.0,0.0,0.0,0.0,0.0,0.0,0.0,0.0,0.0,0.0,0.0,0.0,0.0,0.0,0.0,-3.1225,-3.053,-3.136,-3.1337,-3.0381,-3.1052,-3.1721,0.0,0.0,0.0,0.0,0.0,0.0,0.0,0.0,0.0,0.0,0.0,0.0,0.0,0.0,0.0,0.0,0.0,0.0,0.0,0.0,0.0,0.0,0.0,0.0,0.0,0.0,0.0,0.0,0.0,0.0,0.0,0.0,0.0,0.0,0.0,0.0,0.0,0.0,0.0,0.0,0.0,0.0,0.0,0.0,0.0,0.0,0.0,0.0,0.0,0.0,0.0,0.0,0.0,0.0,0.0,0.0,0.0,0.0,0.0,0.0,0.0,0.0,0.0,0.0,0.0,0.0,0.0,0.0,0.0,0.0,0.0,0.0,0.0,0.0,0.0,0.0,0.0,0.0,0.0,0.0,0.0,0.0,0.0,0.0,0.0,0.0,0.0,0.0,0.0,0.0,0.0,0.0,0.0,0.0,0.0,0.0,0.0,0.0,0.0,0.0,0.0,0.0,0.0,0.0,0.0,0.0,0.0,0.0,-3.0715,-2.9704,-3.1778,-3.2856,-3.2871,-3.3508,-3.3862,0.0,0.0,0.0,0.0,0.0,0.0,0.0,0.0,0.0,0.0,0.0,0.0,0.0,0.0,0.0,0.0,0.0,0.0,0.0,0.0,0.0,0.0,0.0,0.0,0.0,0.0,0.0,0.0,0.0,0.0,0.0,0.0,0.0,0.0,0.0,0.0,0.0,0.0,0.0,0.0,0.0,0.0,0.0,0.0,0.0,0.0,0.0,0.0,0.0,0.0,0.0,0.0,0.0,0.0,0.0,0.0,0.0,0.0,0.0,0.0,0.0,0.0,0.0,0.0,0.0,0.0,0.0,0.0,0.0,0.0,0.0,0.0,0.0,0.0,0.0,0.0,0.0,0.0,0.0,0.0,0.0,0.0,0.0,0.0,0.0,0.0,0.0,0.0,0.0,0.0,0.0,0.0,0.0,0.0,0.0,0.0,0.0,0.0,0.0,0.0,0.0,0.0,0.0,0.0,0.0,0.0,0.0,0.0,-3.0802,-3.0172,-3.2657,-3.4056,-3.4056,-3.4316,-3.4416,0.0,0.0,0.0,0.0,0.0,0.0,0.0,0.0,0.0,0.0,0.0,0.0,0.0,0.0,0.0,0.0,0.0,0.0,0.0,0.0,0.0,0.0,0.0,0.0,0.0,0.0,0.0,0.0,0.0,0.0,0.0,0.0,0.0,0.0,0.0,0.0,0.0,0.0,0.0,0.0,0.0,0.0,0.0,0.0,0.0,0.0,0.0,0.0,-2.7471,0.0,0.0,0.0,0.0,0.0,0.0,0.0,0.0,0.0,0.0,0.0,0.0,0.0,0.0,0.0,0.0,0.0,0.0,0.0,0.0,0.0,0.0,0.0,0.0,0.0,0.0,0.0,0.0,0.0,0.0,0.0,0.0,0.0,0.0,0.0,0.0,0.0,0.0,0.0,0.0,0.0,0.0,0.0,0.0,0.0,0.0,0.0,0.0,0.0,0.0,0.0,0.0,0.0,0.0,0.0,0.0,0.0,0.0,0.0,-3.123,-3.112,-3.3797,-3.5223,-3.5256,-3.5633,-3.5676,0.0,0.0,0.0,0.0,0.0,0.0,0.0,0.0,0.0,0.0,0.0,0.0,0.0,0.0,0.0,0.0,0.0,0.0,0.0,0.0,0.0,0.0,0.0,0.0,0.0,0.0,0.0,0.0,0.0,0.0,0.0,0.0,0.0,0.0,0.0,0.0,0.0,0.0,0.0,0.0,0.0,0.0,0.0,0.0,0.0,0.0,0.0,0.0,0.0,0.0,0.0,0.0,0.0,0.0,0.0,0.0,0.0,0.0,0.0,0.0,0.0,0.0,0.0,0.0,0.0,0.0,0.0,0.0,0.0,0.0,0.0,0.0,0.0,0.0,0.0,0.0,0.0,0.0,0.0,0.0,0.0,0.0,0.0,0.0,0.0,0.0,0.0,0.0,0.0,0.0,0.0,0.0,0.0,0.0,0.0,0.0,0.0,0.0,0.0,0.0,0.0,0.0,0.0,0.0,0.0,0.0,0.0,-3.1773,-3.1842,-3.2315,-3.4891,-3.6392,-3.6461,-3.7104,-3.718,-3.6651,0.0,0.0,0.0,0.0,0.0,0.0,0.0,0.0,0.0,0.0,0.0,0.0,0.0,0.0,0.0,0.0,0.0,0.0,0.0,0.0,0.0,0.0,0.0,0.0,0.0,0.0,0.0,0.0,0.0,0.0,0.0,0.0,0.0,0.0,0.0,0.0,0.0,0.0,-2.661,-2.6628,0.0,0.0,0.0,0.0,0.0,0.0,0.0,0.0,-2.8572,0.0,0.0,0.0,0.0,0.0,0.0,0.0,0.0,0.0,0.0,0.0,0.0,0.0,0.0,0.0,0.0,0.0,0.0,0.0,0.0,0.0,0.0,0.0,0.0,0.0,0.0,0.0,0.0,0.0,0.0,0.0,0.0,0.0,0.0,0.0,0.0,0.0,0.0,0.0,0.0,0.0,0.0,0.0,0.0,0.0,0.0,0.0,0.0,0.0,0.0,0.0,0.0,0.0,0.0,0.0,0.0,-3.1371,-3.2244,-3.2907,-3.3194,-3.5579,-3.7058,-3.7504,-3.8217,-3.8286,-3.7709,0.0,0.0,0.0,0.0,0.0,0.0,0.0,0.0,0.0,0.0,0.0,0.0,0.0,0.0,0.0,0.0,0.0,0.0,0.0,0.0,0.0,0.0,0.0,0.0,0.0,0.0,0.0,0.0,0.0,0.0,0.0,0.0,0.0,0.0,0.0,0.0,0.0,0.0,0.0,-2.6628,-2.6665,0.0,0.0,0.0,0.0,0.0,0.0,0.0,0.0,-2.9525,0.0,0.0,0.0,0.0,0.0,0.0,0.0,0.0,0.0,0.0,0.0,0.0,0.0,0.0,0.0,0.0,0.0,0.0,0.0,0.0,0.0,0.0,0.0,0.0,0.0,0.0,0.0,0.0,0.0,0.0,0.0,0.0,0.0,0.0,0.0,0.0,0.0,0.0,0.0,0.0,0.0,0.0,0.0,0.0,0.0,0.0,0.0,0.0,0.0,0.0,0.0,0.0,0.0,0.0,0.0,-3.3846,-3.4699,-3.5302,-3.5725,-3.7435,-3.8468,-3.8704,-3.8807,-3.8695,0.0,0.0,0.0,0.0,0.0,0.0,0.0,0.0,0.0,0.0,0.0,0.0,0.0,0.0,0.0,0.0,0.0,0.0,0.0,0.0,0.0,0.0,0.0,0.0,0.0,0.0,0.0,0.0,0.0,0.0,0.0,0.0,0.0,0.0,0.0,0.0,0.0,0.0,0.0,0.0,-2.7122,-2.7287,-2.7557,0.0,0.0,0.0,0.0,0.0,0.0,-2.958,-2.9696,0.0,0.0,0.0,0.0,0.0,0.0,0.0,0.0,0.0,0.0,0.0,0.0,0.0,0.0,0.0,0.0,0.0,0.0,0.0,0.0,0.0,0.0,0.0,0.0,0.0,0.0,0.0,0.0,0.0,0.0,0.0,0.0,0.0,0.0,0.0,0.0,0.0,0.0,0.0,0.0,0.0,0.0,0.0,0.0,0.0,0.0,0.0,0.0,0.0,0.0,0.0,0.0,0.0,0.0,0.0,-3.624,-3.7067,-3.7702,-3.7975,-3.9116,-3.9826,-3.9898,-3.932,-3.8984,0.0,0.0,0.0,0.0,0.0,0.0,0.0,0.0,0.0,0.0,0.0,0.0,0.0,0.0,0.0,0.0,0.0,0.0,0.0,0.0,0.0,0.0,0.0,0.0,0.0,0.0,0.0,0.0,0.0,0.0,0.0,0.0,0.0,0.0,0.0,0.0,0.0,0.0,0.0,0.0,0.0,-2.804,-2.8462,-2.8517,0.0,0.0,0.0,0.0,-2.9604,-2.9696,0.0,0.0,0.0,0.0,0.0,0.0,0.0,0.0,0.0,0.0,0.0,0.0,0.0,0.0,0.0,0.0,0.0,0.0,0.0,0.0,0.0,0.0,0.0,0.0,0.0,0.0,0.0,0.0,0.0,0.0,0.0,0.0,0.0,0.0,0.0,0.0,0.0,0.0,0.0,0.0,0.0,0.0,0.0,0.0,0.0,0.0,0.0,0.0,0.0,0.0,0.0,0.0,0.0,0.0,0.0,0.0,-3.6286,-3.78,-3.8611,-3.8597,-3.9718,-4.0523,-4.098,-4.0042,-3.9513,0.0,0.0,0.0,0.0,0.0,0.0,0.0,0.0,0.0,0.0,0.0,0.0,0.0,0.0,0.0,0.0,0.0,0.0,0.0,0.0,0.0,0.0,0.0,0.0,0.0,0.0,0.0,0.0,0.0,0.0,0.0,0.0,0.0,0.0,0.0,0.0,0.0,0.0,0.0,0.0,0.0,-2.8462,-2.8865,-2.892,-2.8938,0.0,0.0,-2.9947,-2.9678,-2.9874,0.0,0.0,0.0,0.0,0.0,0.0,0.0,0.0,0.0,0.0,0.0,0.0,0.0,0.0,0.0,0.0,0.0,0.0,0.0,0.0,0.0,0.0,0.0,0.0,0.0,0.0,0.0,0.0,0.0,0.0,0.0,0.0,0.0,0.0,0.0,0.0,0.0,0.0,0.0,0.0,0.0,0.0,0.0,0.0,0.0,0.0,0.0,0.0,0.0,0.0,0.0,0.0,0.0,0.0,0.0,-3.809,-3.8178,-3.9451,-4.0153,-4.0101,-4.0607,-4.0956,-4.1172,-4.0162,-3.9609,0.0,0.0,0.0,0.0,0.0,0.0,0.0,0.0,0.0,0.0,0.0,0.0,0.0,0.0,0.0,0.0,0.0,0.0,0.0,0.0,0.0,0.0,0.0,0.0,0.0,0.0,0.0,0.0,0.0,0.0,0.0,0.0,0.0,0.0,0.0,0.0,0.0,0.0,0.0,0.0,0.0,0.0,-2.9605,-2.9646,0.0,0.0,0.0,-2.9709,-2.9305,0.0,0.0,0.0,0.0,0.0,0.0,0.0,0.0,0.0,0.0,0.0,0.0,0.0,0.0,0.0,0.0,0.0,0.0,0.0,0.0,0.0,0.0,0.0,0.0,0.0,0.0,0.0,0.0,0.0,0.0,0.0,0.0,0.0,0.0,0.0,0.0,0.0,0.0,0.0,0.0,0.0,0.0,0.0,0.0,0.0,0.0,0.0,0.0,0.0,0.0,0.0,0.0,0.0,0.0,0.0,0.0,0.0,-3.9609,-4.0643,-4.1196,-4.1196,-4.1196,-4.1196,-4.1172,-4.0282,0.0,0.0,0.0,0.0,0.0,0.0,0.0,0.0,0.0,0.0,0.0,0.0,0.0,0.0,0.0,0.0,0.0,0.0,0.0,0.0,0.0,0.0,0.0,0.0,0.0,0.0,0.0,-3.3531,0.0,0.0,0.0,0.0,0.0,0.0,0.0,0.0,0.0,0.0,0.0,0.0,0.0,0.0,-3.0218,-3.0023,-3.0131,-3.0167,0.0,0.0,-2.9494,-2.9168,-2.9504,-2.9735,0.0,0.0,0.0,0.0,0.0,0.0,0.0,0.0,0.0,0.0,0.0,0.0,0.0,0.0,0.0,0.0,0.0,0.0,0.0,0.0,0.0,0.0,0.0,0.0,0.0,0.0,0.0,0.0,0.0,0.0,0.0,0.0,0.0,0.0,0.0,0.0,0.0,0.0,0.0,0.0,0.0,0.0,0.0,0.0,0.0,0.0,0.0,0.0,0.0,0.0,0.0,0.0,0.0,0.0,-3.9561,-3.9633,-4.0643,-4.1196,-4.1196,-4.1196,-4.1196,-4.1172,-4.0619,-4.0114,0.0,0.0,0.0,0.0,0.0,0.0,0.0,0.0,0.0,0.0,0.0,0.0,0.0,0.0,0.0,0.0,0.0,0.0,0.0,0.0,0.0,0.0,0.0,0.0,0.0,0.0,0.0,0.0,0.0,0.0,0.0,0.0,0.0,0.0,0.0,0.0,0.0,0.0,0.0,0.0,0.0,-3.1573,-2.986,-2.9929,-3.0057,0.0,-2.9599,-2.9554,-2.9446,-2.9804,-3.0114,-3.0273,0.0,0.0,0.0,0.0,0.0,0.0,0.0,0.0,0.0,0.0,0.0,0.0,0.0,0.0,0.0,0.0,0.0,0.0,0.0,0.0,0.0,0.0,0.0,0.0,0.0,0.0,0.0,0.0,0.0,0.0,0.0,0.0,0.0,0.0,0.0,0.0,0.0,0.0,0.0,0.0,0.0,0.0,0.0,0.0,0.0,0.0,0.0,0.0,0.0,0.0,0.0,0.0,0.0,-3.9609,-3.9609,-4.0643,-4.1196,-4.1196,-4.1196,-4.1196,-4.1196,-4.0667,-4.0138,0.0,0.0,0.0,0.0,0.0,0.0,0.0,0.0,0.0,0.0,0.0,0.0,0.0,0.0,0.0,0.0,0.0,0.0,0.0,0.0,0.0,0.0,0.0,0.0,0.0,0.0,0.0,0.0,-3.6133,-3.6174,-3.5975,0.0,0.0,0.0,0.0,0.0,0.0,0.0,0.0,0.0,0.0,-3.0592,-3.0297,-3.0217,0.0,0.0,-3.0254,-3.0227,-3.0197,-3.054,-3.0732,-3.0555,-3.0888,0.0,0.0,0.0,0.0,0.0,0.0,0.0,0.0,0.0,0.0,0.0,0.0,0.0,0.0,0.0,0.0,0.0,0.0,0.0,0.0,0.0,0.0,0.0,0.0,0.0,0.0,0.0,0.0,0.0,0.0,0.0,0.0,0.0,0.0,0.0,0.0,0.0,0.0,0.0,0.0,0.0,0.0,0.0,0.0,0.0,0.0,0.0,0.0,0.0,0.0,0.0,0.0,-3.9609,-3.9609,-4.0643,-4.1196,-4.1196,-4.1341,-4.1413,-4.1413,-4.122,-4.086,0.0,0.0,0.0,0.0,0.0,0.0,0.0,0.0,0.0,0.0,0.0,0.0,0.0,0.0,0.0,0.0,0.0,0.0,0.0,0.0,0.0,0.0,0.0,0.0,0.0,0.0,0.0,0.0,-3.7115,-3.7233,-3.6968,0.0,0.0,0.0,0.0,0.0,0.0,0.0,0.0,0.0,0.0,-3.0694,-3.0986,-3.1016,-3.118,-3.1457,-3.1353,-3.1232,-3.1285,-3.1312,-3.1298,-3.1248,0.0,0.0,0.0,0.0,0.0,0.0,0.0,0.0,0.0,0.0,0.0,0.0,0.0,0.0,0.0,0.0,0.0,0.0,0.0,0.0,0.0,0.0,0.0,0.0,0.0,0.0,0.0,-3.6358,0.0,0.0,-3.5955,0.0,0.0,0.0,0.0,0.0,0.0,0.0,0.0,0.0,0.0,0.0,0.0,0.0,0.0,0.0,0.0,0.0,0.0,0.0,0.0,0.0,0.0,-3.9609,-3.9633,-4.0691,-4.1196,-4.122,-4.176,-4.1966,-4.1966,-4.2482,-4.2506,-4.1976,0.0,0.0,0.0,0.0,0.0,0.0,0.0,0.0,0.0,0.0,0.0,0.0,0.0,0.0,0.0,0.0,0.0,0.0,0.0,0.0,0.0,0.0,0.0,0.0,0.0,0.0,-3.6169,-3.7006,-3.7762,0.0,0.0,0.0,0.0,0.0,0.0,0.0,0.0,0.0,-3.2252,-3.2455,-3.2615,-3.192,-3.2455,-3.2991,-3.3344,-3.2789,-3.2431,-3.2725,-3.2176,-3.1938,0.0,0.0,0.0,0.0,0.0,0.0,0.0,0.0,0.0,0.0,0.0,0.0,0.0,0.0,0.0,0.0,0.0,0.0,0.0,0.0,0.0,0.0,0.0,0.0,0.0,0.0,0.0,-3.6958,-3.691,0.0,0.0,0.0,0.0,0.0,0.0,0.0,0.0,0.0,0.0,0.0,-3.7469,-3.8022,0.0,0.0,0.0,0.0,0.0,0.0,0.0,0.0,0.0,0.0,0.0,0.0,-3.9946,-4.0643,-4.1341,-4.187,-4.2265,-4.2458,-4.2554,-4.2554,-4.2723,-4.2747,-4.2554,0.0,0.0,0.0,0.0,0.0,0.0,0.0,0.0,0.0,0.0,0.0,0.0,0.0,0.0,0.0,0.0,0.0,0.0,0.0,0.0,0.0,0.0,0.0,0.0,0.0,-3.8054,0.0,0.0,0.0,0.0,0.0,0.0,0.0,0.0,0.0,0.0,0.0,-3.5815,-3.5424,-3.4159,-3.3351,-3.3302,-3.3148,-3.3215,0.0,0.0,0.0,0.0,0.0,0.0,0.0,0.0,0.0,0.0,0.0,0.0,0.0,0.0,-3.248,-3.2207,-3.2168,-3.2148,-3.2148,0.0,0.0,0.0,0.0,0.0,0.0,0.0,0.0,0.0,0.0,0.0,0.0,0.0,0.0,-3.7362,0.0,-3.7387,0.0,0.0,0.0,0.0,0.0,0.0,0.0,0.0,-3.793,-3.8383,-3.8575,-3.9104,-3.9369,0.0,-3.9537,-3.9248,0.0,0.0,0.0,0.0,0.0,0.0,0.0,0.0,-4.0499,-4.1172,-4.1894,-4.2482,-4.2819,-4.2988,-4.3024,-4.3024,-4.3216,-4.3313,-4.3313,-4.2784,-4.2351,0.0,0.0,0.0,0.0,0.0,0.0,0.0,0.0,0.0,0.0,0.0,0.0,0.0,0.0,0.0,0.0,0.0,0.0,0.0,0.0,0.0,0.0,0.0,-3.8888,0.0,0.0,0.0,0.0,0.0,0.0,0.0,0.0,0.0,-3.806,-3.6966,-3.6286,-3.6299,-3.528,-3.4583,-3.5114,0.0,0.0,0.0,0.0,0.0,0.0,0.0,-3.4269,-3.415,-3.4127,-3.4141,-3.4277,-3.418,-3.4023,-3.3867,0.0,0.0,-3.3086,-3.3008,-3.3027,-3.3008,-3.2793,-3.2598,-3.2598,-3.2598,-3.2598,0.0,0.0,0.0,0.0,0.0,0.0,0.0,0.0,-3.804,-3.7764,0.0,-3.7864,0.0,0.0,0.0,0.0,-3.8386,-3.8387,0.0,0.0,-3.9744,-4.0114,-3.9705,-4.0162,-4.0403,-4.0379,-3.9946,-3.9705,-3.9705,-3.9705,0.0,0.0,0.0,0.0,0.0,0.0,-4.1196,-4.1317,-4.2279,-4.2843,-4.2891,-4.3289,-4.3529,-4.3553,-4.3997,-4.4261,-4.4261,-4.3794,-4.3505,-4.3481,-4.2567,0.0,0.0,0.0,0.0,0.0,0.0,0.0,0.0,0.0,0.0,0.0,0.0,0.0,0.0,0.0,0.0,0.0,0.0,0.0,0.0,-3.8839,0.0,0.0,0.0,0.0,0.0,0.0,0.0,0.0,0.0,0.0,-3.7002,-3.6711,-3.6207,-3.5257,0.0,0.0,0.0,0.0,-3.9244,-3.9515,-3.8881,-3.8399,-3.8364,-3.7076,-3.6204,-3.6575,0.0,0.0,-3.4766,-3.4355,-3.3965,-3.3555,-3.3828,-3.3965,-3.3555,-3.3457,-3.3437,-3.3457,-3.3398,-3.3398,-3.3398,-3.334,-3.3359,-3.9254,0.0,0.0,0.0,0.0,-3.8032,-3.809,-3.8617,-3.8617,-3.8793,-3.8994,-3.9145,0.0,0.0,0.0,0.0,0.0,0.0,-3.9253,-3.9285,-4.0074,-4.0499,-4.0739,-4.0884,-4.0956,-4.098,-4.1196,-4.1293,-4.1317,-4.1677,-4.11,-3.9633,0.0,0.0,0.0,0.0,-4.1725,-4.2808,-4.3144,-4.3481,-4.389,-4.4034,-4.4045,-4.4045,-4.4213,-4.4285,-4.4285,-4.4141,-4.3914,-4.3529,-4.3241,0.0,0.0,0.0,0.0,0.0,0.0,0.0,0.0,0.0,0.0,0.0,0.0,0.0,0.0,0.0,0.0,0.0,0.0,0.0,-3.8761,-3.9244,-3.9292,0.0,0.0,0.0,0.0,0.0,0.0,0.0,0.0,0.0,-3.9884,-3.8995,-3.8489,0.0,0.0,-3.8667,-3.8863,-3.9058,-3.9357,-3.9766,-3.9205,0.0,-3.9157,-3.8575,-3.7761,-3.6893,-3.5701,-3.4844,-3.4726,-3.459,-3.4473,-3.4336,-3.4434,-3.4473,-3.4355,-3.4082,-3.3906,-3.3867,-3.3633,-3.3418,-3.3418,-3.3418,-3.3418,-3.9822,-3.9537,-3.9436,-3.9336,-3.9131,-3.859,-3.8793,-3.9521,-3.9521,-3.9722,-4.0049,-4.0249,-4.0099,-3.9697,-3.9923,0.0,0.0,0.0,-4.0312,-4.0403,-4.0604,-4.0884,-4.1196,-4.1389,-4.1485,-4.1567,-4.2097,-4.2573,-4.2993,-4.2888,-4.2696,-4.2301,0.0,0.0,-4.2561,-4.3243,-4.4103,-4.4992,-4.5241,-4.5455,-4.5803,-4.5803,-4.5586,-4.5123,-4.5525,-4.5586,-4.5098,-4.5525,-4.5413,-4.4609,-4.4388,-4.3757,0.0,0.0,0.0,0.0,0.0,0.0,0.0,0.0,0.0,0.0,0.0,-4.0114,-3.9513,0.0,0.0,0.0,-3.9753,-3.9753,-3.9753,-3.997,0.0,0.0,0.0,0.0,0.0,0.0,0.0,-4.0258,-4.0787,-4.1268,-4.1461,-4.0736,-4.0416,-4.098,-4.0932,-4.0787,-4.0571,0.0,-4.0961,-4.1018,-4.073,-4.0539,-4.0773,-3.9855,-3.8529,-3.6738,-3.5792,-3.5156,-3.5,-3.4961,-3.4922,-3.4766,-3.4844,-3.4922,-3.4726,-3.4629,-3.4531,-3.4355,-3.4121,-3.3945,-3.3926,-3.3926,-3.3926,-3.9798,-3.9825,-3.9638,-3.9362,-3.9045,-3.9044,-3.9647,-4.0576,-4.0576,-4.0601,-4.0701,-4.1178,-4.0852,-3.9998,-4.0475,0.0,-4.1767,-4.146,-4.145,-4.1655,-4.1393,-4.1268,-4.1317,-4.1798,-4.2097,-4.2097,-4.2567,-4.3497,-4.4535,-4.3605,-4.4227,-4.6447,-4.5514,-4.4857,-4.4832,-4.6352,-4.7236,-4.7288,-4.7754,-4.8041,-4.8094,-4.8094,-4.7567,-4.6405,-4.7508,-4.7567,-4.6465,-4.7449,-4.7508,-4.626,-4.5748,-4.4853,-4.3542,0.0,0.0,0.0,0.0,0.0,0.0,0.0,0.0,0.0,0.0,0.0,0.0,0.0,0.0,0.0,-4.1196,0.0,-4.1244,-4.0836,0.0,0.0,0.0,-4.0763,-4.1196,-4.1317,-4.1365,-4.1317,0.0,0.0,-4.2038,-4.2086,-4.211,-4.2158,-4.2495,-4.2651,-4.2169,-4.2832,-4.3337,-4.2796,-4.2856,-4.2904,-4.2747,-4.1142,-3.9153,-3.7299,-3.6384,-3.6234,-3.6023,-3.5705,-3.5481,-3.5185,-3.5289,-3.5332,-3.4883,-3.5176,-3.5312,-3.4902,-3.4726,-3.4668,-3.4629,-3.4629,-3.4609,-4.0576,-4.0927,-4.0862,-4.0585,-4.0149,-4.0576,-4.0849,-4.11,-4.1153,-4.1379,-4.1781,-4.1961,-4.2112,-4.2208,-4.2333,-4.2368,-4.2258,-4.2002,-4.2013,-4.2214,-4.1948,-4.2049,-4.2375,-4.2578,-4.2627,-4.2675,-4.3096,-4.3975,-4.5221,-4.5326,-4.5893,-4.6908,-4.7619,-4.7295,-4.6056,-4.6413,-4.6787,-4.7148,-4.7278,-4.7565,-4.8068,-4.8094,-4.7977,-4.7684,-4.7919,-4.7977,-4.7684,-4.7919,-4.7508,-4.626,-4.61,-4.5225,-4.359,-4.2904,0.0,0.0,0.0,0.0,0.0,0.0,0.0,0.0,0.0,-4.1268,-4.0451,0.0,-4.0884,0.0,-4.1317,-4.1774,-4.1774,-4.2014,0.0,0.0,-4.1798,-4.2145,-4.1822,-4.2471,-4.2808,-4.2482,-4.2711,-4.3,-4.312,-4.3144,-4.3313,-4.3697,-4.3192,-4.2771,-4.2675,-4.3096,-4.3481,-4.3409,-4.3673,-4.3962,-4.3754,-4.2669,-4.1347,-4.0882,-3.9585,-3.8764,-3.9064,-3.7937,-3.7049,-3.7253,-3.6502,-3.5936,-3.5723,-3.5801,-3.584,-3.5684,-3.5176,-3.4687,-3.4687,-3.4707,-3.4707,-4.1025,-4.13,-4.158,-4.153,-4.1254,-4.1329,-4.148,-4.1706,-4.1706,-4.2007,-4.259,-4.259,-4.274,-4.2986,-4.3237,-4.3281,-4.308,-4.3044,-4.3086,-4.3183,-4.2715,-4.2708,-4.2998,-4.3036,-4.3096,-4.312,-4.3625,-4.4814,-4.6542,-4.6314,-4.721,-4.9133,-4.9301,-4.9086,-4.8407,-4.8136,-4.8163,-4.8406,-4.8676,-4.9108,-4.9732,-4.9759,-4.9341,-4.8562,-4.9099,-4.8964,-4.8133,-4.8106,-4.7823,-4.708,-4.6035,-4.5051,-4.3983,-4.2961,-4.2279,0.0,0.0,0.0,0.0,0.0,0.0,0.0,0.0,0.0,0.0,0.0,-4.1774,-4.1485,-4.2182,-4.2567,-4.2351,-4.2651,-4.2615,-4.2254,-4.2735,-4.3072,-4.3024,-4.3529,-4.377,-4.3505,-4.3697,-4.389,-4.3829,-4.3866,-4.3925,-4.4237,-4.3842,-4.3481,-4.3481,-4.3721,-4.389,-4.389,-4.4093,-4.4037,-4.3514,-4.2799,-4.2171,-4.1711,-4.0886,-4.0149,-3.9923,-3.9105,-3.8285,-3.7874,-3.7272,-3.6797,-3.6641,-3.6758,-3.6816,-3.6582,-3.6211,-3.5762,-3.5371,-3.5137,-3.5,-4.1426,-4.158,-4.2057,-4.2313,-4.2288,-4.1831,-4.1907,-4.2313,-4.2313,-4.2615,-4.3087,-4.3162,-4.3187,-4.3212,-4.3689,-4.3915,-4.394,-4.4095,-4.4227,-4.4243,-4.3605,-4.3333,-4.343,-4.3687,-4.3844,-4.3869,-4.4475,-4.6045,-4.8268,-4.7213,-4.839,-5.1511,-5.0546,-5.0244,-5.0747,-5.0294,-5.0013,-5.0013,-5.0632,-5.114,-5.1674,-5.159,-5.0764,-4.931,-5.0182,-4.9985,-4.8463,-4.8436,-4.83,-4.8029,-4.6117,-4.4915,-4.4611,-4.3149,-4.2286,0.0,-4.1677,0.0,0.0,0.0,0.0,0.0,0.0,0.0,0.0,-4.2819,-4.2843,-4.2856,-4.3265,-4.3361,-4.306,-4.3036,-4.3144,-4.3553,-4.3601,-4.3818,-4.4213,-4.4285,-4.4285,-4.4285,-4.4285,-4.4285,-4.4261,-4.4285,-4.4285,-4.4285,-4.4237,-4.4189,-4.4261,-4.4237,-4.4237,-4.4285,-4.4285,-4.3998,-4.3168,-4.2789,-4.2568,-4.1877,-4.1836,-4.1286,-4.0507,-4.0114,-3.9399,-3.8217,-3.7928,-3.7832,-3.7519,-3.7754,-3.7851,-3.7519,-3.7422,-3.7129,-3.6387,-3.5937,-3.5644,-4.2258,-4.266,-4.2785,-4.2836,-4.2836,-4.3187,-4.3137,-4.2891,-4.2811,-4.3137,-4.3664,-4.4116,-4.4317,-4.4317,-4.4418,-4.4468,-4.441,-4.4245,-4.4426,-4.4848,-4.4143,-4.4087,-4.4524,-4.5303,-4.5689,-4.5775,-4.6807,-4.8152,-4.9562,-4.9335,-4.9852,-5.1056,-5.0813,-5.0505,-5.0157,0.0,0.0,0.0,-5.0632,-5.0944,-5.1028,-5.0604,-5.0188,-4.9864,-5.0023,0.0,-4.9668,-4.9668,-4.9162,-4.8138,-4.7701,0.0,0.0,0.0,0.0,0.0,0.0,0.0,0.0,0.0,0.0,0.0,-4.2675,-4.2723,-4.2819,-4.2819,-4.2928,-4.3337,-4.3457,-4.3649,-4.3949,-4.4058,-4.4021,-4.4117,-4.4117,-4.4165,-4.4285,-4.4285,-4.4285,-4.4285,-4.4285,-4.4285,-4.4285,-4.4285,-4.4285,-4.4285,-4.4285,-4.4285,-4.4285,-4.4285,-4.4285,-4.4285,-4.4333,-4.4415,-4.4547,-4.4531,-4.4507,-4.4829,-4.4971,-4.4487,-4.3511,-4.2338,-4.1391,-4.0144,-3.9226,-3.8437,-3.832,-3.8398,-3.8398,-3.834,-3.832,-3.8066,-3.7246,-3.6992,-3.6934,-4.3263,-4.2986,-4.3263,-4.3388,0.0,-4.3966,-4.4041,-4.379,-4.379,-4.394,-4.4217,-4.4518,-4.4618,-4.4644,-4.492,-4.5045,-4.507,-4.4992,-4.5147,-4.5335,-4.4707,-4.4573,-4.4779,-4.5123,-4.5561,-4.6225,-4.6858,-4.8068,-4.9845,-4.9901,-5.0408,-5.1309,-5.1337,-5.1169,-5.0859,-5.0913,-5.0772,-5.0463,-5.0772,-5.1028,-5.1281,-5.1028,-5.0772,-5.0463,-5.0463,0.0,0.0,0.0,0.0,0.0,0.0,0.0,0.0,-4.5009,0.0,-4.3216,-4.2964,-4.294,-4.312,-4.312,-4.3241,-4.3529,-4.3553,-4.3433,-4.3144,-4.3385,-4.3649,-4.389,-4.3938,-4.3973,-4.4261,-4.4285,-4.4285,-4.4285,-4.4285,-4.4285,-4.4285,-4.4285,-4.4285,-4.4285,-4.4285,-4.4285,-4.4285,-4.4285,-4.4285,-4.4285,-4.4285,-4.4309,-4.4285,-4.4285,-4.4357,-4.4621,-4.4669,-4.4861,-4.5342,-4.5525,-4.5694,-4.611,-4.5711,-4.489,-4.3894,-4.2544,-4.1165,-3.9993,-3.9063,-3.8574,-3.8574,-3.8574,-3.8574,-3.8574,-3.8574,-3.8457,-3.7988,-3.7773,-3.7598,-4.4416,-4.3751,-4.3885,-4.4055,-4.4308,-4.4601,-4.4819,-4.492,0.0,0.0,0.0,-4.4869,-4.492,-4.4945,-4.5422,-4.5623,-4.5673,-4.5799,-4.5878,-4.5878,-4.5208,-4.5025,-4.5184,-4.5061,-4.5646,-4.6798,-4.7069,-4.8242,-5.0154,-5.021,-5.074,-5.1732,-5.1787,-5.1787,-5.1787,-5.1787,-5.1534,-5.1056,-5.0944,-5.1112,-5.159,-5.1506,-5.1225,-5.0772,-5.0772,-5.0519,-5.0041,-4.9055,-4.9002,-4.9908,-4.8165,-4.7036,-4.6863,-4.5705,-4.4544,-4.3479,-4.3204,-4.3216,-4.3625,-4.3649,-4.3866,-4.4261,-4.4285,-4.4093,-4.3697,-4.4021,-4.4285,-4.4285,-4.4285,-4.4285,-4.4285,-4.4285,-4.4285,-4.4285,-4.4285,-4.4285,-4.4285,-4.4285,-4.4285,-4.4285,-4.4285,-4.4285,-4.4285,-4.4285,-4.4285,-4.4309,-4.4405,-4.4477,-4.4525,-4.4549,-4.4645,-4.5101,-4.5221,-4.5477,-4.591,-4.6054,-4.6271,-4.6686,-4.5903,-4.4594,-4.3269,-4.1982,-4.0586,-3.8991,-3.8647,-3.8574,-3.8574,-3.8574,-3.8574,-3.8574,-3.8574,-3.8574,-3.8555,-3.8301,-3.8047,-4.5894,-4.6598,-4.5099,-4.5126,-4.5979,-4.5563,-4.5623,-4.6024,-4.5573,-4.5372,-4.5397,-4.5874,-4.6075,-4.6075,-4.615,-4.62,-4.62,-4.6215,-4.624,-4.6205,-4.5514,-4.5793,-4.6849,-4.7331,-4.8184,-4.9392,-5.0434,-5.121,-5.1485,-5.1485,-5.1677,-5.1787,-5.1787,-5.1787,-5.1787,-5.1787,-5.1731,-5.1646,-5.114,-5.0916,-5.0972,-5.0547,-5.0238,-5.0154,-5.0182,-5.0097,-5.0013,-4.9855,-4.9855,-4.996,-4.9668,-4.9223,-4.8649,-4.7415,-4.6443,-4.571,-4.4695,-4.4093,-4.4165,-4.4165,-4.4213,-4.4285,-4.4285,-4.4237,-4.4189,-4.4237,-4.4285,-4.4285,-4.4285,-4.4285,-4.4285,-4.4285,-4.4285,-4.4285,-4.4285,-4.4285,-4.4285,-4.4285,-4.4285,-4.4285,-4.4285,-4.4309,-4.4333,-4.4333,-4.4357,-4.4381,-4.4741,-4.5125,-4.5477,-4.5309,-4.5221,-4.5669,-4.5814,-4.6054,-4.6487,-4.6607,-4.68,-4.7305,-4.7064,-4.5815,-4.3404,-4.2613,-4.1418,-3.9063,-3.8647,-3.8574,-3.8574,-3.8574,-3.8574,-3.8574,-3.8594,-3.8613,-3.8633,-3.8555,-3.8496,-4.7593,-4.7731,-4.7277,-4.6952,-4.6834,-4.6205,-4.6075,-4.6276,-4.605,-4.5924,-4.5949,-4.62,-4.6326,-4.6326,-4.6326,-4.6326,-4.6326,-4.612,-4.5999,-4.5999,-4.5331,-4.5671,-4.6824,-4.7061,-4.8068,-4.9845,-5.0489,-5.1155,-5.1732,-5.1787,-5.1787,-5.1787,-5.1787,-5.1787,-5.1787,-5.1787,-5.1787,-5.1787,-5.1506,-5.1365,-5.1365,-5.1084,-5.0944,-5.0944,-5.0944,-5.0944,-5.0944,-5.0944,-5.0972,-5.0944,-5.0972,-5.0515,-4.955,-4.8932,-4.7896,-4.632,-4.5646,-4.5061,-4.4347,-4.4285,-4.4285,-4.4285,-4.4285,-4.4285,-4.4285,-4.4285,-4.4285,-4.4285,-4.4285,-4.4285,-4.4285,-4.4285,-4.4285,-4.4285,-4.4285,-4.4285,-4.4285,-4.4285,-4.4285,-4.4285,-4.4285,-4.4405,-4.4669,-4.4717,-4.4837,-4.5077,-4.5453,-4.5766,-4.6271,-4.615,-4.6054,-4.6295,-4.6343,-4.6583,-4.7016,-4.7136,-4.7257,-4.7473,-4.6808,-4.5481,-4.3379,-4.2473,-4.1013,-3.9136,-3.8574,-3.8574,-3.8594,-3.8574,-3.8574,-3.8594,-3.8789,-3.8887,-3.8926,-3.9101,-3.9121,-4.9361,-4.9302,-4.9255,-4.8608,-4.7466,-4.6908,-4.6516,-4.6301,-4.6301,-4.6326,-4.6326,-4.6326,-4.6326,-4.6326,-4.6326,-4.6326,-4.6266,-4.5999,-4.6059,-4.618,-4.5671,-4.619,-4.739,-4.7272,-4.8242,-5.0154,-5.0322,-5.0851,-5.1732,-5.1787,-5.1787,-5.1787,-5.1787,-5.1787,-5.1787,-5.1787,-5.1787,-5.1787,-5.1787,-5.1787,-5.1787,-5.1787,-5.1787,-5.1787,-5.1787,-5.1787,-5.1787,-5.1787,-5.1787,-5.1787,-5.1787,-5.132,-5.0378,-5.0041,-4.9049,-4.7247,-4.65,-4.5646,-4.447,-4.4285,-4.4285,-4.4285,-4.4285,-4.4285,-4.4285,-4.4285,-4.4285,-4.4285,-4.4285,-4.4285,-4.4285,-4.4285,-4.4285,-4.4285,-4.4405,-4.4501,-4.4477,-4.4549,-4.4645,-4.4645,-4.4645,-4.4837,-4.5125,-4.5245,-4.5501,-4.5958,-4.6102,-4.6319,-4.6752,-4.6896,-4.6896,-4.6896,-4.6896,-4.7016,-4.7425,-4.7473,-4.7473,-4.7497,-4.6674,-4.5278,-4.3587,-4.1982,-4.0586,-3.9208,-3.8574,-3.8652,-3.8691,-3.873,-3.8789,-3.8926,-3.918,-3.9355,-3.9375,-3.959,-3.9687,-5.1222,-5.1919,-5.0519,-4.914,-4.8105,-4.7951,-4.7298,-4.6421,-4.6301,-4.6326,-4.6326,-4.6326,-4.6326,-4.6326,-4.6326,-4.6326,-4.6326,-4.624,-4.6661,-4.7383,-4.739,-4.83,-4.9759,-4.9928,-5.0573,-5.1485,-5.154,-5.1595,-5.1787,-5.1787,-5.1787,-5.1787,-5.1787,-5.1787,-5.1787,-5.1787,-5.1787,-5.1787,-5.1787,-5.1787,-5.1787,-5.1787,-5.1787,-5.1787,-5.1787,-5.1787,-5.1787,-5.1787,-5.1787,-5.1787,-5.1787,-5.1732,-5.1485,-5.0545,-4.9788,-4.9448,-4.7424,-4.5646,-4.447,-4.4285,-4.4285,-4.4285,-4.4309,-4.4309,-4.4309,-4.4309,-4.4309,-4.4333,-4.4333,-4.4333,-4.4285,-4.4333,-4.4405,-4.4453,-4.4765,-4.5005,-4.5053,-4.5438,-4.5726,-4.5702,-4.5645,-4.579,-4.5838,-4.5886,-4.6102,-4.6559,-4.6631,-4.68,-4.7233,-4.7329,-4.7353,-4.7377,-4.7401,-4.7401,-4.7497,-4.7497,-4.7497,-4.7497,-4.7364,-4.5887,-4.3794,-4.2683,-4.1933,-3.9327,-3.8633,-3.875,-3.9043,-3.916,-3.9297,-3.9512,-3.9707,-3.9824,-3.9844,-3.9941,-3.9902,-5.2358,-5.3048,-5.2348,-5.1375,-5.0099,-4.8705,-4.7802,-4.7324,-4.6576,-4.6326,-4.6326,-4.6326,-4.6326,-4.6326,-4.6326,-4.6326,-4.6326,-4.6326,-4.6481,-4.6934,-4.7331,-4.8326,-4.9559,-5.0181,-5.0878,-5.1732,-5.1787,-5.1787,-5.1787,-5.1787,-5.1787,-5.1787,-5.1787,-5.1787,-5.1787,-5.1787,-5.1787,-5.1787,-5.1787,-5.1787,-5.1787,-5.1787,-5.1787,-5.1787,-5.1787,-5.1787,-5.1787,-5.1787,-5.1787,-5.1787,-5.1787,-5.1787,-5.1787,-5.132,-5.0684,-4.9872,-4.7541,-4.5985,-4.5464,-4.4755,-4.4285,-4.4285,-4.4573,-4.4741,-4.4765,-4.5029,-4.5221,-4.5173,-4.4933,-4.4861,-4.5213,-4.5197,-4.5221,-4.5245,-4.5477,-4.5597,-4.5558,-4.579,-4.5934,-4.5934,-4.5934,-4.6078,-4.6367,-4.6655,-4.692,-4.7161,-4.7161,-4.7281,-4.7473,-4.7497,-4.7497,-4.7497,-4.7497,-4.7497,-4.7497,-4.7497,-4.7497,-4.7364,-4.6741,-4.5278,-4.3747,-4.2123,-4.1025,-3.9307,-3.9019,-3.9121,-3.9551,-3.9609,-3.9707,-3.9961,-4.0195,-4.0332,-4.0605,-4.0644,-4.0644,-5.3094,-5.3471,-5.35,-5.2837,-5.1565,-4.9818,-4.8705,-4.8094,-4.7501,-4.6934,-4.6361,-4.6636,-4.6815,-4.6815,-4.6815,-4.6815,-4.6815,-4.7172,-4.7442,-4.7736,-4.8416,-4.9164,-4.9983,-5.0712,-5.132,-5.1732,-5.1787,-5.1787,-5.1787,-5.1787,-5.1787,-5.1787,-5.1787,-5.1787,-5.1787,-5.1787,-5.1787,-5.1787,-5.1787,-5.1787,-5.1787,-5.1787,-5.1787,-5.1787,-5.1787,-5.1787,-5.1787,-5.1787,-5.1787,-5.1787,-5.1787,-5.1787,-5.1787,-5.1787,-5.1265,-4.9985,-4.8242,-4.7112,-4.6967,-4.5747,-4.5108,-4.5254,-4.5392,-4.5357,-4.5405,-4.5694,-4.5982,-4.6102,-4.579,-4.5718,-4.5862,-4.5934,-4.5934,-4.5934,-4.603,-4.6126,-4.615,-4.6247,-4.6391,-4.6343,-4.6463,-4.6487,-4.6872,-4.7233,-4.7449,-4.7449,-4.7473,-4.7497,-4.7497,-4.7497,-4.7497,-4.7497,-4.7497,-4.7497,-4.7497,-4.7497,-4.7497,-4.7364,-4.6607,-4.5754,-4.3997,-4.2667,-4.1295,-4.0785,-3.9983,-3.9551,-3.9941,-4.0059,-4.0156,-4.0273,-4.0488,-4.0762,-4.0996,-4.1133,-4.1152,-5.35,-5.35,-5.35,-5.2837,-5.1674,-5.1511,-5.0211,-4.8442,-4.9106,-4.8411,-4.6755,-4.7475,-4.8035,-4.8035,-4.8094,-4.8035,-4.8152,-4.9019,-4.9872,-5.0657,-5.1155,-5.1676,-5.2059,-5.2437,-5.2275,-5.1841,-5.1787,-5.1787,-5.1787,-5.1787,-5.1787,-5.1787,-5.1787,-5.1787,-5.1787,-5.1787,-5.1787,-5.1787,-5.1787,-5.1787,-5.1787,-5.1787,-5.1787,-5.1787,-5.1787,-5.1787,-5.1787,-5.1787,-5.1787,-5.1787,-5.1787,-5.1787,-5.1787,-5.1787,-5.1265,-5.0097,-4.9759,-4.9431,-4.8773,-4.7647,-4.7082,-4.747,-4.6718,-4.6014,-4.6269,-4.6263,-4.644,-4.6697,-4.6697,-4.6439,-4.6102,-4.6126,-4.6078,-4.6078,-4.6415,-4.6655,-4.668,-4.704,-4.7377,-4.7353,-4.7281,-4.7281,-4.7401,-4.7473,-4.7497,-4.7497,-4.7497,-4.7497,-4.7497,-4.7497,-4.7497,-4.7497,-4.7497,-4.7497,-4.7497,-4.7497,-4.7497,-4.7322,-4.7103,-4.6705,-4.5829,-4.469,-4.3322,-4.1979,-4.0664,-4.0075,-4.0351,-4.0566,-4.0684,-4.0801,-4.0898,-4.1133,-4.1152,-4.1172,-4.1172,-5.35,-5.35,-5.35,-5.3237,-5.2783,-5.2028,-5.1182,-5.035,-4.9164,-4.8731,-4.8558,-4.8268,-4.8558,-4.9278,-5.007,-5.0014,-4.9278,-4.8935,-4.9362,-5.0378,-5.11,-5.1402,-5.1458,-5.2059,-5.2195,-5.1841,-5.1787,-5.1787,-5.1787,-5.1787,-5.1787,-5.1787,-5.1787,-5.1787,-5.1787,-5.1787,-5.1787,-5.1787,-5.1787,-5.1787,-5.1787,-5.1787,-5.1787,-5.1787,-5.1787,-5.1787,-5.1787,-5.1787,-5.1787,-5.1787,-5.1787,-5.1787,-5.1787,-5.1787,-5.1623,-5.1183,-5.0761,-5.0435,-5.0131,-4.9356,-4.8954,-4.91,-4.9117,-4.8861,-4.8874,-4.8521,-4.8333,-4.8287,-4.7644,-4.7088,-4.7016,-4.6944,-4.692,-4.6968,-4.7088,-4.7185,-4.7233,-4.7401,-4.7497,-4.7497,-4.7497,-4.7497,-4.7497,-4.7497,-4.7497,-4.7497,-4.7497,-4.7497,-4.7497,-4.7497,-4.7497,-4.7497,-4.7497,-4.7497,-4.7497,-4.7497,-4.7455,-4.726,-4.6954,-4.5943,-4.497,-4.4052,-4.2669,-4.1827,-4.0729,-4.0506,-4.0742,-4.0859,-4.1016,-4.1035,-4.1172,-4.1172,-4.1172,-4.1172,-4.1172,-5.35,-5.35,-5.35,-5.35,-5.3395,-5.2648,-5.2028,-5.162,-5.0406,-4.9901,-4.9788,-4.9392,-4.9732,-5.0406,-5.0906,-5.121,-5.0962,-5.0238,-5.0238,-5.0934,-5.1567,-5.1704,-5.1458,-5.195,-5.2059,-5.1841,-5.1787,-5.1787,-5.1787,-5.1787,-5.1787,-5.1787,-5.1787,-5.1787,-5.1787,-5.1787,-5.1787,-5.1787,-5.1787,-5.1787,-5.1787,-5.1787,-5.1787,-5.1787,-5.1787,-5.1787,-5.1787,-5.1787,-5.1787,-5.1787,-5.1787,-5.1787,-5.1787,-5.1787,-5.1871,-5.1986,-5.171,-5.1699,-5.1941,-5.1245,-5.0883,-5.1009,-5.0926,-5.0978,-5.0881,-5.047,-5.0041,-4.945,-4.8763,-4.8067,-4.7563,-4.7473,-4.7497,-4.7497,-4.7497,-4.7497,-4.7497,-4.7497,-4.7497,-4.7497,-4.7497,-4.7497,-4.7497,-4.7497,-4.7497,-4.7497,-4.7497,-4.7497,-4.7497,-4.7497,-4.7497,-4.7497,-4.7497,-4.7497,-4.7569,-4.7666,-4.7834,-4.7729,-4.7714,-4.6266,-4.4879,-4.3722,-4.2592,-4.165,-4.1146,-4.1053,-4.1035,-4.1133,-4.1172,-4.1172,-4.1172,-4.1172,-4.1172,-4.1172,-4.1172,-5.35,-5.35,-5.35,-5.35,-5.3448,-5.3395,-5.2783,-5.2082,-5.2701,-5.1811,-5.0573,-5.1072,-5.1456,-5.1511,-5.0934,-5.132,-5.289,-5.2943,-5.2865,-5.2894,-5.2894,-5.2627,-5.2167,-5.2113,-5.2004,-5.1787,-5.1787,-5.1787,-5.1787,-5.1787,-5.1787,-5.1787,-5.1787,-5.1787,-5.1787,-5.1787,-5.1815,-5.1871,-5.1871,-5.1871,-5.1815,-5.1927,-5.1983,-5.1927,-5.1927,-5.1955,-5.1899,-5.1815,-5.1787,-5.1787,-5.1787,-5.1787,-5.1787,-5.1843,-5.2096,-5.2545,-5.2658,-5.3304,-5.4144,-5.3237,-5.2859,-5.3125,-5.2367,-5.1848,-5.1971,-5.1652,-5.1053,-5.0194,-4.9515,-4.8933,-4.787,-4.7563,-4.7497,-4.7497,-4.7497,-4.7497,-4.7497,-4.7497,-4.7497,-4.7497,-4.7497,-4.7497,-4.7497,-4.7497,-4.7497,-4.7497,-4.7497,-4.7497,-4.7497,-4.7497,-4.7497,-4.7497,-4.7497,-4.7521,-4.7714,-4.7906,-4.8147,-4.8339,-4.8348,-4.7695,-4.6269,-4.5012,-4.3604,-4.2525,-4.1343,-4.1152,-4.1074,-4.1172,-4.1172,-4.1172,-4.1172,-4.1172,-4.1172,-4.1172,-4.1172,-5.35,-5.35,-5.35,-5.35,-5.35,-5.35,-5.3237,-5.289,-5.2541,-5.2272,-5.2272,-5.192,-5.2136,-5.2701,-5.2487,-5.2783,-5.3448,-5.35,-5.3477,-5.3319,-5.3001,-5.2734,-5.2465,-5.2113,-5.1896,-5.1787,-5.1787,-5.1787,-5.1787,-5.1787,-5.1787,-5.1787,-5.1787,-5.1787,-5.1815,-5.1787,-5.1955,-5.2377,-5.2433,-5.263,-5.3023,-5.3135,-5.3051,-5.3079,-5.3079,-5.3079,-5.3051,-5.2264,-5.1815,-5.1815,-5.1787,-5.1787,-5.1871,-5.218,-5.2517,-5.277,-5.3557,-5.4091,-5.454,-5.4613,-5.4571,-5.4765,-5.4437,-5.4318,-5.4139,-5.3389,-5.2692,-5.1989,-5.0675,-4.9257,-4.8868,-4.8002,-4.7563,-4.7497,-4.7497,-4.7497,-4.7497,-4.7497,-4.7497,-4.7497,-4.7497,-4.7497,-4.7497,-4.7497,-4.7497,-4.7497,-4.7497,-4.7497,-4.7497,-4.7497,-4.7497,-4.7497,-4.7521,-4.7666,-4.7954,-4.8315,-4.8652,-4.8916,-4.906,-4.8121,-4.6864,-4.5918,-4.4507,-4.2937,-4.181,-4.125,-4.125,-4.1172,-4.1172,-4.1172,-4.1172,-4.1172,-4.1172,-4.1172,-4.1172,-5.35,-5.35,-5.35,-5.35,-5.35,-5.35,-5.35,-5.3395,-5.2701,-5.2837,-5.3237,-5.2701,-5.2755,-5.3395,-5.35,-5.35,-5.35,-5.35,-5.3477,-5.3319,-5.2947,-5.2627,-5.2329,-5.2004,-5.1787,-5.1787,-5.1787,-5.1787,-5.1787,-5.1787,-5.1787,-5.1787,-5.1787,-5.1927,-5.2096,-5.2152,-5.2433,-5.2967,-5.3051,-5.3276,-5.3585,-5.3726,-5.3726,-5.3726,-5.3726,-5.3726,-5.367,-5.2883,-5.2489,-5.2489,-5.2489,-5.2489,-5.2517,-5.2854,-5.3164,-5.3529,-5.4091,-5.4653,-5.4934,-5.5271,-5.5496,-5.5496,-5.5496,-5.5496,-5.5379,-5.4616,-5.4139,-5.3241,-5.2077,-5.0549,-4.9554,-4.8803,-4.8067,-4.7497,-4.7497,-4.7497,-4.7497,-4.7497,-4.7497,-4.7497,-4.7497,-4.7497,-4.7497,-4.7497,-4.7497,-4.7497,-4.7497,-4.7497,-4.7497,-4.7497,-4.7497,-4.7569,-4.7762,-4.7954,-4.8243,-4.8676,-4.9157,-4.9445,-4.9686,-4.8097,-4.6525,-4.6043,-4.5052,-4.2769,-4.125,-4.125,-4.1172,-4.1172,-4.1172,-4.1172,-4.1172,-4.1172,-4.1172,-4.1172,-4.1172,-5.35,-5.35,-5.35,-5.35,-5.35,-5.35,-5.35,-5.35,-5.3448,-5.3424,-5.3448,-5.3395,-5.3395,-5.35,-5.35,-5.35,-5.35,-5.35,-5.329,-5.3107,-5.2841,-5.2519,-5.195,-5.1841,-5.1787,-5.1787,-5.1787,-5.1787,-5.1787,-5.1899,-5.1843,-5.1927,-5.204,-5.2208,-5.2658,-5.277,-5.3079,-5.3641,-5.3726,-5.3754,-5.3923,-5.3923,-5.3923,-5.3951,-5.3979,-5.3979,-5.3979,-5.3838,-5.3754,-5.3669,-5.3557,-5.3529,-5.367,-5.3697,-5.3978,-5.44,-5.4597,-5.4962,-5.5355,-5.5468,-5.5496,-5.5496,-5.5496,-5.5496,-5.5437,-5.532,-5.488,-5.3932,-5.318,-5.2051,-5.0194,-4.9192,-4.8632,-4.7738,-4.7497,-4.7497,-4.7497,-4.7497,-4.7497,-4.7497,-4.7497,-4.7497,-4.7497,-4.7497,-4.7497,-4.7497,-4.7497,-4.7497,-4.7497,-4.7497,-4.7521,-4.7714,-4.7978,-4.8387,-4.87,-4.9084,-4.9565,-4.9787,-4.9698,-4.7967,-4.6065,-4.5382,-4.4591,-4.2447,-4.1172,-4.1172,-4.1172,-4.1172,-4.1172,-4.1172,-4.1172,-4.1172,-4.1172,-4.1172,-4.1094,-5.35,-5.35,-5.35,-5.35,-5.35,-5.35,-5.35,-5.35,-5.35,-5.35,-5.35,-5.35,-5.35,-5.35,-5.35,-5.35,-5.35,-5.35,-5.3237,-5.2894,-5.2947,-5.2519,-5.195,-5.1787,-5.1787,-5.1787,-5.1787,-5.1787,-5.1815,-5.2236,-5.2433,-5.2489,-5.2883,-5.3192,-5.3416,-5.3416,-5.3754,-5.4259,-5.4344,-5.4569,-5.4906,-5.4962,-5.5018,-5.5018,-5.499,-5.499,-5.5018,-5.5018,-5.454,-5.3782,-5.3726,-5.3726,-5.3838,-5.4119,-5.4456,-5.4625,-5.5018,-5.5299,-5.544,-5.5496,-5.5496,-5.5496,-5.5496,-5.5496,-5.5496,-5.5496,-5.532,-5.4616,-5.3389,-5.1803,-5.0802,-4.9192,-4.8002,-4.763,-4.7497,-4.7497,-4.7497,-4.7497,-4.7497,-4.7497,-4.7497,-4.7497,-4.7497,-4.7497,-4.7497,-4.7497,-4.7497,-4.7497,-4.7497,-4.7593,-4.7666,-4.7978,-4.8315,-4.8796,-4.9205,-4.9589,-4.9904,-5.0148,-4.9415,-4.7763,-4.5627,-4.389,-4.281,-4.125,-4.125,-4.1172,-4.1172,-4.1172,-4.1172,-4.1172,-4.1172,-4.1172,-4.1172,-4.1172,-4.0919,-5.35,-5.35,-5.35,-5.35,-5.35,-5.35,-5.35,-5.35,-5.35,-5.35,-5.35,-5.35,-5.35,-5.35,-5.35,-5.35,-5.35,-5.35,-5.3266,-5.2947,-5.2894,-5.2573,-5.2059,-5.1896,-5.1787,-5.1787,-5.1787,-5.1927,-5.218,-5.2545,-5.2826,-5.3107,-5.3473,-5.3782,-5.4063,-5.4063,-5.4372,-5.485,-5.499,-5.5187,-5.5468,-5.5496,-5.5496,-5.5496,-5.5496,-5.5496,-5.5496,-5.5496,-5.5131,-5.4597,-5.4456,-5.4428,-5.4456,-5.4737,-5.4962,-5.499,-5.5327,-5.5496,-5.5496,-5.5496,-5.5496,-5.5496,-5.5496,-5.5496,-5.5496,-5.5496,-5.5496,-5.5261,-5.351,-5.2262,-5.1179,-4.9063,-4.7672,-4.7497,-4.7497,-4.7497,-4.7497,-4.7497,-4.7497,-4.7497,-4.7497,-4.7497,-4.7497,-4.7497,-4.7497,-4.7497,-4.7497,-4.7497,-4.7497,-4.769,-4.793,-4.8291,-4.8748,-4.9277,-4.9638,-4.9974,-4.9745,-4.9985,-4.8575,-4.7045,-4.4966,-4.281,-4.1985,-4.125,-4.125,-4.1172,-4.1172,-4.1172,-4.1172,-4.1172,-4.1172,-4.1172,-4.1172,-4.0997,-4.0763,-5.35,-5.35,-5.35,-5.35,-5.35,-5.35,-5.35,-5.35,-5.35,-5.35,-5.35,-5.35,-5.35,-5.35,-5.35,-5.35,-5.35,-5.35,-5.3343,-5.3107,-5.2841,-5.2465,-5.2304,-5.2004,-5.1926,-5.1955,-5.1899,-5.2293,-5.2742,-5.2911,-5.3248,-5.3697,-5.3866,-5.4175,-5.4597,-5.4681,-5.499,-5.5327,-5.5383,-5.5412,-5.5496,-5.5496,-5.5496,-5.5496,-5.5496,-5.5496,-5.5496,-5.5496,-5.544,-5.5468,-5.5496,-5.5383,-5.5412,-5.5468,-5.5468,-5.544,-5.5468,-5.5496,-5.5496,-5.5496,-5.5496,-5.5496,-5.5496,-5.5496,-5.5496,-5.5496,-5.5379,-5.5057,-5.4052,-5.2324,-5.0701,-4.8698,-4.7738,-4.7497,-4.7497,-4.7497,-4.7497,-4.7497,-4.7497,-4.7497,-4.7497,-4.7497,-4.7497,-4.7497,-4.7497,-4.7497,-4.7521,-4.7593,-4.7714,-4.7954,-4.8291,-4.87,-4.9205,-4.9806,-5.0095,-5.0359,-4.989,-4.9509,-4.7631,-4.5862,-4.3856,-4.2216,-4.1618,-4.1172,-4.1172,-4.1172,-4.1172,-4.1172,-4.1172,-4.1172,-4.1172,-4.1172,-4.1094,-4.0841,-4.0588,-5.35,-5.35,-5.35,-5.35,-5.35,-5.35,-5.35,-5.35,-5.35,-5.35,-5.35,-5.35,-5.35,-5.35,-5.35,-5.35,-5.35,-5.35,-5.3448,-5.3372,-5.2598,-5.2519,-5.2465,-5.2278,-5.2287,-5.2404,-5.2489,-5.2854,-5.3388,-5.3866,-5.4231,-5.44,-5.4765,-5.5159,-5.5243,-5.5215,-5.5327,-5.5496,-5.5496,-5.5496,-5.5496,-5.5496,-5.5496,-5.5496,-5.5496,-5.5496,-5.5496,-5.5496,-5.5496,-5.5496,-5.5496,-5.5496,-5.5496,-5.5496,-5.5496,-5.5496,-5.5496,-5.5496,-5.5496,-5.5496,-5.5496,-5.5496,-5.5496,-5.5496,-5.5496,-5.5496,-5.4998,-5.4052,-5.2692,-5.1142,-4.8933,-4.7936,-4.7563,-4.7497,-4.7497,-4.7497,-4.7497,-4.7497,-4.7497,-4.7497,-4.7497,-4.7497,-4.7497,-4.7431,-4.7497,-4.7497,-4.7593,-4.7714,-4.7954,-4.8243,-4.87,-4.9157,-4.9589,-5.0119,-5.0335,-5.0316,-4.9486,-4.8766,-4.6898,-4.4891,-4.2887,-4.185,-4.1405,-4.1172,-4.1172,-4.1172,-4.1172,-4.1172,-4.1172,-4.1172,-4.1094,-4.0938,-4.0763,-4.0509,-4.0275,-5.35,-5.35,-5.35,-5.35,-5.35,-5.35,-5.35,-5.35,-5.35,-5.35,-5.35,-5.35,-5.35,-5.35,-5.35,-5.35,-5.35,-5.35,-5.35,-5.3343,-5.2865,-5.268,-5.2658,-5.267,-5.2737,-5.2769,-5.2686,-5.3192,-5.3978,-5.4428,-5.4681,-5.5018,-5.5355,-5.5412,-5.5496,-5.5496,-5.5496,-5.5496,-5.5496,-5.5496,-5.5496,-5.5496,-5.5496,-5.5496,-5.5496,-5.5496,-5.5496,-5.5496,-5.5496,-5.5496,-5.5496,-5.5496,-5.5496,-5.5496,-5.5496,-5.5496,-5.5496,-5.5496,-5.5496,-5.5496,-5.5496,-5.5496,-5.5496,-5.5496,-5.5496,-5.5496,-5.5261,-5.4199,-5.2631,-5.0422,-4.787,-4.7497,-4.7497,-4.7497,-4.7497,-4.7497,-4.7497,-4.7497,-4.7497,-4.7497,-4.7497,-4.7497,-4.7497,-4.7364,-4.7279,-4.7279,-4.7638,-4.7782,-4.8136,-4.8516,-4.9205,-4.9662,-5.0046,-5.0383,-5.0576,-5.0151,-4.9008,-4.7945,-4.6359,-4.4289,-4.2139,-4.1618,-4.125,-4.1172,-4.1172,-4.1172,-4.1172,-4.1172,-4.1094,-4.0919,-4.0763,-4.0607,-4.0372,-4.004,-3.9805,-5.35,-5.35,-5.35,-5.35,-5.35,-5.35,-5.35,-5.35,-5.35,-5.35,-5.35,-5.35,-5.35,-5.35,-5.35,-5.35,-5.35,-5.35,-5.35,-5.3448,-5.3107,-5.2841,-5.2741,-5.2842,-5.2992,-5.2826,-5.3079,-5.3754,-5.4484,-5.4765,-5.5046,-5.5412,-5.5496,-5.5496,-5.5496,-5.5496,-5.5496,-5.5496,-5.5496,-5.5496,-5.5496,-5.5496,-5.5496,-5.5496,-5.5496,-5.5496,-5.5496,-5.5496,-5.5496,-5.5496,-5.5496,-5.5496,-5.5496,-5.5496,-5.5496,-5.5496,-5.5496,-5.5496,-5.5496,-5.5496,-5.5496,-5.5496,-5.5496,-5.5496,-5.5496,-5.5437,-5.5175,-5.4199,-5.2631,-5.0194,-4.8133,-4.7563,-4.7563,-4.7497,-4.7497,-4.7497,-4.7497,-4.7497,-4.7497,-4.7497,-4.7497,-4.7497,-4.7364,-4.7232,-4.7079,-4.7064,-4.7468,-4.7916,-4.827,-4.8741,-4.9405,-5.0022,-5.0359,-5.0479,-5.0648,-5.0554,-4.9437,-4.7872,-4.6211,-4.4289,-4.2216,-4.154,-4.1327,-4.125,-4.1172,-4.1172,-4.1094,-4.0997,-4.0841,-4.0588,-4.0353,-4.0216,-3.9902,-3.9588,-3.9351,-5.35,-5.35,-5.35,-5.35,-5.35,-5.35,-5.35,-5.35,-5.35,-5.35,-5.35,-5.35,-5.35,-5.35,-5.35,-5.35,-5.35,-5.35,-5.35,-5.3395,-5.3054,-5.2734,-5.2741,-5.2931,-5.3107,-5.3613,-5.395,-5.4625,-5.5131,-5.5383,-5.5355,-5.5468,-5.5496,-5.5496,-5.5496,-5.5496,-5.5496,-5.5496,-5.5496,-5.5496,-5.5496,-5.5496,-5.5496,-5.5496,-5.5496,-5.5496,-5.5496,-5.5496,-5.5496,-5.5496,-5.5496,-5.5496,-5.5496,-5.5496,-5.5496,-5.5496,-5.5496,-5.5496,-5.5496,-5.5496,-5.5496,-5.5496,-5.5496,-5.5496,-5.5496,-5.5437,-5.5057,-5.3631,-5.1829,-4.9682,-4.9257,-4.8133,-4.7563,-4.7497,-4.7497,-4.7497,-4.7497,-4.7497,-4.7497,-4.7497,-4.7497,-4.7431,-4.7322,-4.7218,-4.7116,-4.715,-4.7483,-4.8023,-4.8588,-4.9011,-4.9578,-5.0124,-5.0624,-5.0672,-5.0696,-5.0625,-4.9961,-4.8308,-4.6677,-4.502,-4.3172,-4.1907,-4.1385,-4.1016,-4.1016,-4.1172,-4.1094,-4.0841,-4.0607,-4.0275,-4.004,-3.9902,-3.9509,-3.9193,-3.9035,-5.35,-5.35,-5.35,-5.35,-5.35,-5.35,-5.35,-5.35,-5.35,-5.35,-5.35,-5.35,-5.35,-5.35,-5.35,-5.35,-5.35,-5.35,-5.35,-5.3343,-5.3001,-5.268,-5.2769,-5.3019,-5.336,-5.3866,-5.4569,-5.5159,-5.5468,-5.5496,-5.5496,-5.5496,-5.5496,-5.5496,-5.5496,-5.5496,-5.5496,-5.5496,-5.5496,-5.5496,-5.5496,-5.5496,-5.5496,-5.5496,-5.5496,-5.5496,-5.5496,-5.5496,-5.5496,-5.5496,-5.5496,-5.5496,-5.5496,-5.5496,-5.5496,-5.5496,-5.5496,-5.5496,-5.5496,-5.5496,-5.5496,-5.5496,-5.5496,-5.5496,-5.5496,-5.5379,-5.4793,-5.345,-5.1927,-5.0257,-4.949,-4.8306,-4.763,-4.7497,-4.7497,-4.7497,-4.7497,-4.7497,-4.7497,-4.7497,-4.7479,-4.7412,-4.737,-4.727,-4.715,-4.7299,-4.7491,-4.8122,-4.8803,-4.9204,-4.9629,-5.0032,-5.0483,-5.0554,-5.0625,-5.0554,-5.0246,-4.8694,-4.6876,-4.5244,-4.3532,-4.1965,-4.0997,-4.0451,-4.0607,-4.1016,-4.0841,-4.0588,-4.0275,-3.9962,-3.9726,-3.943,-3.9114,-3.8877,-3.8798,-5.35,-5.35,-5.35,-5.35,-5.35,-5.35,-5.35,-5.35,-5.35,-5.35,-5.35,-5.35,-5.35,-5.35,-5.35,-5.35,-5.35,-5.35,-5.35,-5.3395,-5.2947,-5.268,-5.2861,-5.3328,-5.3726,-5.381,-5.485,-5.5496,-5.5496,-5.5496,-5.5496,-5.5496,-5.5496,-5.5496,-5.5496,-5.5496,-5.5496,-5.5496,-5.5496,-5.5496,-5.5496,-5.5496,-5.5496,-5.5496,-5.5496,-5.5496,-5.5496,-5.5496,-5.5496,-5.5496,-5.5496,-5.5496,-5.5496,-5.5496,-5.5496,-5.5496,-5.5496,-5.5496,-5.5496,-5.5496,-5.5496,-5.5496,-5.5496,-5.5496,-5.5379,-5.5116,-5.4556,-5.351,-5.1829,-5.0549,-4.949,-4.824,-4.763,-4.7497,-4.7497,-4.7497,-4.7497,-4.7497,-4.7497,-4.7521,-4.7503,-4.7447,-4.7389,-4.7508,-4.7478,-4.7608,-4.7866,-4.831,-4.8873,-4.9107,-4.9438,-4.989,-5.0175,-5.0317,-5.0483,-5.0554,-5.0104,-4.9054,-4.7023,-4.5073,-4.3359,-4.1636,-4.0802,-4.0137,-4.0529,-4.0841,-4.0588,-4.0275,-3.9962,-3.9569,-3.9333,-3.9114,-3.8877,-3.8719,-3.8719,-5.35,-5.35,-5.35,-5.35,-5.35,-5.35,-5.35,-5.35,-5.35,-5.35,-5.35,-5.35,-5.35,-5.35,-5.35,-5.35,-5.35,-5.35,-5.3448,-5.3372,-5.2947,-5.2709,-5.2801,-5.3358,-5.3726,-5.395,-5.4962,-5.5412,-5.5496,-5.5496,-5.5496,-5.5496,-5.5496,-5.5496,-5.5496,-5.5496,-5.5496,-5.5496,-5.5496,-5.5496,-5.5496,-5.5496,-5.5496,-5.5496,-5.5496,-5.5496,-5.5496,-5.5496,-5.5496,-5.5496,-5.5496,-5.5496,-5.5496,-5.5496,-5.5496,-5.5496,-5.5496,-5.5496,-5.5496,-5.5496,-5.5496,-5.5496,-5.5496,-5.5496,-5.532,-5.4497,-5.3812,-5.351,-5.133,-4.9938,-4.9361,-4.824,-4.7672,-4.7497,-4.7497,-4.7497,-4.7497,-4.7497,-4.7497,-4.7537,-4.759,-4.7448,-4.7388,-4.762,-4.7854,-4.8006,-4.8214,-4.8659,-4.9012,-4.9223,-4.9317,-4.9675,-5.0104,-5.0341,-5.0341,-5.0483,-5.027,-4.9437,-4.7169,-4.5052,-4.3718,-4.2156,-4.0509,-4.0059,-4.0451,-4.0451,-4.0137,-3.9823,-3.9509,-3.9272,-3.9035,-3.8798,-3.864,-3.864,-3.864,-5.35,-5.35,-5.35,-5.35,-5.35,-5.35,-5.35,-5.35,-5.35,-5.35,-5.35,-5.35,-5.35,-5.35,-5.35,-5.35,-5.35,-5.35,-5.3395,-5.3266,-5.2923,-5.2798,-5.3039,-5.3444,-5.3838,-5.4344,-5.499,-5.5468,-5.5496,-5.5496,-5.5496,-5.5496,-5.5496,-5.5496,-5.5496,-5.5496,-5.5496,-5.5496,-5.5496,-5.5496,-5.5496,-5.5496,-5.5496,-5.5496,-5.5496,-5.5496,-5.5496,-5.5496,-5.5496,-5.5496,-5.5496,-5.5496,-5.5496,-5.5496,-5.5496,-5.5496,-5.5496,-5.5496,-5.5496,-5.5496,-5.5496,-5.5496,-5.5496,-5.5496,-5.5261,-5.4318,-5.3423,-5.3483,-5.1053,-4.9682,-4.9192,-4.824,-4.7738,-4.7497,-4.7497,-4.7497,-4.7497,-4.7521,-4.7527,-4.759,-4.7654,-4.7669,-4.7654,-4.7842,-4.8099,-4.8216,-4.8328,-4.8606,-4.9105,-4.9557,-4.9532,-4.9509,-4.9961,-5.0412,-5.0412,-5.0412,-5.0554,-4.958,-4.7096,-4.5276,-4.4398,-4.2902,-4.088,-3.9745,-3.9823,-3.9823,-3.9588,-3.9509,-3.943,-3.9114,-3.8719,-3.864,-3.864,-3.864,-3.864,-5.35,-5.35,-5.35,-5.35,-5.35,-5.35,-5.35,-5.35,-5.35,-5.35,-5.35,-5.35,-5.35,-5.35,-5.35,-5.35,-5.35,-5.35,-5.3319,-5.3107,-5.2873,-5.2889,-5.3156,-5.3557,-5.3978,-5.4625,-5.5159,-5.5468,-5.5496,-5.5496,-5.5496,-5.5496,-5.5496,-5.5496,-5.5496,-5.5496,-5.5496,-5.5496,-5.5496,-5.5496,-5.5496,-5.5496,-5.5496,-5.5496,-5.5496,-5.5496,-5.5496,-5.5496,-5.5496,-5.5496,-5.5496,-5.5496,-5.5496,-5.5496,-5.5496,-5.5496,-5.5496,-5.5496,-5.5496,-5.5496,-5.5496,-5.5496,-5.5437,-5.532,-5.4675,-5.3812,-5.2692,-5.2236,-5.0257,-4.9127,-4.8828,-4.8002,-4.7696,-4.7497,-4.7497,-4.7497,-4.7545,-4.7666,-4.7791,-4.7945,-4.8011,-4.8166,-4.817,-4.819,-4.8281,-4.8422,-4.8511,-4.8644,-4.9052,-4.9556,-4.9484,-4.9389,-4.989,-5.0175,-5.0104,-5.0175,-5.0412,-4.9723,-4.7169,-4.5521,-4.4548,-4.2693,-4.0353,-3.9666,-3.9509,-3.9351,-3.9272,-3.9351,-3.943,-3.8956,-3.864,-3.864,-3.864,-3.864,-3.864,-5.35,-5.35,-5.35,-5.35,-5.35,-5.35,-5.35,-5.35,-5.35,-5.35,-5.35,-5.35,-5.35,-5.35,-5.35,-5.35,-5.35,-5.35,-5.3319,-5.3054,-5.2844,-5.3003,-5.3271,-5.367,-5.4063,-5.4653,-5.5243,-5.5468,-5.5496,-5.5496,-5.5496,-5.5496,-5.5496,-5.5496,-5.5496,-5.5496,-5.5496,-5.5496,-5.5496,-5.5496,-5.5496,-5.5496,-5.5496,-5.5496,-5.5496,-5.5496,-5.5496,-5.5496,-5.5496,-5.5496,-5.5496,-5.5496,-5.5496,-5.5496,-5.5496,-5.5496,-5.5496,-5.5496,-5.5496,-5.5496,-5.5496,-5.5496,-5.532,-5.4821,-5.4052,-5.2508,-5.1242,-5.0257,-4.8933,-4.8067,-4.7804,-4.7563,-4.7497,-4.7497,-4.7521,-4.7593,-4.7738,-4.8002,-4.8127,-4.8256,-4.8368,-4.845,-4.8426,-4.8395,-4.8367,-4.8485,-4.8652,-4.8835,-4.8763,-4.9124,-4.9196,-4.9268,-4.9747,-4.9961,-4.9723,-4.989,-5.0341,-4.927,-4.7169,-4.5819,-4.4795,-4.254,-3.9902,-3.9745,-3.9647,-3.9272,-3.8956,-3.9035,-3.8956,-3.8798,-3.864,-3.864,-3.864,-3.864,-3.864,-5.35,-5.35,-5.35,-5.35,-5.35,-5.35,-5.35,-5.35,-5.35,-5.35,-5.35,-5.35,-5.35,-5.35,-5.35,-5.35,-5.35,-5.35,-5.3213,-5.312,-5.308,-5.3321,-5.3612,-5.4036,-5.4569,-5.5046,-5.5412,-5.5496,-5.5496,-5.5496,-5.5496,-5.5496,-5.5496,-5.5496,-5.5496,-5.5496,-5.5496,-5.5496,-5.5496,-5.5496,-5.5496,-5.5496,-5.5496,-5.5496,-5.5496,-5.5496,-5.5496,-5.5496,-5.5496,-5.5496,-5.5496,-5.5496,-5.5496,-5.5496,-5.5496,-5.5496,-5.5496,-5.5496,-5.5496,-5.5496,-5.5496,-5.532,-5.4821,-5.3992,-5.318,-5.1554,-5.0384,-4.9257,-4.833,-4.7563,-4.7497,-4.7497,-4.7497,-4.7497,-4.7569,-4.769,-4.7954,-4.8267,-4.8495,-4.8601,-4.8589,-4.8568,-4.8515,-4.8384,-4.8453,-4.8595,-4.8835,-4.9003,-4.8835,-4.8908,-4.898,-4.9124,-4.9627,-4.9675,-4.9532,-4.989,-5.0341,-4.891,-4.7243,-4.6063,-4.4795,-4.2022,-3.9902,-3.9805,-3.9647,-3.9351,-3.9035,-3.8798,-3.864,-3.864,-3.864,-3.864,-3.864,-3.864,-3.864,-5.35,-5.35,-5.35,-5.35,-5.35,-5.35,-5.35,-5.35,-5.35,-5.35,-5.35,-5.35,-5.35,-5.35,-5.35,-5.35,-5.3448,-5.3372,-5.3107,-5.2988,-5.3146,-5.3525,-5.3867,-5.4288,-5.4821,-5.5383,-5.5496,-5.5496,-5.5496,-5.5496,-5.5496,-5.5496,-5.5496,-5.5496,-5.5496,-5.5496,-5.5496,-5.5496,-5.5496,-5.5496,-5.5496,-5.5496,-5.5496,-5.5496,-5.5496,-5.5496,-5.5496,-5.5496,-5.5496,-5.5496,-5.5496,-5.5496,-5.5496,-5.5496,-5.5496,-5.5496,-5.5496,-5.5496,-5.5496,-5.5496,-5.532,-5.4734,-5.4139,-5.3241,-5.2051,-5.0575,-4.9643,-4.8738,-4.7936,-4.7497,-4.7497,-4.7497,-4.7497,-4.7497,-4.781,-4.7978,-4.8291,-4.8628,-4.8813,-4.8918,-4.885,-4.8847,-4.8606,-4.8549,-4.8427,-4.8473,-4.8546,-4.8691,-4.8763,-4.8835,-4.9052,-4.9268,-4.946,-4.9412,-4.934,-4.9675,-4.989,-4.9365,-4.7704,-4.6211,-4.4494,-4.179,-3.9962,-3.9647,-3.9509,-3.9272,-3.9035,-3.8719,-3.864,-3.864,-3.864,-3.864,-3.864,-3.864,-3.864,-5.35,-5.35,-5.35,-5.3471,-5.3442,-5.35,-5.35,-5.35,-5.35,-5.35,-5.35,-5.35,-5.35,-5.35,-5.35,-5.3448,-5.3424,-5.3213,-5.3005,-5.2912,-5.3264,-5.3498,-5.3895,-5.4428,-5.5018,-5.5383,-5.5496,-5.5496,-5.5496,-5.5496,-5.5496,-5.5496,-5.5496,-5.5496,-5.5496,-5.5496,-5.5496,-5.5496,-5.5496,-5.5496,-5.5496,-5.5496,-5.5496,-5.5496,-5.5496,-5.5496,-5.5496,-5.5496,-5.5496,-5.5496,-5.5496,-5.5496,-5.5496,-5.5496,-5.5496,-5.5496,-5.5496,-5.5496,-5.5496,-5.5496,-5.4939,-5.3992,-5.3423,-5.2385,-5.0448,-4.9321,-4.8958,-4.8067,-4.763,-4.7497,-4.7497,-4.7545,-4.7569,-4.7714,-4.8026,-4.8435,-4.8772,-4.8899,-4.908,-4.9086,-4.9274,-4.9342,-4.8933,-4.8691,-4.845,-4.84,-4.84,-4.8473,-4.8546,-4.8691,-4.8908,-4.9052,-4.9196,-4.9173,-4.9101,-4.9389,-4.9437,-4.9054,-4.7872,-4.5989,-4.4344,-4.2176,-4.0724,-3.9805,-3.9272,-3.9035,-3.8798,-3.864,-3.864,-3.864,-3.864,-3.864,-3.864,-3.864,-3.864,-5.35,-5.3471,-5.3065,-5.2891,-5.2949,-5.3355,-5.35,-5.35,-5.35,-5.35,-5.35,-5.35,-5.35,-5.35,-5.3448,-5.3424,-5.3266,-5.3189,-5.3009,-5.3094,-5.3525,-5.3979,-5.4402,-5.4793,-5.5271,-5.544,-5.5496,-5.5496,-5.5496,-5.5496,-5.5496,-5.5496,-5.5496,-5.5496,-5.5496,-5.5496,-5.5496,-5.5496,-5.5496,-5.5496,-5.5496,-5.5496,-5.5496,-5.5496,-5.5496,-5.5496,-5.5496,-5.5496,-5.5496,-5.5496,-5.5496,-5.5496,-5.5496,-5.5496,-5.5496,-5.5496,-5.5496,-5.5496,-5.5496,-5.5437,-5.488,-5.3752,-5.2631,-5.1492,-4.9746,-4.8632,-4.8002,-4.7696,-4.7497,-4.7497,-4.7497,-4.7882,-4.8026,-4.8171,-4.8483,-4.9012,-4.9373,-4.9312,-4.9296,-4.9298,-4.9365,-4.9101,-4.8763,-4.8691,-4.8546,-4.8377,-4.8377,-4.8377,-4.8473,-4.8473,-4.8618,-4.8691,-4.8835,-4.8812,-4.8957,-4.9101,-4.9101,-4.8717,-4.7118,-4.4924,-4.3359,-4.2176,-4.0802,-3.949,-3.9114,-3.8798,-3.8719,-3.864,-3.864,-3.864,-3.864,-3.864,-3.864,-3.864,-3.864,-5.3384,-5.3152,-5.2746,-5.2478,-5.231,-5.2688,-5.2949,-5.3181,-5.3384,-5.35,-5.35,-5.35,-5.35,-5.35,-5.3448,-5.3477,-5.3242,-5.3288,-5.3271,-5.3437,-5.3979,-5.4318,-5.471,-5.5187,-5.5412,-5.5496,-5.5496,-5.5496,-5.5496,-5.5496,-5.5496,-5.5496,-5.5496,-5.5496,-5.5496,-5.5496,-5.5496,-5.5496,-5.5496,-5.5496,-5.5496,-5.5496,-5.5496,-5.5496,-5.5496,-5.5496,-5.5496,-5.5496,-5.5496,-5.5496,-5.5496,-5.5496,-5.5496,-5.5496,-5.5496,-5.5496,-5.5496,-5.5496,-5.5496,-5.4821,-5.3992,-5.2815,-5.1953,-5.0701,-4.9257,-4.8067,-4.7738,-4.7497,-4.7521,-4.7666,-4.781,-4.8243,-4.8435,-4.8555,-4.9036,-4.9541,-4.9664,-4.9671,-4.9487,-4.9486,-4.9293,-4.8957,-4.8691,-4.8691,-4.8618,-4.8546,-4.8377,-4.84,-4.84,-4.84,-4.84,-4.8473,-4.8546,-4.8595,-4.8667,-4.8812,-4.8667,-4.84,-4.6625,-4.457,-4.3511,-4.254,-4.0938,-3.949,-3.9193,-3.8956,-3.8719,-3.864,-3.864,-3.864,-3.864,-3.864,-3.864,-3.864,-3.864,-5.3123,-5.2601,-5.2565,-5.2107,-5.1643,-5.173,-5.2078,-5.2739,-5.3268,-5.35,-5.35,-5.35,-5.35,-5.35,-5.35,-5.3448,-5.3434,-5.3468,-5.3566,-5.3747,-5.4234,-5.4514,-5.4821,-5.5243,-5.5468,-5.5496,-5.5496,-5.5496,-5.5496,-5.5496,-5.5496,-5.5496,-5.5496,-5.5496,-5.5496,-5.5496,-5.5496,-5.5496,-5.5496,-5.5496,-5.5496,-5.5496,-5.5496,-5.5496,-5.5496,-5.5496,-5.5496,-5.5496,-5.5496,-5.5496,-5.5496,-5.5496,-5.5496,-5.5496,-5.5496,-5.5496,-5.5496,-5.5496,-5.532,-5.4497,-5.3207,-5.2139,-5.1429,-4.9874,-4.8502,-4.7654,-4.7636,-4.7642,-4.7714,-4.8002,-4.8267,-4.8483,-4.8724,-4.9109,-4.9589,-4.9878,-4.9953,-4.9863,-4.9772,-4.9652,-4.9437,-4.915,-4.9029,-4.8957,-4.8884,-4.8812,-4.8667,-4.8618,-4.8546,-4.84,-4.84,-4.8377,-4.8473,-4.8473,-4.845,-4.8595,-4.8691,-4.8546,-4.6869,-4.4966,-4.3987,-4.2769,-4.0958,-3.9647,-3.943,-3.9114,-3.8719,-3.864,-3.864,-3.864,-3.864,-3.864,-3.864,-3.864,-3.864,-5.2798,-5.2536,-5.1614,-5.112,-5.1033,-5.141,-5.2223,-5.321,-5.3471,-5.35,-5.35,-5.35,-5.35,-5.35,-5.35,-5.3266,-5.3259,-5.3363,-5.3577,-5.3923,-5.4459,-5.4851,-5.5159,-5.5412,-5.5496,-5.5496,-5.5496,-5.5496,-5.5496,-5.5496,-5.5496,-5.5496,-5.5496,-5.5496,-5.5496,-5.5524,-5.5552,-5.558,-5.558,-5.5608,-5.5608,-5.5636,-5.5636,-5.5664,-5.5693,-5.5664,-5.5608,-5.558,-5.558,-5.5524,-5.5496,-5.5496,-5.5496,-5.5496,-5.5496,-5.5496,-5.5496,-5.5496,-5.532,-5.4259,-5.2842,-5.1507,-5.0664,-4.9321,-4.8067,-4.7617,-4.7738,-4.793,-4.8074,-4.8363,-4.8748,-4.9036,-4.9277,-4.9662,-5.0046,-5.0263,-5.0289,-5.0078,-4.9961,-4.9747,-4.9509,-4.9437,-4.9317,-4.9389,-4.9317,-4.9173,-4.9029,-4.8908,-4.8691,-4.8546,-4.84,-4.84,-4.84,-4.84,-4.8473,-4.8546,-4.8691,-4.845,-4.6721,-4.5287,-4.4289,-4.2846,-4.088,-3.9805,-3.9351,-3.9035,-3.864,-3.864,-3.864,-3.864,-3.864,-3.864,-3.864,-3.864,-3.864,-5.2478,-5.2078,-5.112,-5.083,-5.1149,-5.173,-5.2601,-5.3413,-5.35,-5.35,-5.35,-5.35,-5.35,-5.3477,-5.3372,-5.3304,-5.3353,-5.3656,-5.3977,-5.4403,-5.4682,-5.5074,-5.5412,-5.5496,-5.5496,-5.5496,-5.5496,-5.5496,-5.5496,-5.5496,-5.5496,-5.5496,-5.5496,-5.5496,-5.558,-5.5749,-5.5917,-5.5917,-5.5889,-5.5861,-5.5917,-5.6086,-5.6226,-5.617,-5.6198,-5.6086,-5.5889,-5.5861,-5.5777,-5.558,-5.5496,-5.5496,-5.5496,-5.5496,-5.5496,-5.5496,-5.5496,-5.5116,-5.4556,-5.3389,-5.2183,-5.1085,-4.9841,-4.8993,-4.8446,-4.8098,-4.8291,-4.8459,-4.8579,-4.8796,-4.9253,-4.9662,-4.9926,-5.0191,-5.0431,-5.0672,-5.0459,-5.0317,-5.0033,-4.9818,-4.9675,-4.9532,-4.9509,-4.9652,-4.9652,-4.9437,-4.9245,-4.9101,-4.8835,-4.8618,-4.8473,-4.84,-4.8473,-4.8473,-4.8473,-4.8691,-4.8908,-4.8427,-4.6625,-4.5341,-4.4419,-4.2769,-4.0646,-3.9647,-3.9193,-3.8877,-3.864,-3.864,-3.864,-3.864,-3.864,-3.864,-3.864,-3.864,-3.864,-5.2136,-5.1497,-5.0917,-5.1004,-5.1672,-5.2252,-5.2891,-5.3471,-5.35,-5.35,-5.35,-5.3477,-5.3448,-5.3372,-5.316,-5.3345,-5.3534,-5.3888,-5.429,-5.4941,-5.519,-5.544,-5.5468,-5.5496,-5.5496,-5.5496,-5.5496,-5.5496,-5.5496,-5.5496,-5.5496,-5.5496,-5.5496,-5.5552,-5.5777,-5.6086,-5.6311,-5.6507,-5.662,-5.6676,-5.6676,-5.6985,-5.7378,-5.7294,-5.7182,-5.7041,-5.6648,-5.6395,-5.6226,-5.5861,-5.5693,-5.5777,-5.5664,-5.5664,-5.5664,-5.5404,-5.5314,-5.4837,-5.3842,-5.2607,-5.1522,-5.0373,-4.9187,-4.8942,-4.8768,-4.8531,-4.8676,-4.8988,-4.9157,-4.9421,-4.983,-5.0022,-5.0239,-5.0407,-5.06,-5.0696,-5.0625,-5.0412,-5.0175,-4.9961,-4.989,-4.9818,-5.0033,-5.0104,-5.0104,-4.9795,-4.958,-4.946,-4.9173,-4.8884,-4.8691,-4.8595,-4.8618,-4.8691,-4.8884,-4.9101,-4.9245,-4.8404,-4.6824,-4.5788,-4.517,-4.2999,-4.0275,-3.9569,-3.9114,-3.8877,-3.8719,-3.864,-3.864,-3.864,-3.864,-3.864,-3.864,-3.864,-3.864,-5.1468,-5.0888,-5.0743,-5.1033,-5.1672,-5.231,-5.2949,-5.35,-5.35,-5.35,-5.3448,-5.3319,-5.3213,-5.316,-5.2947,-5.3077,-5.349,-5.392,-5.429,-5.4825,-5.5271,-5.5496,-5.5496,-5.5496,-5.5496,-5.5496,-5.5496,-5.5496,-5.5496,-5.5496,-5.5496,-5.5496,-5.5552,-5.5749,-5.6114,-5.6451,-5.676,-5.7126,-5.7519,-5.7519,-5.735,-5.7266,-5.7378,-5.7435,-5.7407,-5.7435,-5.7182,-5.7126,-5.7069,-5.6929,-5.6929,-5.6704,-5.6254,-5.6226,-5.5945,-5.5516,-5.4966,-5.4439,-5.3503,-5.2216,-5.1195,-5.0556,-4.9867,-4.9572,-4.9301,-4.9036,-4.9084,-4.9469,-4.9782,-5.007,-5.0287,-5.0407,-5.0503,-5.06,-5.0696,-5.0696,-5.0696,-5.0483,-5.0246,-5.0175,-5.0104,-5.0175,-5.0412,-5.0483,-5.0483,-5.0341,-5.0104,-4.989,-4.9747,-4.946,-4.9196,-4.9052,-4.8908,-4.898,-4.9245,-4.946,-4.9604,-4.915,-4.7799,-4.6824,-4.5714,-4.2769,-3.9805,-3.9411,-3.9035,-3.8877,-3.8719,-3.864,-3.864,-3.864,-3.864,-3.864,-3.864,-3.864,-3.864,-5.1004,-5.0714,-5.0975,-5.1294,-5.173,-5.2601,-5.321,-5.3471,-5.35,-5.35,-5.35,-5.3372,-5.3213,-5.3054,-5.2841,-5.3089,-5.3496,-5.3782,-5.4431,-5.4992,-5.5243,-5.544,-5.5496,-5.5496,-5.5496,-5.5496,-5.5496,-5.5496,-5.5496,-5.5496,-5.5496,-5.558,-5.5721,-5.6086,-5.6507,-5.6873,-5.7378,-5.78,-5.839,-5.8418,-5.8137,-5.8137,-5.8193,-5.8193,-5.8165,-5.8081,-5.7828,-5.7744,-5.7603,-5.7463,-5.7294,-5.721,-5.6901,-5.6845,-5.6289,-5.5579,-5.4869,-5.4137,-5.2952,-5.1958,-5.0921,-5.0463,-5.0152,-4.9755,-5.0095,-4.9902,-4.9926,-5.0239,-5.0239,-5.0479,-5.0503,-5.06,-5.0624,-5.0672,-5.0696,-5.0696,-5.0554,-5.0412,-5.0412,-5.0483,-5.0341,-5.0246,-5.0483,-5.0625,-5.0625,-5.0625,-5.0412,-5.0175,-5.0104,-5.0033,-4.9747,-4.9556,-4.9412,-4.9484,-4.9675,-4.9818,-4.9961,-4.9342,-4.8598,-4.5841,-4.3608,-4.1404,-3.9509,-3.9114,-3.8877,-3.8719,-3.864,-3.864,-3.864,-3.864,-3.864,-3.864,-3.864,-3.864,-3.864,-5.0685,-5.0772,-5.1352,-5.1672,-5.1904,-5.2978,-5.35,-5.35,-5.35,-5.3477,-5.3424,-5.3424,-5.3319,-5.3054,-5.2905,-5.3461,-5.3809,-5.398,-5.4626,-5.5159,-5.544,-5.5496,-5.5496,-5.5496,-5.5496,-5.5496,-5.5496,-5.5496,-5.5496,-5.5496,-5.558,-5.5693,-5.6086,-5.6507,-5.6957,-5.7575,-5.825,-5.8474,-5.884,-5.9093,-5.9177,-5.9205,-5.9093,-5.9121,-5.9177,-5.8924,-5.8587,-5.8334,-5.8081,-5.7969,-5.78,-5.7416,-5.7121,-5.6826,-5.5895,-5.5076,-5.4277,-5.323,-5.2027,-5.1339,-5.0714,-5.0246,-5.0065,-5.0167,-5.0576,-5.0648,-5.0648,-5.0648,-5.0648,-5.0672,-5.0696,-5.0696,-5.0696,-5.0696,-5.0696,-5.0696,-5.0554,-5.0412,-5.0554,-5.0696,-5.0554,-5.0412,-5.0483,-5.0625,-5.0696,-5.0696,-5.0625,-5.0412,-5.0341,-5.0317,-5.0199,-5.0033,-4.9961,-5.0033,-5.0175,-5.0175,-5.0246,-4.9961,-4.8838,-4.4945,-4.179,-4.0568,-3.949,-3.8877,-3.864,-3.864,-3.864,-3.864,-3.864,-3.864,-3.864,-3.864,-3.864,-3.864,-3.864,-5.0656,-5.0714,-5.1352,-5.1904,-5.2455,-5.321,-5.35,-5.35,-5.3448,-5.3372,-5.3213,-5.316,-5.3001,-5.2791,-5.3063,-5.3441,-5.381,-5.412,-5.4737,-5.5412,-5.5496,-5.5496,-5.5496,-5.5496,-5.5496,-5.5496,-5.5496,-5.5496,-5.5552,-5.5552,-5.5777,-5.6198,-5.6311,-5.6929,-5.7884,-5.8362,-5.8587,-5.8868,-5.9008,-5.9205,-5.9205,-5.9205,-5.9205,-5.9205,-5.9205,-5.9149,-5.9036,-5.9036,-5.898,-5.8896,-5.8693,-5.7889,-5.7169,-5.6538,-5.5591,-5.4153,-5.3413,-5.2644,-5.1605,-5.1058,-5.0613,-5.0546,-5.0407,-5.0455,-5.0696,-5.0696,-5.0696,-5.0696,-5.0696,-5.0696,-5.0696,-5.0696,-5.0696,-5.0696,-5.0696,-5.0696,-5.0625,-5.0554,-5.0625,-5.0696,-5.0625,-5.0554,-5.0625,-5.0696,-5.0696,-5.0696,-5.0696,-5.0554,-5.0554,-5.0554,-5.0554,-5.0388,-5.0317,-5.0483,-5.0554,-5.0483,-5.0483,-5.0246,-4.9126,-4.5521,-4.2596,-4.0705,-3.9629,-3.8877,-3.864,-3.864,-3.864,-3.864,-3.864,-3.864,-3.864,-3.864,-3.864,-3.864,-3.864]}]]